     2              OBSERVATION DATA    GPS                 RINEX VERSION / TYPE
TRRINEXO-V2.3.1-LH UCLA/SCEC 01-MAR-1994                    PGM / RUN BY / DATE
                                                            COMMENT
Original Marker Name: UCLA YOUNG HALL                       COMMENT
Campaign Name: Northridge 1994                              COMMENT
4-Character Station Name: UCLA                              COMMENT
6-Character Antenna Code: TRMSST                            COMMENT
Vertical Measurement Point: BPA                             COMMENT
Vertical Offset to Rinex Ref. Point: 0.0000                 COMMENT
Radial Measurement Point: RRP                               COMMENT
Radial Offset to Rinex Ref. Point: 0.0000                   COMMENT
Antenna Height from Field Measurement: 0.0000 m             COMMENT
Fixed station.                                              COMMENT
Original XYZ: -2518976.6215 -4650759.3142 3552842.5848      COMMENT
New XYZ position is based on association with SCEC monument COMMENT
E1C7Y6O1+0021. Position of that monument is believed to be  COMMENT
valid to within 1 m horizontally; vertical accuracy         COMMENT
should be no worse than 3-times this value.                 COMMENT
                                                            COMMENT
Revised Rinex header created by UCSD GPS archive for        COMMENT
GSAC on 06-Apr-1999 (1999:096) 06:40:30 GMT                 COMMENT
For assistance contact dagnew@ucsd.edu or hjohnson@ucsd.edu COMMENT
                                                            COMMENT
UCLA YOUNG HALL 1990                                        MARKER NAME
X. GE UCLA                                                  OBSERVER / AGENCY
432 TRIMBLE 4000 SST 4.81                                   REC # / TYPE / VERS
97 TR 4000SST L1/L2 GEO                                     ANT # / TYPE
 -2518952.0000 -4650737.0000  3552822.0000                  APPROX POSITION XYZ
        0.0000        0.0000        0.0000                  ANTENNA: DELTA H/E/N
     1     2     0                                          WAVELENGTH FACT L1/2
     3    C1    L1    L2                                    # / TYPES OF OBSERV
    30                                                      INTERVAL
  1994     1    27     0     1   30.000000                  TIME OF FIRST OBS
  1994     1    27    17     7    0.000000                  TIME OF LAST OBS
     0                                                      # OF SATELLITES
                                                            END OF HEADER
 94  1 27  0  1 30.0000000  0  7 19 27  2 29 18 16 31
  20756304.813          -0.03617
  20722962.570          -0.12517
  22116780.406          -0.24916
  24416737.844          -0.29813
  21688865.656          -0.94816
  23904116.859          -0.07115
  22151563.484          -0.45016
 94  1 27  0  2  0.0000000  0  7 19 27  2 29 18 16 31
  20758966.148       13999.480 7        -0.49619
  20716467.648      -34152.800 7        -0.40619
  22106225.984      -55461.670 6        -0.13117
  24437636.703      109828.292 3        -0.02612
  21705208.203       85881.867 6        -0.43517
  23903380.953       -3818.165 4
  22158863.961       38364.160 6
 94  1 27  0  2 30.0000000  0  7 19 27  2 29 18 16 31
  20761670.758       28204.294 7     11068.204 9
  20710004.945      -68107.369 7    -26458.491 9
  22095727.922     -110616.659 6    -42977.977 7
  24458554.492      219762.435 3     85662.917 1
  21721621.953      172123.536 6     67200.832 7
  23902758.188       -7126.366 4        -0.19913
  22166280.672       77332.150 6        -0.34717
 94  1 27  0  3  0.0000000  0  7 19 27  2 29 18 16 31
  20764415.625       42633.483 7     22311.744 9
  20703581.914     -101854.386 7    -52754.838 9
  22085289.273     -165472.916 6    -85723.058 7
  24479488.078      329768.325 3    171381.693 2
  21738098.133      258726.389 6    134683.542 7
  23902231.648       -9929.088 5     -2184.120 1
  22173804.438      116880.560 6     30816.610 6
 94  1 27  0  3 30.0000000  0  7 19 27  2 29 18 16 31
  20767208.375       57303.693 7     33743.083 9
  20697201.961     -135374.114 7    -78874.082 9
  22074909.133     -220026.352 6   -128232.168 7
  24500432.578      439848.317 3    257158.245 1
  21754651.414      345707.134 6    202460.722 7
  23901796.344      -12211.550 5     -3962.656 2
  22181437.641      156994.455 6     62074.210 7
 94  1 27  0  4  0.0000000  0  7 19 27  2 29 18 16 31
  20770045.148       72228.950 7     45373.169 9
  20690869.320     -168658.744 7   -104810.130 9
  22064583.211     -274285.908 6   -170512.272 7
  24521402.711      550030.386 3    343014.299 2
  21771279.508      433067.351 6    270533.595 7
  23901456.070      -13964.778 5     -5328.801 3
  22189177.773      197666.236 6     93766.529 6
 94  1 27  0  4 30.0000000  0  7 19 27  2 29 18 16 31
  20772941.938       87431.617 7     57219.423 9
  20684578.984     -201717.372 7   -130570.073 9
  22054313.406     -328258.714 6   -212568.944 7
  24542393.945      660324.319 3    428957.559 1
  21787970.945      520792.022 6    338890.456 7
  23901229.023      -15184.892 5     -6279.507 2
  22197019.797      238875.937 6    125878.004 6
 94  1 27  0  5  0.0000000  0  7 19 27  2 29 18 16 31
  20775885.313      102904.221 7     69276.001 9
  20678331.172     -234553.393 7   -156156.548 9
  22044097.992     -381952.246 6   -254407.995 7
  24563397.250      770736.988 3    514993.324 2
  21804728.648      608872.729 6    407524.750 7
  23901101.156      -15866.241 5     -6810.422 3
  22204963.016      280622.576 6    158407.866 6
 94  1 27  0  5 30.0000000  0  8 19 27  2 29 18 16 31  7
  20778879.859      118643.296 7     81540.238 9
  20672126.352     -267163.150 7   -181566.724 9
  22033932.344     -435358.456 6   -296023.164 7
  24584437.531      881305.517 3    601150.537 2
  21821559.523      697309.145 6    476436.218 7
  23901076.203      -16003.216 5
  22213012.047      322933.863 6    191377.727 6
  24689830.461          -0.71313
 94  1 27  0  6  0.0000000  0  8 19 27  2 29 18 16 31  7
  20781923.859      134646.995 7     94010.666 9
  20665960.500     -299554.898 7   -206807.022 9
  22023823.469     -488487.184 6   -337422.119 7
  24605514.422      992023.538 3    687424.233 2
  21838452.141      786085.107 6    545612.263 7
  23901143.586      -15618.505 5
  22221174.602      365821.692 6    224796.832 6
  24669697.297     -105654.692 2
 94  1 27  0  6 30.0000000  0  7 19 27  2 18 16 31  7
  20785017.258      150899.074 7    106674.643 9
  20659832.852     -331747.405 7   -231892.067 9
  22013768.766     -541331.010 6   -378599.058 7
  21855412.344      875196.800 6    615049.918 7
  23901313.133      -14717.012 5     -5914.863 2
  22229448.883      409294.387 6    258671.674 6
  24649600.813     -211323.724 2        -0.13912
 94  1 27  0  7  0.0000000  0  7 19 27  2 18 16 31  7
  20788153.391      167382.023 7    119518.508 9
  20653748.008     -363735.049 7   -256817.470 9
  22003765.117     -593874.097 6   -419541.671 7
  21872439.680      964655.540 6    684758.008 7
  23901586.492      -13305.364 5     -4814.854 3
  22237833.469      453370.657 6    293016.840 6
  24629502.906     -317012.695 3    -82355.015 3
 94  1 27  0  7 30.0000000  0  7 19 27  2 18 16 31  7
  20791333.398      184098.278 7    132544.176 9
  20647698.539     -395520.619 7   -281585.414 9
  21993824.992     -646128.292 6   -460259.165 7
  21889527.109     1054457.095 6    754733.213 7
  23901947.867      -11406.243 5     -3335.012 3
  22246337.047      498042.671 6    327826.228 6
  24609369.922     -422733.720 3   -164734.863 2
 94  1 27  0  8  0.0000000  0  7 19 27  2 18 16 31  7
  20794560.680      201048.020 7    145751.786 9
  20641689.477     -427092.646 7   -306186.960 9
  21983939.227     -698083.828 6   -500743.936 7
  21906677.977     1144602.948 6    824976.699 7
  23902404.430       -9002.132 5     -1461.674 1
  22254946.938      543295.818 6    363088.430 6
  24589246.938     -528475.763 3   -247131.068 2
 94  1 27  0  8 30.0000000  0  7 19 27  2 18 16 31  7
  20797828.109      218210.439 7    159125.121 9
  20635723.289     -458453.425 7   -330623.893 9
  21974107.742     -749747.020 6   -541000.907 7
  21923895.766     1235084.583 6    895481.836 7
  23902957.398       -6079.154 5       816.003 2
  22263667.969      589114.388 6    398791.236 6
  24569126.172     -634246.110 3   -329549.379 3
 94  1 27  0  9  0.0000000  0  7 19 27  2 18 16 31  7
  20801135.555      235594.990 7    172671.535 9
  20629807.586     -489557.157 7   -354860.534 9
  21964330.695     -801119.431 6   -581031.305 7
  21941175.430     1325909.904 6    966254.786 7
  23903616.461       -2631.615 5      3502.418 3
  22272493.258      635503.446 6    434938.575 6
  24548997.195     -740038.523 3   -411984.859 2
 94  1 27  0  9 30.0000000  0  7 19 27  2 18 16 31  7
  20804487.977      253210.417 7    186397.861 9
  20623936.633     -520390.351 7   -378886.368 9
  21954606.047     -852212.580 6   -620844.086 7
  21958526.695     1417074.273 6   1037291.934 7
  23904373.398        1362.745 5      6614.923 2
  22281429.328      682455.079 6    471524.281 6
  24528860.414     -845828.402 4   -494418.348 2
 94  1 27  0 10  0.0000000  0  7 19 27  2 18 16 31  7
  20807878.063      271029.480 7    200282.861 9
  20618118.867     -550977.546 7   -402720.498 9
  21944935.789     -903035.498 6   -660446.306 7
  21975931.484     1508542.135 6   1108565.556 7
  23905243.633        5904.626 5     10154.058 3
  22290468.680      729951.116 6    508534.201 6
  24508725.648     -951621.636 4   -576854.480 4
 94  1 27  0 10 30.0000000  0  7 19 27  2 18 16 31  7
  20811309.805      289067.044 7    214338.123 9
  20612343.156     -581314.274 7   -426359.483 9
  21935317.617     -953588.444 6   -699838.147 7
  21993398.266     1600320.827 6   1180081.400 6
  23906205.625       10983.939 5     14111.970 2
  22299610.430      778001.992 6    545976.462 6
  24488607.047    -1057411.098 4   -659287.683 2
 94  1 27  0 11  0.0000000  0  7 19 27  2 18 16 31  7
  20814787.828      307340.760 7    228577.403 9
  20606619.164     -611386.769 7   -449792.554 9
  21925752.664    -1003861.014 6   -739011.515 7
  22010926.438     1692415.368 6   1251843.351 7
  23907269.672       16587.538 5     18478.446 4
  22308862.719      826613.367 6    583855.479 6
  24468474.820    -1163172.333 4   -741698.887 3
 94  1 27  0 11 30.0000000  0  7 19 27  2 18 16 31  7
  20818309.828      325852.376 7    243002.059 9
  20600942.461     -641227.421 7   -473044.968 9
  21916238.633    -1053848.905 6   -777963.064 7
  22028507.938     1784819.581 6   1323846.597 6
  23908439.477       22708.397 5     23247.964 4
  22318220.914      875781.435 6    622168.279 6
  24448351.492    -1268899.990 4   -824083.905 3
 94  1 27  0 12  0.0000000  0  7 19 27  2 18 16 31  7
  20821879.734      344601.982 7    257612.158 9
  20595303.734     -670844.688 7   -496123.330 9
  21906784.508    -1103546.812 6   -816688.649 7
  22046157.023     1877538.511 6   1396095.065 6
  23909698.508       29321.901 5     28401.343 2
  22327677.852      925494.331 6    660905.621 6
  24428243.133    -1374602.922 4   -906449.708 2
 94  1 27  0 12 30.0000000  0  7 19 27  2 18 16 31  7
  20825495.984      363603.896 7    272418.868 9
  20589713.648     -700224.666 7   -519016.778 9
  21897382.969    -1152951.005 6   -855185.351 7
  22063859.508     1970596.581 6   1468607.824 6
  23911045.750       36420.307 5     33932.578 3
  22337240.336      975749.855 6    700065.780 6
  24408136.102    -1480268.625 4   -988786.492 2
 94  1 27  0 13  0.0000000  0  7 19 27  2 18 16 31  7
  20829155.563      382838.787 7    287407.104 9
  20584166.188     -729380.838 7   -541735.842 9
  21888036.109    -1202062.096 6   -893453.674 7
  22081634.359     2063986.388 6   1541379.068 7
  23912492.469       43997.956 5     39837.258 4
  22346905.859     1026536.871 6    739640.105 6
  24388027.953    -1585902.868 3  -1071098.758 2
 94  1 27  0 13 30.0000000  0  7 19 27  2 18 16 31  7
  20832859.781      402306.694 7    302576.928 9
  20578660.797     -758318.227 7   -564284.411 9
  21878746.109    -1250878.295 6   -931492.206 7
  22099468.258     2157716.177 6   1614415.227 6
  23914031.125       52076.542 5     46132.269 4
  22356667.734     1077849.565 6    779624.050 6
  24367935.242    -1691509.638 3  -1153389.660 2
 94  1 27  0 14  0.0000000  0  7 19 27  2 18 16 31  7
  20836610.695      422019.740 7    317937.758 9
  20573198.461     -787019.798 7   -586649.242 9
  21869513.648    -1299396.705 6   -969298.690 7
  22117370.930     2251788.956 6   1687718.659 6
  23915663.484       60679.217 5     52835.641 2
  22366535.828     1129691.771 6    820020.591 6
  24347850.320    -1797084.324 3  -1235655.563 2
 94  1 27  0 14 30.0000000  0  7 19 27  2 18 16 31  7
  20840413.328      441994.143 7    333502.250 9
  20567784.281     -815470.083 7   -608818.261 9
  21860337.117    -1347603.601 6  -1006862.446 7
  22135338.063     2346211.633 6   1761294.744 7
  23917403.047       69822.136 5     59960.015 4
  22376502.539     1182092.224 6    860852.135 6
  24327766.867    -1902622.333 3  -1317892.884 2
 94  1 27  0 15  0.0000000  0  7 19 27  2 18 16 31  7
  20844266.836      462250.351 7    349286.313 9
  20562422.219     -843663.360 7   -630787.009 9
  21851224.266    -1395496.987 6  -1044181.902 7
  22153367.594     2440985.577 6   1835144.535 6
  23919248.789       79517.478 5     67514.820 3
  22386587.375     1235062.495 6    902127.696 6
  24307687.094    -2008123.098 3  -1400101.162 2
 94  1 27  0 15 30.0000000  0  7 19 27  2 18 16 31  7
  20848174.633      482789.598 7    365290.947 9
  20557099.070     -871622.541 7   -652573.355 9
  21842164.992    -1443111.178 6  -1081283.806 7
  22171468.883     2536078.811 6   1909243.131 6
  23921197.391       89736.508 5     75477.716 4
  22396772.297     1288581.138 6    943830.551 6
  24287606.641    -2113610.317 3  -1482298.958 2
 94  1 27  0 16  0.0000000  0  7 19 27  2 18 16 31  7
  20852137.828      503616.919 7    381520.054 9
  20551823.484     -899349.588 7   -674178.803 9
  21833156.234    -1490458.762 6  -1118177.958 7
  22189616.719     2631463.712 6   1983568.997 6
  23923228.242      100442.636 5     83820.154 3
  22407056.797     1342640.189 6    985954.513 6
  24267532.859    -2219099.557 3  -1564498.300 4
 94  1 27  0 16 30.0000000  0  7 19 27  2 18 16 31  7
  20856156.688      524738.272 7    397978.270 9
  20546595.141     -926823.014 7   -695586.633 9
  21824194.031    -1537528.409 6  -1154855.544 7
  22207823.008     2727151.458 6   2058130.843 6
  23925361.508      111628.340 5     92536.277 2
  22417450.078     1397252.718 6   1028509.750 6
  24247468.523    -2324573.812 4  -1646685.996 2
 94  1 27  0 17  0.0000000  0  7 19 27  2 18 16 31  7
  20860228.609      546139.936 7    414654.924 9
  20541418.313     -954041.531 7   -716795.827 9
  21815287.367    -1584331.179 6  -1191325.177 7
  22226091.242     2823128.683 6   2132918.257 6
  23927581.328      123296.067 5    101628.030 2
  22427945.773     1452411.277 6   1071490.467 6
  24227399.203    -2430011.998 4  -1728845.563 3
 94  1 27  0 17 30.0000000  0  7 19 27  2 18 16 31  7
  20864350.344      567786.217 7    431522.173 9
  20536284.086     -981016.911 7   -737815.573 9
  21806434.438    -1630879.166 6  -1227596.279 7
  22244401.688     2919367.769 6   2207909.726 6
  23929889.773      135430.281 5    111083.254 3
  22438544.156     1508094.129 6   1114879.726 6
  24207341.813    -2535419.045 4  -1810980.863 3
 94  1 27  0 18  0.0000000  0  7 19 27  2 18 16 31  7
  20868510.625      589657.456 7    448564.716 9
  20531196.531    -1007744.156 7   -758641.968 9
  21797624.086    -1677163.127 6  -1263661.652 7
  22262768.250     3015877.329 6   2283111.956 6
  23932287.508      148044.177 5    120912.276 4
  22449238.648     1564298.489 6   1158675.355 6
  24187287.586    -2640787.234 5  -1893085.907 4
 94  1 27  0 18 30.0000000  0  7 19 27  2 18 16 31  7
  20872712.383      611726.184 7    465761.145 9
  20526155.484    -1034238.659 7   -779286.998 9
  21788862.438    -1723188.365 6  -1299525.416 7
  22281186.070     3112666.597 6   2358532.136 6
  23934784.484      161148.047 5    131123.097 3
  22460033.156     1621020.679 6   1202874.483 6
  24167249.859    -2746109.931 5  -1975155.488 4
 94  1 27  0 19  0.0000000  0  7 19 27  2 18 16 31  7
  20876949.063      634002.309 7    483119.187 9
  20521155.500    -1060508.560 7   -799757.021 9
  21780159.125    -1768945.726 6  -1335180.451 7
  22299659.250     3209739.522 6   2434173.343 6
  23937369.516      174750.273 5    141722.237 3
  22470922.359     1678252.372 6   1247470.621 6
  24147226.156    -2851382.503 5  -2057185.994 5
 94  1 27  0 19 30.0000000  0  7 19 27  2 18 16 31  7
  20881234.172      656521.306 7    500666.477 9
  20516205.078    -1086529.051 7   -820032.703 9
  21771508.563    -1814402.600 6  -1370601.344 7
  22318196.961     3307137.775 6   2510068.068 6
  23940052.078      188875.254 5    152728.742 4
  22481916.688     1736012.552 6   1292478.567 6
  24127198.203    -2956593.843 5  -2139168.775 4
 94  1 27  0 20  0.0000000  0  7 19 27  2 18 16 31  7
  20885562.039      679266.410 7    518389.955 9
  20511297.359    -1112307.631 7   -840119.874 9
  21762913.219    -1859570.403 6  -1405796.984 7
  22336791.242     3404851.436 6   2586208.554 6
  23942845.234      203502.825 5    164126.864 2
  22493003.367     1794291.870 6   1337891.040 6
  24107175.414    -3061770.797 4  -2221124.747 4
 94  1 27  0 20 30.0000000  0  7 19 27  2 18 16 31  7
  20889936.805      702254.752 7    536302.975 9
  20506440.523    -1137834.168 7   -860010.651 9
  21754377.648    -1904441.456 6  -1440761.391 7
  22355445.570     3502876.221 6   2662591.471 6
  23945721.813      218628.397 5    175912.998 4
  22504194.945     1853095.698 6   1383712.219 6
  24087172.742    -3166899.014 4  -2303042.732 4
 94  1 27  0 21  0.0000000  0  7 19 27  2 18 16 31  7
  20894359.133      725488.880 7    554407.506 9
  20501634.078    -1163109.161 7   -879705.423 9
  21745893.211    -1949022.389 6  -1475499.730 7
  22374151.070     3601189.427 6   2739199.128 6
  23948692.734      234232.043 5    188071.683 4
  22515484.117     1912414.704 6   1429934.827 6
  24067179.797    -3271991.435 4  -2384932.794 4
 94  1 27  0 21 30.0000000  0  7 19 27  2 18 16 31  7
  20898829.961      748979.301 7    572711.753 9
  20496873.164    -1188107.377 7   -899184.525 9
  21737470.805    -1993289.460 6  -1509993.509 7
  22392915.750     3699789.362 6   2816030.210 6
  23951754.867      250332.247 5    200617.285 5
  22526873.945     1972270.151 6   1476575.444 6
  24047194.227    -3377036.373 5  -2466785.843 4
 94  1 27  0 22  0.0000000  0  7 19 27  2 18 16 31  7
  20903350.930      772732.877 7    591221.055 9
  20492173.281    -1212815.076 7   -918437.259 9
  21729107.219    -2037230.282 6  -1544233.060 7
  22411730.094     3798663.062 6   2893074.629 6
  23954911.531      266930.980 5    213551.358 2
  22538363.609     2032658.138 6   1523631.033 6
  24027220.258    -3482013.290 5  -2548585.856 5
 94  1 27  0 22 30.0000000  0  7 19 27  2 18 16 31  7
  20907922.273      796760.982 7    609944.271 9
  20487525.469    -1237234.713 7   -937465.519 9
  21720808.109    -2080847.199 6  -1578220.221 7
  22430596.461     3897814.527 6   2970335.476 6
  23958166.180      284027.952 5    226873.673 3
  22549955.867     2093568.214 6   1571093.432 6
  24007250.703    -3586917.124 5  -2630328.890 5
 94  1 27  0 23  0.0000000  0  7 19 27  2 18 16 31  7
  20912545.117      821056.781 7    628876.087 9
  20482936.297    -1261359.761 7   -956264.224 9
  21712566.461    -2124145.610 6  -1611959.191 7
  22449517.445     3997247.400 6   3047815.603 6
  23961516.078      301627.508 5    240587.614 3
  22561646.227     2154993.292 6   1618957.135 6
  23987293.672    -3691750.439 4  -2712017.006 3
 94  1 27  0 23 30.0000000  0  7 19 27  2 18 16 31  7
  20917219.063      845619.960 7    648016.241 9
  20478402.055    -1285187.218 7   -974831.039 9
  21704389.523    -2167131.388 6  -1645454.546 7
  22468498.578     4096969.376 6   3125520.997 6
  23964959.484      319728.098 5    254691.988 3
  22573429.445     2216921.467 6   1667212.863 6
  23967365.555    -3796508.601 4  -2793646.533 5
 94  1 27  0 24  0.0000000  0  7 19 27  2 18 16 31  7
  20921939.727      870422.324 7    667342.786 9
  20473916.289    -1308750.972 7   -993192.374 9
  21696256.969    -2209858.919 6  -1678748.666 7
  22487531.148     4196971.642 6   3203444.799 6
  23968491.148      338296.535 5    269160.896 3
  22585303.555     2279325.543 6   1715839.429 6
  23947443.875    -3901202.847 5  -2875226.259 4
 94  1 27  0 24 30.0000000  0  7 19 27  2 18 16 31  7
  20926709.023      895477.702 7    686866.471 9
  20469482.320    -1332059.029 7  -1011354.462 9
  21688174.195    -2252333.318 6  -1711845.555 7
  22506604.148     4297262.690 6   3281593.634 6
  23972118.375      357342.139 5    284001.648 3
  22597275.461     2342228.004 6   1764854.345 6
  23927536.172    -4005815.033 5  -2956742.050 4
 94  1 27  0 25  0.0000000  0  7 19 27  2 18 16 31  7
  20931524.984      920795.484 7    706594.632 9
  20465093.961    -1355115.305 7  -1029320.357 9
  21680143.039    -2294543.250 6  -1744736.362 7
  22525746.281     4397821.650 6   3359951.234 6
  23975832.586      376872.288 5    299219.924 1
  22609340.547     2405639.543 6   1814265.941 6
  23907650.766    -4110324.463 5  -3038177.764 4
 94  1 27  0 25 30.0000000  0  7 19 27  2 18 16 31  7
  20936389.914      946362.430 7    726516.946 9
  20460752.188    -1377944.021 7  -1047108.936 9
  21672154.953    -2336507.745 6  -1777435.918 8
  22544928.516     4498612.221 6   3438489.303 6
  23979638.758      396869.810 5    314802.434 2
  22621501.352     2469543.085 6   1864060.918 6
  23887779.141    -4214749.564 5  -3119547.770 3
 94  1 27  0 26  0.0000000  0  7 19 27  2 18 16 31  7
  20941303.695      972195.827 7    746646.892 9
  20456450.609    -1400538.880 7  -1064715.281 9
  21664223.484    -2378210.329 6  -1809931.382 7
  22564149.141     4599623.291 6   3517199.203 6
  23983537.672      417351.666 5    330762.317 3
  22633760.844     2533961.879 6   1914257.391 6
  23867921.578    -4319076.322 5  -3200841.147 4
 94  1 27  0 26 30.0000000  0  7 19 27  2 18 16 31  7
  20946274.375      998297.022 7    766985.505 9
  20452197.156    -1422890.365 7  -1082131.992 9
  21656336.906    -2419631.304 6  -1842207.411 7
  22583408.094     4700834.212 6   3596064.834 6
  23987523.070      438305.453 5    347089.951 1
  22646116.898     2598899.059 6   1964857.798 6
  23848080.578    -4423329.457 5  -3282077.189 4
 94  1 27  0 27  0.0000000  0  7 19 27  2 18 16 31  7
  20951291.609     1024666.713 7    787533.331 9
  20447996.898    -1444962.905 7  -1099331.335 9
  21648510.945    -2460753.191 6  -1874250.394 7
  22602715.063     4802275.286 6   3675109.801 6
  23991599.531      459741.019 5    363792.982 3
  22658570.727     2664355.382 6   2015862.735 6
  23828261.688    -4527499.709 5  -3363248.654 5
 94  1 27  0 27 30.0000000  0  7 19 27  2 18 16 31  7
  20956359.313     1051302.892 7    808288.818 9
  20443850.609    -1466745.982 7  -1116305.126 9
  21640744.297    -2501583.967 6  -1906066.523 7
  22622055.648     4903975.109 6   3754356.388 6
  23995776.203      481660.559 5    380873.149 4
  22671126.453     2730330.938 6   2067272.269 6
  23808457.539    -4631582.902 5  -3444352.245 5
 94  1 27  0 28  0.0000000  0  7 19 27  2 18 16 31  7
  20961477.961     1078199.706 7    829247.400 9
  20439759.125    -1488253.390 7  -1133064.121 9
  21633025.094    -2542124.991 6  -1937656.885 8
  22641473.422     5005955.713 6   3833821.774 6
  24000033.602      504051.555 5    398320.692 4
  22683779.352     2796828.017 6   2119088.175 6
  23788668.078    -4735584.484 5  -3525392.258 5
 94  1 27  0 28 30.0000000  0  7 19 27  2 18 16 31  7
  20966645.328     1105353.173 7    850405.968 9
  20435719.180    -1509491.895 7  -1149613.565 9
  21625368.344    -2582375.780 6  -1969021.092 8
  22660935.539     5108238.980 6   3913523.019 6
  24004381.297      526908.104 5    416131.007 3
  22696529.898     2863817.684 6   2171287.931 6
  23768888.563    -4839500.272 5  -3606365.393 5
 94  1 27  0 29  0.0000000  0  7 19 27  2 18 16 31  7
  20971863.148     1132770.497 7    871770.141 9
  20431724.531    -1530464.918 7  -1165956.150 9
  21617766.055    -2622337.050 6  -2000159.693 7
  22680458.000     5210836.112 6   3993468.819 6
  24008827.266      550244.630 5    434315.305 4
  22709364.719     2931276.455 6   2223853.205 6
  23749136.328    -4943297.517 5  -3687246.204 5
 94  1 27  0 29 30.0000000  0  7 19 27  2 18 16 31  7
  20977130.625     1160456.306 7    893343.516 9
  20427781.383    -1551195.528 7  -1182109.848 9
  21610210.078    -2662018.782 6  -2031080.472 8
  22700036.414     5313716.866 6   4073635.619 6
  24013352.375      574042.170 5    452858.847 3
  22722288.039     2999190.287 6   2276773.091 6
  23729403.797    -5047005.693 5  -3768057.624 5
 94  1 27  0 30  0.0000000  0  7 19 27  2 18 16 31  7
  20982450.742     1188409.611 7    915125.342 9
  20423887.438    -1571669.703 7  -1198063.716 9
  21602715.125    -2701413.728 6  -2061777.787 8
  22719667.641     5416873.816 6   4154017.652 6
  24017968.375      598283.678 5    471748.338 4
  22735300.328     3067557.410 6   2330046.181 6
  23709687.734    -5150629.241 5  -3848803.081 4
 94  1 27  0 30 30.0000000  0  7 19 27  2 18 16 31  7
  20987821.531     1216630.732 7    937115.842 9
  20420040.867    -1591863.440 7  -1213799.076 9
  21595274.164    -2740528.164 7  -2092256.526 8
  22739346.734     5520278.707 6   4234592.883 5
  24022661.695      622961.785 5    490978.025 2
  22748390.656     3136363.880 6   2383661.631 6
  23689989.461    -5254155.769 5  -3929472.928 5
 94  1 27  0 31  0.0000000  0  7 19 27  2 18 16 31  7
  20993239.906     1245123.928 7    959318.352 9
  20416257.211    -1611754.328 7  -1229298.439 9
  21587881.883    -2779365.308 6  -2122519.191 8
  22759068.016     5623920.521 6   4315352.720 6
  24027442.516      648086.428 5    510555.647 4
  22761576.063     3205642.802 6   2437645.207 6
  23670309.820    -5357576.059 5  -4010060.003 5
 94  1 27  0 31 30.0000000  0  7 19 27  2 18 16 31  7
  20998717.234     1273888.523 7    981732.341 9
  20412528.953    -1631342.264 7  -1244561.729 9
  21580539.047    -2817934.242 6  -2152572.867 8
  22778823.656     5727782.301 6   4396283.933 6
  24032308.078      673651.915 5    530476.816 2
  22774850.508     3275409.140 6   2492008.601 6
  23650646.117    -5460898.546 5  -4090570.863 5
 94  1 27  0 32  0.0000000  0  7 19 27  2 18 16 31  7
  21004239.078     1302916.885 7   1004351.863 9
  20408860.383    -1650619.672 7  -1259583.056 9
  21573259.680    -2856227.988 7  -2182412.102 8
  22798633.609     5831863.704 6   4477386.323 6
  24037262.063      699679.073 5    550757.702 4
  22788224.258     3345677.046 6   2546762.828 6
  23631009.633    -5564082.889 5  -4170974.100 5
 94  1 27  0 32 30.0000000  0  7 19 27  2 18 16 31  7
  21009812.641     1332204.273 7   1027173.215 9
  20405246.867    -1669618.106 7  -1274387.010 9
  21566018.289    -2894255.083 6  -2212043.570 8
  22818478.297     5936136.199 6   4558637.595 5
  24042305.688      726179.817 5    571407.611 2
  22801688.492     3416436.481 6   2601900.060 6
  23611400.672    -5667130.166 5  -4251270.538 5
 94  1 27  0 33  0.0000000  0  7 19 27  2 18 16 31  7
  21015437.133     1361759.202 7   1050203.045 8
  20401685.352    -1688337.485 7  -1288973.503 9
  21558834.313    -2932002.403 6  -2241457.031 7
  22838358.156     6040613.947 6   4640048.811 5
  24047438.922      753160.404 5    592431.439 4
  22815248.680     3487695.560 6   2657426.624 6
  23591815.977    -5770034.381 5  -4331455.490 5
 94  1 27  0 33 30.0000000  0  7 19 27  2 18 16 31  7
  21021110.219     1391572.852 7   1073434.483 9
  20398171.258    -1706795.630 7  -1303356.444 9
  21551708.195    -2969472.986 6  -2270654.851 8
  22858284.953     6145296.972 6   4721619.971 5
  24052661.063      780595.467 5    613809.400 4
  22828898.453     3559427.952 6   2713322.009 6
  23572256.867    -5872806.857 5  -4411537.808 5
 94  1 27  0 34  0.0000000  0  7 19 27  2 18 16 31  7
  21026830.742     1421630.502 7   1096856.037 9
  20394706.148    -1725007.200 7  -1317547.246 9
  21544625.430    -3006677.220 7  -2299645.120 8
  22878237.430     6250175.429 6   4803343.435 5
  24057962.336      808463.235 5    635524.548 3
  22842636.828     3631612.314 6   2769569.577 6
  23552723.711    -5975467.447 5  -4491532.946 5
 94  1 27  0 34 30.0000000  0  7 19 27  2 18 16 31  7
  21032605.945     1451972.748 7   1120499.352 9
  20391295.414    -1742934.913 7  -1331516.864 9
  21537601.813    -3043589.420 7  -2328407.841 8
  22898240.602     6355279.127 6   4885242.391 5
  24063350.047      836776.530 5    657586.857 2
  22856457.805     3704259.785 6   2826178.001 6
  23533212.828    -6078007.063 5  -4571433.822 5
 94  1 27  0 35  0.0000000  0  7 19 27  2 18 16 31  7
  21038437.055     1482613.647 7   1144375.393 9
  20387942.484    -1760546.860 7  -1345240.424 9
  21530638.203    -3080199.240 7  -2356934.927 8
  22918285.734     6460637.107 6   4967339.483 5
  24068825.469      865545.868 5    680004.534 4
  22870374.102     3777370.182 6   2883147.153 6
  23513724.055    -6180413.740 5  -4651231.104 5
 94  1 27  0 35 30.0000000  0  7 19 27  2 18 16 31  7
  21044320.367     1513533.366 7   1168468.687 9
  20384647.508    -1777868.089 7  -1358737.461 9
  21523720.758    -3116525.715 6  -2385241.236 8
  22938378.172     6566223.294 6   5049614.394 6
  24074387.945      894766.111 5    702773.528 4
  22884365.977     3850914.461 6   2940454.404 6
  23494250.125    -6282715.674 5  -4730946.775 5
 94  1 27  0 36  0.0000000  0  7 19 27  2 18 16 31  7
  21050257.641     1544734.585 7   1192781.341 8
  20381408.836    -1794889.992 7  -1372001.254 9
  21516865.898    -3152564.236 7  -2413323.151 8
  22958518.516     6672025.858 6   5132057.923 5
  24080029.539      924442.870 5    725898.265 3
  22898443.961     3924894.903 6   2998101.498 6
  23474807.266    -6384904.728 5  -4810574.488 5
 94  1 27  0 36 30.0000000  0  7 19 27  2 18 16 31  7
  21056246.617     1576218.753 7   1217314.468 9
  20378229.305    -1811593.877 7  -1385017.246 9
  21510068.297    -3188297.453 7  -2441167.164 8
  22978693.164     6778062.626 6   5214683.936 5
  24085764.656      954582.273 5    749383.514 3
  22912607.031     3999323.754 6   3056097.999 6
  23455385.375    -6486953.541 5  -4890092.924 5
 94  1 27  0 37  0.0000000  0  7 19 27  2 18 16 31  7
  21062288.141     1607960.076 7   1242047.985 8
  20375106.359    -1827995.975 7  -1397798.080 9
  21503320.469    -3223735.586 7  -2468781.248 8
  22998909.578     6884318.888 6   5297480.992 5
  24091590.250      985173.573 5    773220.881 5
  22926852.055     4074186.784 6   3114432.834 6
  23435994.727    -6588865.412 5  -4969504.641 5
 94  1 27  0 37 30.0000000  0  7 19 27  2 18 16 31  7
  21068371.875     1639929.218 7   1266959.017 8
  20372038.156    -1844125.109 7  -1410366.203 9
  21496630.406    -3258901.858 7  -2496183.492 8
  23019169.742     6990764.550 6   5380425.628 5
  24097493.117     1016178.060 5    797380.222 4
  22941183.008     4149475.751 6   3173099.566 6
  23416624.055    -6690649.879 5  -5048817.068 5
 94  1 27  0 38  0.0000000  0  7 19 27  2 18 16 31  7
  21074498.773     1672125.158 7   1292046.772 8
  20369021.945    -1859964.300 7  -1422708.408 9
  21489990.969    -3293799.131 7  -2523376.114 8
  23039461.047     7097412.694 6   5463528.042 5
  24103466.039     1047587.909 4    821855.409 3
  22955592.273     4225203.694 6   3232108.353 6
  23397287.711    -6792276.381 5  -5128006.442 5
 94  1 27  0 38 30.0000000  0  7 19 27  2 18 16 31  7
  21080669.586     1704557.015 7   1317318.357 8
  20366069.172    -1875501.720 7  -1434815.463 9
  21483396.305    -3328436.401 7  -2550366.136 8
  23059800.742     7204273.516 6   5546796.198 5
  24109519.930     1079423.763 5    846662.582 3
  22970084.656     4301363.654 6   3291453.769 6
  23377989.961    -6893726.969 5  -5207058.737 5
 94  1 27  0 39  0.0000000  0  7 19 27  2 18 16 31  7
  21086889.578     1737253.469 7   1342796.123 8
  20363168.758    -1890731.584 7  -1446682.865 9
  21476855.781    -3362817.720 7  -2577156.710 8
  23080174.383     7311345.560 6   5630228.937 5
  24115664.984     1111696.451 5    871810.141 3
  22984660.023     4377964.174 6   3351142.484 6
  23358714.188    -6994991.594 5  -5285966.123 5
 94  1 27  0 39 30.0000000  0  7 19 27  2 18 16 31  7
  21093161.836     1770212.318 7   1368478.361 8
  20360327.367    -1905678.520 7  -1458329.801 9
  21470354.938    -3396967.240 7  -2603766.662 8
  23100582.781     7418614.166 5   5713814.838 5
  24121887.445     1144381.921 5    897279.316 2
  22999320.914     4455001.922 6   3411171.900 6
  23339476.234    -7096087.408 5  -5364741.931 5
 94  1 27  0 40  0.0000000  0  7 19 27  2 18 16 31  7
  21099490.281     1803458.911 7
  20357538.609    -1920326.316 7  -1469743.647 9
  21463905.656    -3430876.379 7  -2630189.304 8
  23121030.539     7526082.382 5   5797556.271 5
  24128191.680     1177501.614 5
  23014064.664     4532485.045 6   3471548.346 6
  23320273.063    -7197009.399 5  -5443382.310 5
 94  1 27  0 40 30.0000000  0  7 19 27  2 18 16 31  7
  21105870.547     1837003.138 7
  20354805.422    -1934691.846 7  -1480937.534 9
  21457494.836    -3464547.122 7  -2656426.186 8
  23141525.398     7633731.146 6   5881438.411 5
  24134568.188     1211049.197 5
  23028894.625     4610410.501 6   3532269.477 6
  23301094.305    -7297790.055 5  -5521912.576 5
 94  1 27  0 41  0.0000000  0  7 19 27  2 18 16 31  7
  21112315.328     1870856.076 7   1446902.110 8
  20352122.328    -1948771.510 7  -1491908.676 9
  21451142.547    -3497945.820 7  -2682451.088 8
  23162037.797     7741573.784 5   5965471.600 5
  24141038.352     1245029.557 5
  23043811.836     4688800.284 6   3593352.417 6
  23281938.352    -7398424.943 5  -5600329.242 5
 94  1 27  0 41 30.0000000  0  7 19 27  2 18 16 31  7
  21118811.500     1904994.077 7   1473503.160 8
  20349502.047    -1962569.438 7  -1502660.279 9
  21444834.031    -3531075.741 7  -2708266.545 8
  23182597.281     7849595.301 5   6049644.186 5
  24147589.836     1279437.435 5
  23058813.656     4767637.192 6   3654783.769 6
  23262819.484    -7498933.480 5  -5678647.448 5
 94  1 27  0 42  0.0000000  0  7 19 27  2 18 16 31  7
  21125362.000     1939421.613 7   1500329.824 8
  20346930.703    -1976050.518 7  -1513164.997 9
  21438589.492    -3563914.602 7  -2733855.227 8
  23203189.914     7957798.963 5   6133958.711 5
  24154219.422     1314281.517 5        -0.42512
  23073901.125     4846914.772 6   3716558.508 6
  23243718.367    -7599311.867 5  -5756864.232 5
 94  1 27  0 42 30.0000000  0  7 19 27  2 18 16 31  7
  21131967.969     1974126.076 7   1527372.278 8
  20344428.961    -1989223.285 7  -1523429.459 9
  21432394.781    -3596460.198 7  -2759215.380 8
  23223812.023     8066189.857 5   6218419.138 5
  24160924.500     1349545.948 4     27478.325 4
  23089067.242     4926610.491 6   3778659.060 6
  23224640.000    -7699559.901 5  -5834979.431 5
 94  1 27  0 43  0.0000000  0  7 19 27  2 18 16 31  7
  21138622.281     2009098.356 7   1554623.417 8
  20341982.375    -2002076.931 7  -1533445.259 9
  21426255.859    -3628713.518 7  -2784347.788 8
  23244478.539     8174770.769 5   6303027.626 5
  24167720.484     1385215.743 5     55272.964 3
  23104307.898     5006715.562 6   3841078.585 6
  23205584.148    -7799659.439 5  -5912978.932 6
 94  1 27  0 43 30.0000000  0  7 19 27  2 18 16 31  7
  21145327.516     2044332.666 7   1582078.744 8
  20339594.945    -2014611.359 7  -1543212.318 9
  21420171.406    -3660698.053 7  -2809270.755 8
  23265169.383     8283521.974 5   6387768.796 5
  24174576.563     1421270.816 5     83367.813 3
  23119627.172     5087209.370 6   3903801.030 6
  23186573.969    -7899620.317 5  -5990870.375 5
 94  1 27  0 44  0.0000000  0  7 19 27  2 18 16 31  7
  21152088.242     2079861.085 7   1609763.240 8
  20337277.164    -2026805.622 7  -1552714.315 9
  21414136.891    -3692394.703 7  -2833969.406 8
  23285905.664     8392465.933 5   6472660.187 5
  24181520.586     1457737.660 5    111783.536 3
  23135022.609     5168116.007 6   3966845.162 6
  23167585.961    -7999391.719 5  -6068614.150 6
 94  1 27  0 44 30.0000000  0  7 19 27  2 18 16 31  7
  21158904.375     2115675.157 7   1637670.324 8
  20335017.000    -2038682.275 7  -1561968.818 9
  21408158.789    -3723821.759 7  -2858457.983 8
  23306666.891     8501590.492 5   6557692.296 5
  24188541.281     1494616.962 5    140520.634 3
  23150497.023     5249427.382 6   4030204.666 6
  23148632.859    -8098950.074 5  -6146191.961 5
 94  1 27  0 45  0.0000000  0  7 19 27  2 18 16 31  7
  21165772.437     2151771.400 7   1665797.279 8
  20332817.414    -2050228.658 7  -1570965.968 9
  21402231.430    -3754985.779 7  -2882741.597 8
  23327465.430     8610876.340 5   6642850.096 5
  24195630.203     1531907.210 5    169577.968 3
  23166049.320     5331154.641 6   4093888.245 5
  23129726.188    -8198284.540 5  -6223595.291 6
 94  1 27  0 45 30.0000000  0  7 19 27  2 18 16 31  7
  21172692.383     2188131.651 7   1694129.954 8
  20330681.875    -2061455.038 7  -1579713.773 9
  21396346.805    -3785896.777 7  -2906828.061 8
  23348289.563     8720301.563 5   6728116.478 4
  24202801.398     1569609.202 5    198956.133 3
  23181680.734     5413288.157 6   4157888.383 6
  23110872.453    -8297399.553 5  -6300827.645 6
 94  1 27  0 46  0.0000000  0  7 19 27  2 18 16 31  7
  21179657.031     2224741.865 7   1722657.409 8
  20328605.813    -2072372.977 7  -1588221.232 9
  21390511.430    -3816550.244 7  -2930713.846 8
  23369140.469     8829871.872 5   6813495.929 5
  24210052.328     1607715.885 4    228649.637 3
  23197383.969     5495819.050 6   4222198.157 5
  23092054.125    -8396289.566 5  -6377884.630 6
 94  1 27  0 46 30.0000000  0  7 19 27  2 18 16 31  7
  21186670.773     2261596.112 7   1751375.019 8
  20326588.281    -2082981.097 7  -1596487.271 9
  21384726.594    -3846938.292 7  -2954392.819 8
  23390022.000     8939593.070 5   6898992.950 4
  24217374.164     1646210.953 4    258645.797 3
  23213161.633     5578745.155 6   4286815.887 6
  23073277.180    -8494971.216 6  -6454779.290 6
 94  1 27  0 47  0.0000000  0  7 19 27  2 18 16 31  7
  21193729.055     2298696.674 7   1780284.556 8
  20324624.813    -2093282.933 7  -1604514.640 9
  21378996.383    -3877053.873 7  -2977859.470 8
  23410926.961     9049468.169 5   6984609.895 5
  24224779.766     1685091.356 5    288942.208 2
  23229019.375     5662069.072 6   4351743.610 6
  23054529.867    -8593477.666 6  -6531537.425 6
 94  1 27  0 47 30.0000000  0  7 19 27  2 18 16 31  7
  21200842.859     2336066.221 7   1809403.703 8
  20322721.203    -2103283.380 7  -1612307.174 9
  21373321.328    -3906889.427 7  -3001107.928 8
  23431868.922     9159522.288 5   7070366.321 4
  24232255.305     1724372.377 4    319550.788 1
  23244950.383     5745784.526 6   4416976.415 6
  23035816.625    -8691810.376 6  -6608160.174 6
 94  1 27  0 48  0.0000000  0  7 19 27  2 18 16 31  7
  21208012.594     2373746.193 7   1838764.732 8
  20320877.047    -2112963.095 7  -1619849.788 9
  21367701.219    -3936433.478 7  -3024129.236 8
  23452845.734     9269776.423 5   7156278.631 5
  24239805.555     1764067.468 4    350482.026 3
  23260957.984     5829903.712 6   4482523.821 6
  23017132.055    -8789954.873 5  -6684636.253 6
 94  1 27  0 48 30.0000000  0  8 19 27  2 26 18 16 31  7
  21215240.180     2411727.955 7   1868360.927 8
  20319097.078    -2122322.063 7  -1627142.463 9
  21362127.203    -3965714.976 7  -3046945.950 8
  24857419.586          -0.71914
  23473858.258     9380194.036 5   7242318.312 5
  24247442.852     1804160.380 5    381723.236 3
  23277041.508     5914423.377 6   4548383.280 5
  22998494.414    -8887939.296 6  -6760987.619 6
 94  1 27  0 49  0.0000000  0  8 19 27  2 26 18 16 31  7
  21222528.016     2450021.806 7   1898200.307 8
  20317380.789    -2131345.688 7  -1634173.838 9
  21356603.313    -3994741.342 7  -3069563.870 8
  24839855.875      -92270.127 3        -0.26311
  23494903.500     9490766.643 5   7328478.767 3
  24255143.742     1844652.080 5    413275.181 3
  23293199.617     5999347.811 6   4614558.157 6
  22979879.016    -8985744.039 6  -6837198.977 6
 94  1 27  0 49 30.0000000  0  8 19 27  2 26 18 16 31  7
  21229869.773     2488621.277 7   1928277.831 8
  20315728.000    -2140024.138 7  -1640936.253 9
  21351128.547    -4023518.484 7  -3091987.579 8
  24822341.484     -184337.498 3    -71740.902 1
  23515969.555     9601486.107 5   7414753.654 4
  24262920.961     1885525.044 5    445124.229 2
  23309434.211     6084661.556 5   4681036.400 6
  22961317.508    -9083346.767 6  -6913252.910 6
 94  1 27  0 50  0.0000000  0  8 19 27  2 26 18 16 31  7
  21237272.234     2527499.997 7   1958572.950 8
  20314144.539    -2148358.154 7  -1647430.259 9
  21345698.133    -4052049.322 7  -3114219.362 8
  24804857.008     -276211.257 4   -143330.720 2
  23537063.297     9712330.051 5   7501125.546 4
  24270766.203     1926747.264 5    477245.449 2
  23325746.047     6170366.732 6   4747819.645 5
  22942770.984    -9180753.098 6  -6989153.813 6
 94  1 27  0 50 30.0000000  0  8 19 27  2 26 18 16 31  7
  21244719.086     2566642.908 7   1989073.932 8
  20312625.883    -2156350.830 7  -1653658.296 9
  21340316.469    -4080321.821 7  -3136249.844 8
  24787410.117     -367887.400 4   -214766.562 1
  23558185.352     9823313.187 5   7587605.879 5
  24278675.086     1968313.074 5    509634.352 2
  23342127.102     6256467.980 5   4814911.520 5
  22924272.414    -9277953.130 6  -7064893.947 6
 94  1 27  0 51  0.0000000  0  8 19 27  2 26 18 16 31  7
  21252216.492     2606044.807 7   2019776.718 8
  20311164.688    -2164025.505 7  -1659638.532 9
  21334984.500    -4108334.399 7  -3158077.784 8
  24769998.398     -459388.451 3   -286065.956 1
  23579331.000     9934448.747 5   7674204.975 4
  24286650.289     2010210.762 5    542281.879 3
  23358580.844     6342933.433 5   4882287.189 6
  22905818.242    -9374938.336 6  -7140466.726 6
 94  1 27  0 51 30.0000000  0  8 19 27  2 26 18 16 31  7
  21259764.383     2645707.886 7   2050683.028 8
  20309761.234    -2171382.196 7  -1665371.002 9
  21329710.125    -4136071.046 7  -3179690.720 8
  24752613.289     -550707.971 3   -357223.880 3
  23600512.547    10045751.845 5   7760934.623 4
  24294689.164     2052453.613 5    575198.378 2
  23375107.258     6429764.159 5   4949947.515 5
  22887403.977    -9471711.597 6  -7215874.327 6
 94  1 27  0 52  0.0000000  0  8 19 27  2 26 18 16 31  7
  21267361.117     2685634.535 7   2081794.705 8
  20308419.789    -2178435.071 7  -1670866.722 9
  21324483.086    -4163544.102 7  -3201098.257 8
  24735271.680     -641863.357 3   -428253.903 1
  23621721.492    10157214.030 5   7847788.246 3
  24302791.977     2095048.778 4    608389.393 2
  23391699.094     6516958.691 5   5017891.292 5
  22869032.859    -9568279.548 6  -7291121.912 6
 94  1 27  0 52 30.0000000  0  8 19 27  2 26 18 16 31  7
  21275013.445     2725846.464 7   2113128.682 8
  20307139.602    -2185179.409 7  -1676122.018 9
  21319302.461    -4190743.123 7  -3222292.255 8
  24717960.203     -732826.911 3   -499134.448 1
  23642967.867    10268840.674 5   7934770.025 5
  24310968.477     2138031.556 4    641882.454 2
  23408358.500     6604512.059 5   5086114.696 5
  22850692.359    -9664621.368 5  -7366193.322 6
 94  1 27  0 53  0.0000000  0  8 19 27  2 26 18 16 31  7
  21282721.648     2766347.500 7   2144687.937 8
  20305914.547    -2191607.131 7  -1681130.613 9
  21314179.695    -4217669.949 7  -3243274.154 8
  24700680.031     -823584.966 3   -569854.897 1
  23664235.984    10380602.554 5   8021857.178 4
  24319227.234     2181415.552 5    675688.128 3
  23425087.828     6692424.036 5   5154617.520 5
  22832406.445    -9760739.827 6  -7441090.688 6
 94  1 27  0 53 30.0000000  0  8 19 27  2 26 18 16 31  7
  21290485.312     2807142.584 7   2176476.322 8
  20304750.844    -2197713.291 7  -1685888.636 9
  21309109.883    -4244331.344 7  -3264049.221 8
  24683467.203     -914119.355 4   -640401.080 2
  23685525.328    10492470.497 5   8109026.998 5
  24327558.953     2225203.068 5    709808.270 2
  23441886.023     6780703.556 5   5223406.752 6
  22814154.500    -9856628.007 6  -7515808.612 6
 94  1 27  0 54  0.0000000  0  8 19 27  2 26 18 16 31  7
  21298303.352     2848231.983 7   2208494.041 8
  20303653.492    -2203504.254 7  -1690401.046 9
  21304081.000    -4270731.960 7  -3284621.093 8
  24666277.336    -1004432.612 3   -710774.915 1
  23706820.313    10604426.151 5   8196265.127 4
  24335965.719     2269381.682 4    744233.153 2
  23458756.273     6869351.108 5   5292482.768 5
  22795953.125    -9952277.776 6  -7590340.780 6
 94  1 27  0 54 30.0000000  0  8 19 27  2 26 18 16 31  7
  21306175.094     2889596.457 7   2240726.100 8
  20302606.063    -2208981.535 7  -1694669.039 9
  21299109.922    -4296882.562 7  -3304998.140 8
  24649129.742    -1094534.321 3   -780983.879 2
  23728140.734    10716451.833 5   8283557.799 4
  24344444.586     2313926.635 4    778943.484 2
  23475692.383     6958350.993 6   5361833.319 5
  22777799.492   -10047702.564 6  -7664697.622 6
 94  1 27  0 55  0.0000000  0  8 19 27  2 26 18 16 31  7
  21314098.750     2931247.675 7   2273181.602 8
  20301630.094    -2214125.677 7  -1698677.423 9
  21294181.258    -4322773.363 7  -3325172.748 8
  24632021.070    -1184419.587 4   -851024.250 2
  23749471.414    10828563.767 5   8370917.716 4
  24352985.367     2358822.939 4    813927.588 2
  23492697.883     7047713.021 5   5431466.071 5
  22759675.906   -10142891.334 6  -7738870.553 6
 94  1 27  0 55 30.0000000  0  8 19 27  2 26 18 16 31  7
  21322081.148     2973182.941 7   2305858.441 8
  20300712.977    -2218939.480 7  -1702428.420 9
  21289301.352    -4348419.264 7  -3345156.521 8
  24614962.656    -1274095.609 4   -920901.549 3
  23770827.039    10940774.676 5   8458354.740 4
  24361592.422     2404044.581 4    849165.210 2
  23509768.898     7137417.248 5   5501365.456 5
  22741611.625   -10237845.998 6  -7812861.089 6
 94  1 27  0 56  0.0000000  0  8 19 27  2 26 18 16 31  7
  21330119.656     3015417.179 7   2338768.242 8
  20299867.727    -2223401.673 7  -1705905.422 9
  21284466.328    -4373806.974 7  -3364939.107 8
  24597937.852    -1363556.963 4   -990611.565 2
  23792202.906    11053117.365 5   8545894.488 3
  24370263.109     2449614.381 4    884674.134 2
  23526904.211     7227469.833 5   5571536.303 5
  22723589.516   -10332556.686 6  -7886661.506 6
 94  1 27  0 56 30.0000000  0  8 19 27  2 26 18 16 31  7
  21338214.188     3057965.190 7   2371922.540 8
  20299084.695    -2227489.121 7  -1709090.420 9
  21279689.359    -4398934.925 7  -3384519.286 8
  24580963.258    -1452788.386 4  -1060142.435 2
  23813613.438    11165609.488 5   8633550.670 4
  24379002.508     2495548.010 4    920466.558 2
  23544109.883     7317871.403 5   5641979.070 5
  22705616.086   -10427017.091 6  -7960266.898 6
 94  1 27  0 57  0.0000000  0  8 19 27  2 26 18 16 31  7
  21346370.063     3100818.227 7   2405314.535 8
  20298376.984    -2231216.093 7  -1711994.525 9
  21274951.586    -4423827.507 7  -3403916.061 8
  24564016.617    -1541798.739 3  -1129500.998 3
  23835051.633    11278239.006 5   8721313.908 4
  24387809.523     2541826.421 4    956527.659 1
  23561373.977     7408604.231 5   5712679.969 5
  22687688.203   -10521228.382 6  -8033678.202 6
 94  1 27  0 57 30.0000000  0  8 19 27  2 26 18 16 31  7
  21354580.617     3143969.394 7   2438938.821 8
  20297738.445    -2234580.371 7  -1714616.023 9
  21270254.148    -4448500.089 7  -3423141.414 8
  24547127.250    -1630603.752 4  -1198699.598 2
  23856509.563    11390998.597 5   8809178.508 4
  24396685.453     2588466.944 4    992870.862 2
  23578701.344     7499676.318 5   5783645.230 5
  22669810.656   -10615194.169 6  -8106898.189 6
 94  1 27  0 58  0.0000000  0  8 19 27  2 26 18 16 31  7
  21362842.414     3187386.504 7   2472770.358 8
  20297163.219    -2237604.222 7  -1716972.242 9
  21265599.266    -4472957.682 7  -3442199.235 8
  24530261.508    -1719221.105 4  -1267751.956 2
  23877984.734    11503855.680 5   8897119.056 4
  24405630.859     2635452.582 4   1029483.058 1
  23596095.336     7591077.547 5   5854866.961 5
  22651965.891   -10708933.325 6  -8179941.581 6
 94  1 27  0 58 30.0000000  0  8 19 27  2 26 18 16 31  7
  21371154.109     3231062.164 7   2506803.353 8
  20296655.477    -2240273.613 7  -1719052.265 9
  21260989.680    -4497185.472 7  -3461077.993 8
  24513431.938    -1807619.485 4  -1336633.681 2
  23899468.602    11616803.832 5   8985130.566 3
  24414633.305     2682775.500 4   1066358.041 1
  23613556.219     7682822.989 5   5926356.901 5
  22634176.352   -10802436.325 6  -8252800.974 6
 94  1 27  0 59  0.0000000  0  8 19 27  2 26 18 16 31  7
  21379514.320     3275002.192 6   2541042.360 8
  20296214.891    -2242584.296 7  -1720852.769 9
  21256426.578    -4521162.032 7  -3479760.986 8
  24496661.891    -1895781.372 4  -1405331.155 2
  23920984.289    11729850.684 5   9073219.014 2
  24423698.570     2730444.796 4   1103502.909 2
  23631082.727     7774923.054 5   5998123.205 5
  22616428.797   -10895693.131 6  -8325468.519 6
 94  1 27  0 59 30.0000000  0  8 19 27  2 26 18 16 31  7
  21387925.453     3319195.717 7   2575478.889 8
  20295839.086    -2244554.678 7  -1722388.110 9
  21251915.914    -4544870.460 7  -3498235.055 8
  24479927.031    -1983697.440 4  -1473837.068 2
  23942508.078    11842977.975 5   9161370.121 3
  24432844.344     2778448.364 4   1140908.272 2
  23648673.438     7867362.356 5   6070153.814 5
  22598727.133   -10988729.255 6  -8397964.113 6
 94  1 27  1  0  0.0000000  0  8 19 27  2 26 18 16 31  7
  21396384.742     3363660.330 7   2610126.660 8
  20295527.781    -2246177.695 7  -1723652.772 9
  21247463.000    -4568285.512 7  -3516480.512 8
  24463250.664    -2071323.365 3  -1542116.871 4
  23964052.969    11956197.470 5   9249593.058 3
  24442036.383     2826787.407 5   1178575.030 2
  23666328.289     7960142.123 5   6142449.744 5
  22581066.742   -11081525.905 6  -8470273.090 6
 94  1 27  1  0 30.0000000  0  8 19 27  2 26 18 16 31  7
  21404900.992     3408408.035 7   2644995.030 8
  20295282.656    -2247468.651 7  -1724658.682 9
  21243056.148    -4591432.983 7  -3534517.467 8
  24446635.164    -2158670.271 5  -1610179.282 2
  23985624.297    12069502.939 5   9337882.991 4
  24451298.703     2875452.640 4   1216495.968 2
  23684043.438     8053245.743 5   6214998.021 5
  22563452.586   -11174088.132 6  -8542399.423 6
 94  1 27  1  1  0.0000000  0  8 19 27  2 26 18 16 31  7
  21413477.633     3453476.369 7   2680113.234 8
  20295103.336    -2248422.307 7  -1725401.767 9
  21238707.031    -4614287.304 7  -3552325.990 8
  24430064.805    -2245733.779 4  -1678020.885 4
  24007212.914    12182922.503 5   9426261.840 2
  24460621.008     2924459.237 3   1254682.922 2
  23701822.086     8146679.020 5   6287803.176 5
  22545891.094   -11266392.316 6  -8614324.675 6
 94  1 27  1  1 30.0000000  0  8 19 27  2 26 18 16 31  7
  21422112.305     3498853.694 7   2715472.210 8
  20294986.008    -2249049.208 7  -1725890.244 9
  21234406.547    -4636874.757 7  -3569926.568 8
  24413549.992    -2332532.522 5  -1745656.149 2
  24028812.523    12296437.483 5   9514715.046 1
  24470012.547     2973790.249 4   1293122.654 3
  23719667.570     8240423.098 5   6360850.514 5
  22528368.727   -11358435.720 6  -8686046.726 6
 94  1 27  1  2  0.0000000  0  8 19 27  2 26 18 16 31  7
  21430805.078     3544535.100 7   2751068.124 8
  20294923.648    -2249352.834 7
  21230155.750    -4659222.978 7  -3587340.730 8
  24397067.711    -2419098.616 4  -1813110.169 2
  24050423.039    12410045.407 5   9603240.649 2
  24479463.625     3023441.466 4   1331811.918 1
  23737560.070     8334478.480 5   6434140.423 5
  22510912.461   -11450206.536 6  -8757556.372 6
 94  1 27  1  2 30.0000000  0  8 19 27  2 26 18 16 31  7
  21439557.078     3590523.721 7   2786903.428 8
  20294931.992    -2249325.239 7
  21225947.539    -4681332.948 7  -3604569.240 8
  24380641.367    -2505453.656 4  -1880399.685 2
  24072063.852    12523735.020 5   9691829.924 2
  24488968.859     3073405.074 4   1370744.576 2
  23755518.336     8428834.784 5   6507664.811 5
  22493498.867   -11541701.077 6  -8828850.742 6
 94  1 27  1  3  0.0000000  0  8 19 27  2 26 18 16 31  7
  21448367.000     3636817.531 7   2822976.540 8
  20295005.438    -2248939.976 7
  21221789.992    -4703186.376 7  -3621597.845 8
  24364250.555    -2591589.077 5  -1947518.091 3
  24093707.680    12637509.760 5   9780485.557 2
  24498537.539     3123684.261 4   1409923.146 2
  23773527.930     8523488.913 5   6581421.265 5
  22476142.281   -11632904.372 6  -8899918.171 6
 94  1 27  1  3 30.0000000  0  8 19 27  2 26 18 16 31  7
  21457228.414     3683391.222 7   2859267.735 8
  20295149.102    -2248188.418 7  -1725219.411 9
  21217674.430    -4724810.198 7  -3638447.533 8
  24347901.836    -2677503.166 5  -2014464.025 2
  24115371.250    12751349.372 5   9869191.714 2
  24508162.523     3174267.103 4   1449338.344 2
  23791597.875     8618441.857 5   6655410.587 5
  22458839.500   -11723826.430 6  -8970766.456 6
 94  1 27  1  4  0.0000000  0  8 19 27  2 26 18 16 31  7
  21466144.180     3730244.738 7   2895776.988 8
  20295361.594    -2247055.544 7  -1724336.634 9
  21213606.359    -4746193.926 7  -3655110.140 8
  24331595.172    -2763177.248 4  -2081222.935 2
  24137051.258    12865258.310 5   9957951.869 4
  24517845.766     3225150.821 4   1488987.949 2
  23809721.297     8713701.462 5   6729638.847 5
  22441589.945   -11814474.453 6  -9041401.201 6
 94  1 27  1  4 30.0000000  0  8 19 27  2 26 18 16 31  7
  21475112.695     3777377.059 7   2932503.484 8
  20295656.469    -2245523.619 7  -1723142.907 9
  21209581.594    -4767330.044 7  -3671579.794 8
  24315349.609    -2848578.142 4  -2147768.965 4
  24158738.164    12979240.791 5  10046769.329 2
  24527582.898     3276331.767 4   1528869.191 2
  23827912.766     8809268.062 5   6804106.336 5
  22424395.906   -11904845.503 6  -9111820.129 6
 94  1 27  1  5  0.0000000  0  8 19 27  2 26 18 16 31  7
  21484131.242     3824759.624 7   2969424.975 8
  20296019.492    -2243611.111 7  -1721652.616 9
  21205602.109    -4788247.695 7  -3687879.224 8
  24299148.883    -2933698.696 4  -2214096.563 2
  24180446.820    13093294.974 5  10135642.684 3
  24537372.125     3327794.962 3   1568970.355 2
  23846155.734     8905143.239 5   6878814.266 5
  22407244.813   -11994956.715 6  -9182036.577 6
 94  1 27  1  5 30.0000000  0  8 19 27  2 26 18 16 31  7
  21493196.484     3872401.097 6   3006548.207 8
  20296456.758    -2241322.519 7  -1719869.278 9
  21201661.336    -4808951.849 7  -3704012.285 8
  24283004.680    -3018528.669 5  -2280197.721 3
  24202162.594    13207424.402 5  10224574.656 2
  24547226.750     3379542.862 4   1609293.403 1
  23864460.578     9001337.106 5   6953770.531 5
  22390146.977   -12084801.876 6  -9252045.717 6
 94  1 27  1  6  0.0000000  0  8 19 27  2 26 18 16 31  7
  21502310.250     3920308.757 6   3043878.851 8
  20296958.187    -2238677.284 7  -1717808.027 9
  21197762.586    -4829433.090 7  -3719971.650 8
  24266920.359    -3103087.356 5  -2346087.497 3
  24223892.789    13321625.535 5  10313562.508 3
  24557119.078     3431566.128 3   1649830.956 1
  23882821.398     9097829.033 5   7028959.045 5
  22373102.492   -12174376.741 6  -9321844.232 6
 94  1 27  1  6 30.0000000  0  8 19 27  2 26 18 16 31  7
  21511485.883     3968507.292 7   3081436.177 8
  20297530.859    -2235672.554 7  -1715466.657 9
  21193909.555    -4849672.429 7  -3735742.526 8
  24250878.617    -3187375.656 5  -2411766.566 3
  24245637.484    13435908.552 5  10402614.181 3
  24567078.086     3483882.409 4   1690596.896 3
  23901242.508     9194620.877 5   7104381.274 5
  22356113.430   -12263655.693 6  -9391412.162 7
 94  1 27  1  7  0.0000000  0  8 19 27  2 26 18 16 31  7
  21520715.789     4017018.538 7   3119237.151 8
  20298170.125    -2232315.024 7  -1712850.370 9
  21190111.023    -4869664.429 7  -3751320.667 8
  24234886.867    -3271402.703 5  -2477242.063 2
  24267400.289    13550267.091 5  10491724.687 3
  24577091.766     3536500.094 3   1731597.658 2
  23919711.992     9291699.797 5   7180027.179 5
  22339184.273   -12352633.638 6  -9460745.543 7
 94  1 27  1  7 30.0000000  0  8 19 27  2 26 18 16 31  7
  21530013.047     4065862.749 7   3157297.582 8
  20298873.742    -2228594.570 7  -1709951.295 9
  21186356.680    -4889387.699 7  -3766689.408 8
  24218945.328    -3355174.260 5  -2542518.478 2
  24289174.680    13664694.553 5  10580888.878 2
  24587165.398     3589412.129 3   1772827.817 2
  23938243.273     9389057.979 5   7255890.680 5
  22322309.383   -12441302.617 6  -9529838.150 7
 94  1 27  1  8  0.0000000  0  8 19 27  2 26 18 16 31  7
  21539366.672     4115033.209 7   3195612.241 8
  20299651.688    -2224510.975 7  -1706769.248 9
  21182656.180    -4908839.787 7  -3781846.843 8
  24203054.047    -3438690.748 5  -2607596.155 3
  24310960.461    13779178.388 5  10670097.037 2
  24597283.805     3642608.673 3   1814279.617 1
  23956817.273     9486691.625 5   7331968.869 5
  22305494.219   -12529666.580 6  -9598693.106 7
 94  1 27  1  8 30.0000000  0  8 19 27  2 26 18 16 31  7
  21548788.469     4164545.060 7   3234192.902 8
  20300505.234    -2220041.964 7  -1703286.879 9
  21179005.211    -4928020.744 7  -3796793.011 8
  24187218.539    -3521915.447 5  -2672446.439 3
  24332754.000    13893722.119 4  10759351.831 3
  24607467.563     3696112.256 3   1855970.744 1
  23975456.344     9584619.697 5   7408276.445 5
  22288736.703   -12617717.033 6  -9667303.751 7
 94  1 27  1  9  0.0000000  0  8 19 27  2 26 18 16 31  7
  21558269.164     4214373.907 6   3273020.584 8
  20301426.344    -2215193.183 7  -1699508.585 9
  21175402.219    -4946953.006 7  -3811545.386 8
  24171431.195    -3604846.299 5  -2737067.798 4
  24354568.188    14008310.235 4  10848641.224 1
  24617700.938     3749904.354 3   1897886.655 1
  23994147.695     9682838.049 5   7484810.215 5
  22272042.867   -12705465.338 6  -9735678.965 7
 94  1 27  1  9 30.0000000  0  8 19 27  2 26 18 16 31  7
  21567807.500     4264484.193 6   3312067.567 8
  20302420.672    -2209971.932 7  -1695440.071 9
  21171843.492    -4965656.001 7  -3826119.117 8
  24155708.094    -3687487.792 5  -2801463.643 3
  24376378.250    14122931.296 3  10937956.287 1
  24627989.219     3803968.741 3   1940014.707 3
  24012892.070     9781345.624 5   7561569.371 5
  22255394.695   -12792925.653 6  -9803829.767 7
 94  1 27  1 10  0.0000000  0  8 19 27  2 26 18 16 31  7
  21577395.664     4314868.161 6   3351327.814 8
  20303479.258    -2204390.313 7  -1691090.725 9
  21168328.305    -4984132.861 7  -3840516.640 8
  24140030.297    -3769826.311 4  -2865623.417 4
  24398180.367    14237587.826 3  11027298.974 1
  24638337.750     3858338.030 3   1982380.367 1
  24031694.688     9880140.845 5   7638552.661 5
  22238810.891   -12880092.083 6  -9871751.565 7
 94  1 27  1 10 30.0000000  0  8 19 27  2 26 18 16 31  7
  21587034.570     4365513.541 6   3390791.756 8
  20304609.367    -2198464.512 7  -1686473.191 9
  21164853.313    -5002391.606 7  -3854744.201 8
  24124426.672    -3851869.920 5  -2929553.406 2
  24420014.992    14352280.039 3  11116669.489 2
  24648735.609     3913010.276 3   2024982.092 1
  24050541.477     9979197.230 5   7715739.451 5
  22222279.227   -12966963.540 6  -9939443.506 7
 94  1 27  1 11  0.0000000  0  8 19 27  2 26 18 16 31  7
  21596715.094     4416408.621 6   3430450.265 8
  20305803.961    -2192199.332 7  -1681591.217 9
  21161420.078    -5020429.552 7  -3868799.708 8
  24108868.281    -3933635.123 5  -2993266.440 4
  24441856.500    14467015.244 3  11206073.507 1
  24659197.438     3967968.702 4   2067806.798 1
  24069436.516    10078497.607 5   7793116.362 5
  22205802.344   -13053539.250 6 -10006905.014 7
 94  1 27  1 11 30.0000000  0  8 19 27  2 26 18 16 31  7
  21606453.016     4467565.550 6   3470312.831 8
  20307059.008    -2185593.143 7  -1676443.518 9
  21158033.367    -5038226.127 7  -3882667.133 8
  24093358.547    -4015124.506 5  -3056764.569 3
  24463690.648    14581796.186 3  11295513.166 1
  24669711.867     4023218.070 4   2110858.238 2
  24088380.188    10178038.531 5   7870680.719 5
  22189387.633   -13139805.736 6 -10074125.564 7
 94  1 27  1 12  0.0000000  0  8 19 27  2 26 18 16 31  7
  21616241.305     4519007.685 6   3510397.616 8
  20308383.438    -2178628.767 7  -1671016.714 9
  21154696.648    -5055754.258 7  -3896325.384 9
  24077907.609    -4096338.968 5  -3120048.455 3
  24485543.836    14696630.803 4  11384994.626 1
  24680282.148     4078763.187 3   2154140.113 2
  24107368.500    10277833.668 5   7948443.157 5
  22173032.422   -13225743.077 6 -10141089.634 7
 94  1 27  1 12 30.0000000  0  8 19 27  2 26 18 16 31  7
  21626086.070     4570746.003 6   3550713.202 8
  20309779.750    -2171289.397 7  -1665297.700 9
  21151407.445    -5073029.533 7  -3909786.605 8
  24062503.586    -4177286.962 5  -3183124.713 3
  24507410.750    14811508.025 4  11474509.298 1
  24690897.094     4134560.178 3   2197618.273 2
  24126403.984    10377879.530 5   8026400.972 5
  22156746.289   -13311344.784 6 -10207792.179 7
 94  1 27  1 13  0.0000000  0  8 19 27  2 26 18 16 31  7
  21635992.969     4622799.011 6   3591274.003 8
  20311252.555    -2163556.616 7  -1659272.138 9
  21148172.617    -5090042.029 7  -3923043.058 8
  24047150.805    -4257949.321 5  -3245978.418 4
  24529268.539    14926421.216 4  11564052.060 2
  24701563.484     4190609.731 3   2241293.224 1
  24145500.398    10478206.422 5   8104577.771 5
  22140516.227   -13396606.659 6 -10274229.933 7
 94  1 27  1 13 30.0000000  0  8 19 27  2 26 18 16 31  7
  21645955.844     4675159.814 6   3632074.634 8
  20312795.969    -2155446.979 7  -1652952.918 9
  21144978.656    -5106814.850 7  -3936112.756 8
  24031855.055    -4338326.092 5  -3308609.575 3
  24551149.750    15041344.197 5  11653602.387 1
  24712277.445     4246899.922 3   2285155.712 2
  24164646.734    10578810.225 5   8182970.332 5
  22124360.500   -13481539.975 6 -10340411.669 7
 94  1 27  1 14  0.0000000  0  8 19 27  2 26 18 15 31  7
  21655984.289     4727852.579 6   3673133.949 8
  20314414.273    -2146934.337 7  -1646319.669 9
  21141835.750    -5123349.199 7  -3948996.630 8
  24016624.180    -4418379.650 5  -3370988.874 4
  24573025.070    15156299.380 5  11743177.858 2
  24669559.516          -0.04813
  24183842.828    10679705.285 5   8261589.859 5
  22108259.922   -13566135.066 6 -10406329.847 7
 94  1 27  1 14 30.0000000  0  8 19 27  2 26 18 15 31  7
  21666067.352     4780854.636 6   3714434.262 8
  20316105.813    -2138042.511 7  -1639390.953 9
  21138729.906    -5139672.412 7  -3961715.972 8
  24001443.672    -4498102.524 5  -3433110.491 5
  24594893.359    15271268.655 5  11832764.286 1
  24659037.266      -55342.393 4
  24203095.305    10780855.173 5   8340407.946 4
  22092220.977   -13650407.501 6 -10471996.614 7
 94  1 27  1 15  0.0000000  0  8 19 27  2 26 18 15 31  7
  21676208.852     4834135.246 6   3755951.636 8
  20317871.031    -2128782.447 7  -1632175.294 9
  21135662.938    -5155784.541 7  -3974270.834 8
  23986342.836    -4577502.784 5  -3494980.754 2
  24616785.609    15386250.182 4  11922360.265 1
  24648557.203     -110425.179 4
  24222380.852    10882236.835 5   8419406.649 5
  22076246.602   -13734384.305 6 -10537433.024 7
 94  1 27  1 15 30.0000000  0  8 19 27  2 26 18 15 31  7
  21686401.094     4887702.236 6   3797692.153 8
  20319704.227    -2119140.688 7  -1624662.217 9
  21132634.414    -5171680.785 7  -3986657.484 8
  23971294.383    -4656573.516 5  -3556594.208 4
  24638656.063    15501261.614 3  12011979.532 2
  24638124.656     -165235.836 4        -0.25812
  24241714.117    10983837.856 5   8498576.277 3
  22060318.828   -13818057.257 6 -10602632.667 7
 94  1 27  1 16  0.0000000  0  8 19 27  2 26 18 15 31  7
  21696647.234     4941537.447 6   3839641.677 8
  20321611.438    -2109118.972 7  -1616853.069 9
  21129652.711    -5187366.883 7  -3998880.382 9
  23956307.414    -4735322.052 5  -3617956.628 3
  24660556.906    15616297.866 3  12101618.093 2
  24627738.805     -219781.871 3    -42503.584 3
  24261088.609    11085642.347 5   8577904.457 4
  22044454.445   -13901433.913 6 -10667601.425 7
 94  1 27  1 16 30.0000000  0  8 19 27  2 26 18 15 31  7
  21706942.602     4995650.009 6   3881807.310 7
  20323592.648    -2098708.788 7  -1608741.217 9
  21126712.289    -5202824.040 7  -4010924.880 9
  23941386.258    -4813740.926 5  -3679062.124 4
  24682454.555    15731363.333 3  12191279.450 1
  24617411.531     -274043.989 4    -84785.659 1
  24280502.773    11187667.569 5   8657404.635 4
  22028649.578   -13984494.400 6 -10732323.827 7
 94  1 27  1 17  0.0000000  0  8 19 27  2 26 18 15 31  7
  21717292.023     5050042.974 6   3924191.450 8
  20325648.836    -2087909.276 7  -1600325.995 8
  21123810.828    -5218059.224 7  -4022796.407 9
  23926525.586    -4891844.262 5  -3739921.760 4
  24704350.281    15846453.503 3  12280960.028 2
  24607145.383     -328019.942 4   -126844.766 3
  24299964.070    11289917.222 5   8737079.697 4
  22012902.469   -14067233.635 6 -10796795.904 7
 94  1 27  1 17 30.0000000  0  8 19 27  2 26 18 15 31  7
  21727698.813     5104720.312 6   3966797.171 7
  20327772.594    -2076742.072 7  -1591624.258 9
  21120952.031    -5233087.178 7  -4034506.466 9
  23911718.984    -4969634.050 5  -3800537.088 4
  24726254.508    15961549.588 3  12370645.251 2
  24596928.883     -381715.610 4   -168685.496 4
  24319463.508    11392399.391 5   8816935.937 4
  21997222.133   -14149639.051 6 -10861007.853 7
 94  1 27  1 18  0.0000000  0  8 19 27  2 26 18 15 31  7
  21738157.563     5159678.117 6   4009621.442 7
  20329966.070    -2065209.544 7  -1582637.854 9
  21118131.586    -5247906.489 7  -4046053.946 9
  23896978.016    -5047108.429 5  -3860906.615 4
  24748151.398    16076637.375 2  12460324.014 1
  24586761.969     -435129.836 4   -210306.868 3
  24339014.391    11495113.177 5   8896972.670 4
  21981608.195   -14231696.087 6 -10924948.342 8
 94  1 27  1 18 30.0000000  0  8 19 27  2 26 18 15 31  7
  21748670.133     5214928.084 6   4052673.372 8
  20332231.867    -2053293.747 7  -1573352.803 9
  21115356.320    -5262500.180 7  -4057425.610 9
  23882297.570    -5124264.227 5  -3921027.934 4
  24770034.961    16191712.050 2  12549992.498 2
  24576656.266     -488250.663 5   -251699.646 2
  24358598.977    11598054.160 5   8977186.410 4
  21966064.555   -14313391.175 6 -10988606.784 7
 94  1 27  1 19  0.0000000  0  8 19 27  2 26 18 15 31  7
  21759239.070     5270463.883 6   4095948.031 7
  20334574.727    -2040990.826 7  -1563766.093 9
  21112622.875    -5276860.598 7  -4068615.506 9
  23867671.750    -5201097.212 5  -3980897.695 4
  24791959.523    16306771.713 3  12639649.358 2
  24566599.273     -541083.563 5   -292868.028 3
  24378234.734    11701211.907 5   9057569.065 4
  21950582.078   -14394725.604 6 -11051984.208 8
 94  1 27  1 19 30.0000000  0  8 19 27  2 26 18 15 31  7
  21769863.000     5326293.247 6   4139451.444 7
  20336993.641    -2028283.998 7  -1553864.641 9
  21109937.180    -5290967.069 7  -4079607.528 8
  23853120.570    -5277587.086 5  -4040500.090 5
  24813836.359    16421823.909 3  12729300.409 2
  24556607.727     -593618.729 5   -333804.426 4
  24397900.039    11804593.258 5   9138125.953 4
  21935175.156   -14475705.366 6 -11115085.265 8
 94  1 27  1 20  0.0000000  0  8 19 27  2 26 18 15 31  7
  21780540.734     5382408.483 6   4183177.605 7
  20339489.633    -2015160.642 7  -1543638.633 9
  21107303.867    -5304808.456 7  -4090392.990 9
  23838624.680    -5353740.812 5  -4099840.557 4
  24835753.992    16536867.667 4  12818944.857 1
  24546658.250     -645856.733 4   -374509.280 2
  24417615.602    11908179.167 4   9218842.245 5
  21919830.266   -14556340.546 6 -11177917.811 8
 94  1 27  1 20 30.0000000  0  8 19 27  2 26 18 15 31  7
  21791278.992     5438829.279 6   4227141.868 7
  20342069.359    -2001604.377 7  -1533075.286 9
  21104725.297    -5318365.542 7  -4100956.906 9
  23824199.195    -5429547.059 5  -4158910.265 4
  24857617.219    16651931.904 3  12908605.247 3
  24536785.305     -697779.716 5   -414968.640 2
  24437370.383    12011993.845 4   9299736.793 4
  21904552.742   -14636616.729 6 -11240470.613 8
 94  1 27  1 21  0.0000000  0  8 19 27  2 26 18 15 31  7
  21802069.484     5495546.971 6   4271337.484 7
  20344725.008    -1987655.762 7  -1522206.217 9
  21102192.031    -5331672.359 7  -4111325.826 9
  23809839.289    -5505022.976 5  -4217722.557 4
  24879527.945    16767002.188 3  12998270.344 2
  24526956.977     -749403.223 5   -455194.659 2
  24457169.039    12116028.812 5   9380803.009 3
  21889340.680   -14716555.878 6 -11302760.801 8
 94  1 27  1 21 30.0000000  0  8 19 27  2 26 18 15 31  7
  21812919.234     5552560.650 6   4315763.742 7
  20347450.211    -1973334.269 7  -1511046.597 9
  21099699.664    -5344760.858 7  -4121524.613 9
  23795531.453    -5580188.829 5  -4276293.269 5
  24901423.758    16882059.043 3  13087924.998 1
  24517191.641     -800734.162 5   -495192.706 4
  24477001.352    12220269.604 4   9462029.603 4
  21874193.352   -14796163.318 6 -11364792.504 8
 94  1 27  1 22  0.0000000  0  8 19 27  2 26 18 15 31  7
  21823830.180     5609898.045 6   4360442.251 8
  20350244.930    -1958630.676 7  -1499589.233 9
  21097252.094    -5357630.818 7  -4131553.114 9
  23781290.953    -5655031.777 5  -4334612.354 5
  24923317.469    16997105.967 4  13177571.862 1
  24507483.016     -851752.553 5   -534947.216 2
  24496878.789    12324732.333 4   9543429.157 3
  21859111.563   -14875407.172 6 -11426540.899 8
 94  1 27  1 22 30.0000000  0  8 19 27  2 26 18 15 31  7
  21834806.180     5667564.701 6   4405377.312 7
  20353115.195    -1943557.873 7  -1487844.172 8
  21094839.031    -5370308.674 7  -4141431.925 9
  23767113.156    -5729545.201 5  -4392674.653 5
  24945213.063    17112131.430 5  13267202.096 1
  24497834.156     -902457.333 5   -574457.320 2
  24516802.180    12429410.701 4   9624996.704 4
  21844101.273   -14954287.676 6 -11488006.162 8
 94  1 27  1 23  0.0000000  0  8 19 27  2 26 18 15 31  7
  21845837.898     5725552.367 6   4450562.523 7
  20356053.578    -1928125.488 7  -1475818.921 8
  21092461.523    -5382806.492 7  -4151170.441 9
  23752999.719    -5803720.089 5  -4450473.183 3
  24967093.461    17227119.285 5  13356802.950 2
  24488239.680     -952849.434 5   -613723.799 4
  24536759.477    12534284.591 4   9706716.612 2
  21829161.344   -15032813.009 6 -11549194.661 8
 94  1 27  1 23 30.0000000  0  7 19 27  2 26 15 31  7
  21856932.094     5783854.794 6   4495992.998 7
  20359064.672    -1912301.088 7  -1463488.203 8
  21090120.813    -5395101.966 7  -4160751.293 9
  23738949.313    -5877535.333 5  -4507991.469 4
  24478718.992    -1002913.114 5   -652734.365 3
  24556751.789    12639361.370 4   9788594.644 3
  21814288.383   -15110962.854 6 -11610090.575 8
 94  1 27  1 24  0.0000000  0  7 19 27  2 26 15 31  7
  21868080.617     5842432.059 6   4541637.619 7
  20362144.258    -1896107.672 7  -1450869.938 8
  21087822.742    -5407199.269 7  -4170177.721 9
  23724968.367    -5951014.424 5  -4565247.811 4
  24469243.828    -1052670.152 5   -691506.013 3
  24576776.867    12744610.947 4   9870607.306 3
  21799482.500   -15188762.784 6 -11670713.830 8
 94  1 27  1 24 30.0000000  0  7 19 27  2 26 15 31  7
  21879280.133     5901289.608 6   4587500.650 7
  20365303.484    -1879518.072 7  -1437942.958 8
  21085562.555    -5419058.324 7  -4179418.512 9
  23711059.180    -6024115.222 5  -4622209.385 4
  24459842.406    -1102090.590 5   -730015.368 2
  24596847.500    12850055.101 4   9952771.597 3
  21784751.766   -15266181.702 6 -11731040.187 8
 94  1 27  1 25  0.0000000  0  7 19 27  2 26 15 31  7
  21890529.664     5960399.898 6   4633560.620 7
  20368530.438    -1862547.676 7  -1424719.257 8
  21083350.672    -5430687.623 7  -4188480.254 9
  23697219.711    -6096853.356 5  -4678888.355 4
  24450501.359    -1151192.937 5   -768276.829 3
  24616942.109    12955672.943 4  10035071.201 2
  21770086.805   -15343241.645 6 -11791086.842 8
 94  1 27  1 25 30.0000000  0  7 19 27  2 26 15 31  7
  21901826.523     6019768.734 6   4679822.059 7
  20371837.172    -1845181.889 7  -1411187.460 8
  21081181.477    -5442079.986 7  -4197357.385 9
  23683443.672    -6169233.779 5  -4735288.586 3
  24441217.008    -1199973.426 5   -806287.504 4
  24637079.352    13061467.273 4  10117508.372 2
  21755488.539   -15419940.750 6 -11850852.313 8
 94  1 27  1 26  0.0000000  0  7 19 27  2 26 15 31  7
  21913174.141     6079400.479 6   4726288.353 7
  20375216.164    -1827422.581 7  -1397349.020 8
  21079055.242    -5453253.264 7  -4206063.805 9
  23669734.211    -6241250.233 5  -4791405.230 5
  24431992.484    -1248430.562 5   -844046.227 3
  24657247.727    13167432.571 5  10200078.775 1
  21740961.938   -15496282.802 6 -11910339.564 8
 94  1 27  1 26 30.0000000  0  7 19 27  2 26 15 31  7
  21924574.469     6139310.084 6   4772971.175 7
  20378673.445    -1809254.842 7  -1383192.324 8
  21076963.609    -5464236.747 7  -4214622.330 9
  23656110.531    -6312893.360 5  -4847230.949 5
  24422834.977    -1296561.785 5   -881550.984 4
  24677438.859    13273571.610 4  10282784.537 2
  21726506.500   -15572269.994 6 -11969550.297 8
 94  1 27  1 27  0.0000000  0  7 19 27  2 26 15 31  7
  21936032.273     6199516.950 6   4819885.610 7
  20382210.188    -1790666.748 7  -1368708.073 8
  21074910.164    -5475029.556 7  -4223032.276 9
  23642538.891    -6384173.041 5  -4902773.471 5
  24413738.203    -1344360.878 5   -918796.935 4
  24697677.023    13379897.257 4  10365635.709 3
  21712108.844   -15647900.853 6 -12028483.372 8
 94  1 27  1 27 30.0000000  0  7 19 27  2 26 15 31  7
  21947547.984     6260027.972 6   4867037.069 7
  20385826.898    -1771659.310 7  -1353897.062 8
  21072893.461    -5485637.607 7  -4231298.256 9
  23629049.867    -6455098.206 5  -4958039.754 5
  24404708.336    -1391822.132 5   -955779.635 4
  24717941.602    13486411.026 4  10448633.453 3
  21697791.055   -15723159.853 6 -12087126.691 8
 94  1 27  1 28  0.0000000  0  7 19 27  2 26 15 31  7
  21959121.773     6320859.605 6   4914438.349 7
  20389520.469    -1752239.195 7  -1338764.493 8
  21070913.391    -5496048.457 7  -4239410.587 9
  23615619.516    -6525653.548 5  -5013017.852 5
  24395744.555    -1438930.284 5   -992487.199 4
  24738242.922    13593119.101 3  10531782.602 3
  21683545.984   -15798021.229 6 -12145460.170 8
 94  1 27  1 28 30.0000000  0  7 19 27  2 26 15 31  7
  21970759.836     6382014.914 6   4962091.848 7
  20393293.805    -1732428.921 7  -1323327.899 8
  21068972.281    -5506246.064 7  -4247356.746 9
  23602257.172    -6595851.242 5  -5067717.271 5
  24386844.273    -1485692.865 5  -1028925.502 3
  24758578.289    13700001.905 3  10615067.943 4
  21669371.961   -15872488.379 6 -12203486.459 8
 94  1 27  1 29  0.0000000  0  7 19 27  2 26 15 31  7
  21982455.133     6443476.265 6   5009983.813 7
  20397133.094    -1712239.309 7  -1307595.710 8
  21067073.273    -5516209.029 7  -4255120.064 9
  23588969.070    -6665700.097 5  -5122144.861 5
  24378012.836    -1532104.897 5  -1065090.643 4
  24778956.898    13807040.057 3  10698474.299 2
  21655280.820   -15946555.414 7 -12261200.975 8
 94  1 27  1 29 30.0000000  0  7 19 27  2 26 15 31  7
  21994204.688     6505222.694 6   5058097.922 7
  20401045.969    -1691685.268 7  -1291579.560 8
  21065220.789    -5525956.737 7  -4262715.659 9
  23575743.602    -6735197.923 5  -5176298.926 4
  24369248.445    -1578174.540 5  -1100988.978 5
  24799352.914    13914201.016 3  10781976.357 4
  21641264.000   -16020224.193 6 -12318605.160 8
 94  1 27  1 30  0.0000000  0  6 19 27  2 26 15  7
  22006008.992     6567254.078 6   5106434.073 7
  20405032.883    -1670738.809 7  -1275257.627 8
  21063409.563    -5535460.948 7  -4270121.509 9
  23562590.414    -6804312.576 5  -5230154.412 5
  24360546.438    -1623883.521 5  -1136606.299 5
  21627319.344   -16093484.906 6 -12375691.367 8
 94  1 27  1 30 30.0000000  0  6 19 27  2 26 15  7
  22017864.578     6629550.107 6   5154976.439 7
  20409099.047    -1649372.755 7  -1258608.736 8
  21061645.828    -5544727.395 7  -4277342.085 9
  23549512.297    -6873037.908 5  -5283706.538 5
  24351920.414    -1669228.948 5  -1171940.333 5
  21613454.422   -16166346.231 6 -12432466.365 8
 94  1 27  1 31  0.0000000  0  6 19 27  2 26 15  7
  22029760.227     6692075.633 6   5203697.645 7
  20413242.563    -1627596.863 7  -1241640.488 8
  21059923.094    -5553788.195 7  -4284402.425 9
  23536506.070    -6941397.165 5  -5336973.415 5
  24343359.164    -1714226.827 5  -1207003.525 4
  21599663.867   -16238827.052 7 -12488944.877 8
 94  1 27  1 31 30.0000000  0  6 19 27  2 26 15  7
  22041712.062     6754872.464 6   5252630.244 7
  20417471.055    -1605374.477 7  -1224324.323 8
  21058242.414    -5562617.229 7  -4291282.169 9
  23523571.109    -7009350.896 5  -5389924.281 5
  24334868.641    -1758852.197 5  -1241776.463 4
  21585943.438   -16310908.371 6 -12545112.076 9
 94  1 27  1 32  0.0000000  0  6 19 27  2 26 15  7
  22053711.977     6817935.915 6   5301770.611 7
  20421780.172    -1582715.011 7  -1206667.580 8
  21056608.352    -5571221.120 7  -4297986.469 9
  23510715.414    -7076918.195 5  -5442574.051 5
  24326439.125    -1803116.107 5  -1276267.757 5
  21572296.953   -16382621.284 6 -12600992.208 8
 94  1 27  1 32 30.0000000  0  6 19 27  2 26 15  7
  22065765.016     6881291.260 6   5351138.421 7
  20426175.383    -1559635.693 7  -1188683.678 8
  21055008.633    -5579620.480 7  -4304531.382 9
  23497933.914    -7144110.070 5  -5494931.294 5
  24318088.867    -1847019.156 5  -1310477.852 4
  21558722.594   -16453969.414 7 -12656588.099 9
 94  1 27  1 33  0.0000000  0  6 19 27  2 26 15  7
  22077887.313     6944980.155 6   5400766.147 7
  20430644.336    -1536143.137 7  -1170377.766 8
  21053450.469    -5587807.609 7  -4310910.939 9
  23485220.008    -7210914.236 5  -5546986.400 5
  24309801.828    -1890547.512 5  -1344395.979 5
  21545216.578   -16524930.230 6 -12711882.184 9
 94  1 27  1 33 30.0000000  0  6 19 27  2 26 15  7
  22090072.305     7009000.035 6   5450651.771 7
  20435190.555    -1512247.501 7  -1151757.779 8
  21051928.633    -5595805.756 7  -4317143.237 9
  23472579.188    -7277328.495 5  -5598737.722 4
  24301587.922    -1933710.575 5  -1378029.456 5
  21531790.367   -16595511.011 7 -12766880.138 9
 94  1 27  1 34  0.0000000  0  6 19 27  2 26 15  7
  22102313.625     7073345.742 6   5500791.283 7
  20439814.148    -1487958.057 7  -1132830.924 8
  21050439.938    -5603627.752 7  -4323238.258 9
  23460018.734    -7343345.522 5  -5650179.481 5
  24293449.883    -1976501.756 5  -1411373.155 4
  21518431.633   -16665693.997 7 -12821568.124 9
 94  1 27  1 34 30.0000000  0  6 19 27  2 26 15  7
  22114622.688     7138027.543 6   5551192.709 7
  20444514.867    -1463258.687 7  -1113584.650 8
  21048984.570    -5611265.838 7  -4329189.981 9
  23447535.820    -7408932.993 5  -5701286.551 5
  24285378.836    -2018903.920 5  -1444413.736 5
  21505158.852   -16735445.429 7 -12875919.849 9
 94  1 27  1 35  0.0000000  0  6 19 27  2 26 15  7
  22126987.367     7203009.473 6   5601827.983 7
  20449294.820    -1438142.207 7  -1094013.351 8
  21047568.406    -5618716.396 7  -4334995.583 9
  23435135.250    -7474086.450 5  -5752055.384 5
  24277381.117    -2060922.431 5  -1477155.368 5
  21491963.250   -16804776.532 6 -12929944.034 9
 94  1 27  1 35 30.0000000  0  6 19 27  2 26 15  7
  22139404.359     7268258.267 6   5652671.208 7
  20454150.625    -1412610.516 7  -1074118.511 8
  21046190.078    -5625979.071 7  -4340654.776 9
  23422818.922    -7538821.794 5  -5802498.463 5
  24269455.438    -2102565.668 5  -1509604.582 4
  21478844.953   -16873701.408 6 -12983651.677 9
 94  1 27  1 36  0.0000000  0  6 19 27  2 26 15  7
  22151876.281     7333781.384 6   5703728.186 7
  20459092.102    -1386665.913 7  -1053901.913 8
  21044842.187    -5633036.953 7  -4346154.398 9
  23410577.867    -7603147.359 5  -5852622.225 5
  24261606.422    -2143828.092 5  -1541757.052 3
  21465811.898   -16942217.927 7 -13037041.111 9
 94  1 27  1 36 30.0000000  0  6 19 27  2 26 15  7
  22164401.000     7399593.348 6   5755010.241 6
  20464106.914    -1360290.181 7  -1033349.389 8
  21043545.289    -5639859.536 7  -4351470.668 9
  23398416.891    -7667065.169 5  -5902428.234 5
  24253826.852    -2184690.575 5  -1573597.900 5
  21452853.875   -17010310.525 7 -13090100.226 9
 94  1 27  1 37  0.0000000  0  6 19 27  2 26 15  7
  22176971.242     7465671.376 6   5806499.623 6
  20469202.625    -1333517.234 7  -1012487.341 8
  21042286.008    -5646470.601 7  -4356622.118 9
  23386315.523    -7730623.975 5  -5951954.510 5
  24246125.125    -2225174.877 5  -1605144.051 4
  21439973.070   -17078003.989 7 -13142848.331 9
 94  1 27  1 37 30.0000000  0  6 19 27  2 26 15  7
  22189601.750     7532039.618 6   5858215.142 7
  20474374.453    -1306350.918 7   -991318.767 8
  21041068.227    -5652871.428 7  -4361609.746 9
  23374295.297    -7793815.799 5  -6001194.843 5
  24238496.648    -2265270.840 5  -1636387.603 4
  21427170.945   -17145276.073 7 -13195268.085 9
 94  1 27  1 38  0.0000000  0  6 19 27  2 26 15  7
  22202288.492     7598706.644 6   5910163.476 7
  20479616.484    -1278792.749 7   -969844.854 8
  21039888.875    -5659073.007 7  -4366442.119 9
  23362343.523    -7856623.542 5  -6050135.873 5
  24230938.750    -2304974.740 5  -1667325.666 3
  21414449.422   -17212129.595 7 -13247361.692 9
 94  1 27  1 38 30.0000000  0  6 19 27  2 26 15  7
  22215030.852     7665672.826 6   5962344.917 7
  20484939.141    -1250828.640 7   -948054.623 8
  21038746.555    -5665073.088 7  -4371117.482 9
  23350465.742    -7919031.300 5  -6098765.221 5
  24223462.773    -2344280.412 5  -1697953.406 3
  21401807.500   -17278555.951 7 -13299122.432 9
 94  1 27  1 39  0.0000000  0  6 19 27  2 26 15  7
  22227831.656     7732948.062 6   6014767.181 6
  20490339.609    -1222446.071 7   -925938.319 8
  21037643.930    -5670875.822 7  -4375639.069 9
  23338675.469    -7981007.558 5  -6147058.346 5
  24216060.063    -2383179.593 5  -1728264.408 5
  21389249.203   -17344558.154 7 -13350552.659 9
 94  1 27  1 39 30.0000000  0  6 19 27  2 26 15  7
  22240692.164     7800520.022 6   6067420.656 6
  20495817.367    -1193640.460 7   -903492.375 8
  21036576.695    -5676478.928 7  -4380005.100 9
  23326964.633    -8042533.293 6  -6195000.412 5
  24208731.781    -2421673.137 5  -1758259.323 5
  21376766.930   -17410142.990 7 -13401657.672 9
 94  1 27  1 40  0.0000000  0  6 19 27  2 26 15  7
  22253604.164     7868373.236 6   6120293.297 6
  20501381.695    -1164417.545 7   -880721.256 8
  21035546.023    -5681883.196 7  -4384216.192 9
  23315345.031    -8103619.307 6  -6242599.842 5
  24201485.539    -2459762.489 5  -1787939.269 4
  21364365.695   -17475319.075 7 -13452444.184 9
 94  1 27  1 40 30.0000000  0  6 19 27  2 26 15  7
  22266567.453     7936495.527 6   6173375.602 7
  20507019.359    -1134780.229 7   -857627.229 8
  21034559.672    -5687087.160 7  -4388271.208 9
  23303800.617    -8164275.268 5  -6289864.178 5
  24194312.289    -2497450.686 5  -1817306.660 5
  21352037.016   -17540090.944 7 -13502915.711 9
 94  1 27  1 41  0.0000000  0  6 19 27  2 26 15  7
  22279582.969     8004887.026 6   6226667.672 6
  20512739.406    -1104723.904 7   -834206.704 8
  21033606.609    -5692085.830 7  -4392166.248 9
  23292338.336    -8224483.246 5  -6336779.424 5
  24187223.992    -2534720.029 5  -1846347.670 5
  21339790.359   -17604451.252 7 -13553066.539 9
 94  1 27  1 41 30.0000000  0  6 19 27  2 26 15  7
  22292644.625     8073542.114 6   6280165.138 6
  20518538.570    -1074259.771 7   -810468.405 8
  21032695.102    -5696874.555 7  -4395897.700 9
  23280966.352    -8284258.170 5  -6383357.222 5
  24180208.016    -2571572.266 5  -1875063.624 4
  21327626.594   -17668392.890 7 -13602891.147 9
 94  1 27  1 42  0.0000000  0  6 19 27  2 26 15  7
  22305760.180     8142465.917 6   6333872.004 6
  20524411.867    -1043387.365 7   -786411.969 8
  21031826.203    -5701453.828 7  -4399465.946 9
  23269673.461    -8343616.547 6  -6429610.446 5
  24173273.281    -2608012.678 5  -1903458.709 4
  21315535.102   -17731914.506 7 -13652388.463 9
 94  1 27  1 42 30.0000000  0  6 19 27  2 26 15  7
  22318930.820     8211666.941 6   6387794.868 6
  20530368.508    -1012082.310 7   -762018.410 8
  21030995.117    -5705815.725 7  -4402864.802 9
  23258454.805    -8402539.180 5  -6475524.134 5
  24166420.820    -2644030.949 5  -1931524.850 3
  21303530.031   -17794997.277 7 -13701543.814 9
 94  1 27  1 43  0.0000000  0  6 19 27  2 26 15  7
  22332153.086     8281153.216 6   6441940.024 6
  20536408.953     -980342.062 7   -737285.739 8
  21030205.477    -5709956.372 7  -4406091.252 9
  23247325.156    -8461035.140 5  -6521105.336 5
  24159645.398    -2679623.182 5  -1959259.015 5
  21291619.000   -17857614.164 7 -13750336.138 9
 94  1 27  1 43 30.0000000  0  6 19 27  2 26 15  7
  22345432.500     8350930.952 6   6496312.283 6
  20542532.883     -948165.507 7   -712213.070 8
  21029459.148    -5713882.591 7  -4409150.617 9
  23236272.703    -8519123.217 5  -6566368.728 5
  24152955.977    -2714798.057 5  -1986667.951 5
  21279788.055   -17919765.658 7 -13798765.828 9
 94  1 27  1 44  0.0000000  0  6 19 27  2 26 15  7
  22358763.797     8420993.283 6   6550906.305 6
  20548740.250     -915538.591 7   -686789.492 8
  21028750.984    -5717605.825 7  -4412051.811 9
  23225298.000    -8576795.845 5  -6611308.380 5
  24146338.188    -2749549.771 5  -2013747.145 5
  21268051.703   -17981453.521 7 -13846834.242 9
 94  1 27  1 44 30.0000000  0  6 19 27  2 26 15  7
  22372153.445     8491361.263 6   6605738.499 6
  20555035.336     -882456.435 7   -661011.169 8
  21028079.242    -5721127.494 7  -4414795.944 9
  23214408.266    -8634034.568 6  -6655909.934 5
  24139812.305    -2783856.273 5  -2040479.442 4
  21256403.219   -18042670.295 7 -13894535.573 9
 94  1 27  1 45  0.0000000  0  6 19 27  2 26 15  7
  22385604.695     8562047.956 6   6660819.034 6
  20561415.133     -848935.366 7   -634890.847 8
  21027446.219    -5724454.363 7  -4417388.286 9
  23203598.156    -8690840.873 6  -6700174.524 5
  24133369.859    -2817716.817 5  -2066864.251 5
  21244836.164   -18103434.677 7 -13941884.388 9
 94  1 27  1 45 30.0000000  0  6 19 27  2 26 15  7
  22399112.539     8633027.422 6   6716127.711 6
  20567871.398     -815001.654 7   -608448.975 8
  21026847.055    -5727615.038 7  -4419851.121 9
  23192868.305    -8747219.643 6  -6744105.972 5
  24127006.438    -2851154.282 5  -2092919.381 4
  21233353.672   -18163790.035 7 -13988914.489 9
 94  1 27  1 46  0.0000000  0  6 19 27  2 26 15  7
  22412675.031     8704305.535 6   6771669.093 6
  20574410.555     -780650.180 7   -581681.581 8
  21026276.477    -5730594.227 7  -4422172.548 9
  23182223.992    -8803149.900 5  -6787687.951 5
  24120729.789    -2884155.385 5  -2118634.497 4
  21221949.242   -18223715.958 7 -14035609.966 9
 94  1 27  1 46 30.0000000  0  6 19 27  2 26 15  7
  22426294.531     8775871.051 6   6827434.440 6
  20581019.773     -745908.945 7   -554610.469 8
  21025743.352    -5733408.256 7  -4424365.273 9
  23171664.398    -8858638.046 6  -6830925.390 5
  24114523.625    -2916742.736 5  -2144027.194 4
  21210624.570   -18283231.125 7 -14081985.369 9
 94  1 27  1 47  0.0000000  0  6 19 27  2 26 15  7
  22439968.766     8847718.830 6   6883419.716 6
  20587708.195     -710765.893 7   -527226.259 8
  21025242.172    -5736039.986 7  -4426415.943 9
  23161196.461    -8913661.277 6  -6873800.596 5
  24108404.711    -2948909.339 5  -2169092.049 4
  21199381.828   -18342311.907 7 -14128022.297 9
 94  1 27  1 47 30.0000000  0  6 19 27  2 26 15  7
  22453690.594     8919836.935 6   6939615.649 6
  20594473.180     -675208.647 7   -499519.295 8
  21024780.641    -5738469.290 7  -4428308.883 9
  23150813.648    -8968208.726 6  -6916305.052 5
  24102363.406    -2980645.121 5  -2193821.192 4
  21188227.484   -18400928.164 7 -14173697.252 9
 94  1 27  1 48  0.0000000  0  6 19 27  2 26 15  7
  22467468.461     8992239.058 6   6996032.878 6
  20601322.805     -639222.121 7   -471477.832 8
  21024357.477    -5740688.737 7  -4430038.295 9
  23140522.891    -9022273.270 6  -6958433.210 5
  24096410.359    -3011930.285 5  -2218199.200 5
  21177162.734   -18459068.957 7 -14219001.720 9
 94  1 27  1 48 30.0000000  0  6 19 27  2 26 15  7
  22481304.180     9064931.116 6   7052676.025 6
  20608250.547     -602813.747 7   -443107.660 8
  21023972.187    -5742708.597 7  -4431612.185 9
  23130333.047    -9075862.437 6  -7000190.945 5
  24090541.031    -3042764.812 5  -2242226.074 5
  21166185.445   -18516752.136 7 -14263949.606 9
 94  1 27  1 49  0.0000000  0  6 19 27  2 26 15  7
  22495188.547     9137906.940 6   7109540.296 6
  20615257.594     -565987.987 7   -414412.243 8
  21023630.195    -5744524.885 7  -4433027.447 9
  23120218.383    -9128995.251 6  -7041593.094 5
  24084760.492    -3073143.693 5  -2265897.894 5
  21155295.984   -18573972.766 7 -14308537.066 9
 94  1 27  1 49 30.0000000  0  6 19 27  2 26 15  7
  22509127.891     9211165.746 6   7166625.066 6
  20622344.938     -528738.898 7   -385386.961 8
  21023321.914    -5746136.321 7  -4434283.081 9
  23110191.055    -9181686.498 6  -7082651.145 5
  24079067.141    -3103061.870 5  -2289210.722 5
  21144495.891   -18630743.183 7 -14352773.708 9
 94  1 27  1 50  0.0000000  0  6 19 27  2 26 15  7
  22523122.484     9284709.249 6   7223931.693 6
  20629512.586     -491082.916 7   -356044.628 8
  21023046.172    -5747573.001 7  -4435402.546 9
  23100246.055    -9233961.729 6  -7123385.051 5
  24073461.297    -3132532.004 5  -2312174.446 4
  21133773.719   -18687080.442 7 -14396672.826 9
 94  1 27  1 50 30.0000000  0  6 19 27  2 26 15  7
  22537174.523     9358546.273 6   7281467.018 6
  20636755.719     -453009.583 7   -326377.078 8
  21022811.227    -5748816.778 7  -4436371.700 9
  23090378.625    -9285802.669 6  -7163780.535 5
  24067937.070    -3161541.655 5  -2334779.319 5
  21123139.469   -18742965.450 7 -14440219.542 9
 94  1 27  1 51  0.0000000  0  6 19 27  2 26 15  7
  22551279.078     9432655.650 6   7339214.562 6
  20644085.125     -414504.195 7   -296372.864 8
  21022610.203    -5749864.036 7  -4437187.720 9
  23080595.328    -9337201.495 6  -7203831.511 5
  24062513.102    -3190088.875 5  -2357023.876 4
  21112591.586   -18798392.834 7 -14483409.670 9
 94  1 27  1 51 30.0000000  0  6 19 27  2 26 15  7
  22565432.109     9507041.889 6   7397177.868 6
  20651495.687     -375553.668 7   -266021.791 8
  21022446.023    -5750729.831 7  -4437862.341 9
  23070905.766    -9388144.377 6  -7243527.225 5
  24057163.406    -3218170.819 5  -2378905.879 5
  21102132.648   -18853362.001 7 -14526242.745 9
 94  1 27  1 52  0.0000000  0  6 19 27  2 26 15  7
  22579633.711     9581692.833 6   7455347.439 6
  20658992.359     -336171.893 7   -235334.682 8
  21022313.766    -5751436.457 7  -4438412.941 9
  23061293.883    -9438621.727 6  -7282860.180 5
  24051907.602    -3245803.025 5  -2400437.437 4
  21091753.359   -18907888.843 7 -14568731.150 9
 94  1 27  1 52 30.0000000  0  6 19 27  2 26 15  7
  22593890.648     9656592.189 6   7513710.566 6
  20666572.031     -296344.816 7   -204300.585 8
  21022210.000    -5751968.526 7  -4438827.506 9
  23051784.742    -9488616.633 6  -7321817.198 5
  24046730.016    -3272982.236 5  -2421616.009 5
  21081464.297   -18961973.441 7 -14610874.952 9
 94  1 27  1 53  0.0000000  0  6 19 27  2 26 15  7
  22608191.719     9731746.459 6   7572272.309 6
  20674231.234     -256071.521 7   -172918.785 8
  21022140.875    -5752329.545 7
  23042365.188    -9538133.258 6  -7360401.549 5
  24041651.977    -3299705.087 5  -2442438.970 5
  21071257.961   -19015601.980 7 -14652663.383 9
 94  1 27  1 53 30.0000000  0  6 19 27  2 26 15  7
  22622540.867     9807171.142 6   7631044.791 6
  20681979.547     -215368.809 7   -141202.375 8
  21022105.547    -5752513.504 7
  23033027.383    -9587165.426 6  -7398608.384 5
  24036646.914    -3325965.915 5  -2462901.931 3
  21061144.195   -19068753.643 7 -14694080.219 9
 94  1 27  1 54  0.0000000  0  6 19 27  2 26 15  7
  22636950.875     9882870.121 6   7690030.998 6
  20689804.609     -174240.841 7   -109154.597 8
  21022111.648    -5752493.018 7
  23023791.852    -9635709.095 6  -7436434.573 5
  24031741.648    -3351757.738 5  -2482999.413 4
  21051121.367   -19121422.817 7 -14735121.099 9
 94  1 27  1 54 30.0000000  0  6 19 27  2 26 15  7
  22651405.281     9958841.056 6   7749229.118 6
  20697709.125     -132703.116 7    -76787.532 8
  21022153.906    -5752275.228 7
  23014643.695    -9683797.362 6  -7473905.902 5
  24026928.711    -3377085.024 5  -2502734.921 5
  21041187.664   -19173614.997 7 -14775790.292 9
 94  1 27  1 55  0.0000000  0  6 19 27  2 26 15  7
  22665920.234    10035100.856 6   7808652.342 6
  20705691.133      -90758.966 7    -44103.768 8
  21022233.227    -5751868.957 7  -4438749.801 9
  23005578.820    -9731420.841 6  -7511015.075 5
  24022190.344    -3401944.900 5  -2522106.208 5
  21031344.727   -19225337.405 7 -14816093.431 9
 94  1 27  1 55 30.0000000  0  6 19 27  2 26 15  7
  22680484.102    10111638.720 6   7868292.227 6
  20713749.375      -48407.386 7    -11102.528 8
  21022347.422    -5751266.711 7  -4438280.499 9
  22996606.875    -9778582.755 6  -7547764.589 5
  24017546.664    -3426344.943 5  -2541119.205 3
  21021589.359   -19276613.175 7 -14856048.530 9
 94  1 27  1 56  0.0000000  0  6 19 27  2 26 15  7
  22695101.063    10188447.936 6   7928143.547 6
  20721888.086       -5646.138 7     22217.936 8
  21022493.695    -5750484.386 7  -4437670.875 9
  22987712.969    -9825300.228 6  -7584167.768 5
  24012985.758    -3450294.399 5  -2559781.093 5
  21011911.031   -19327465.686 7 -14895673.823 9
 94  1 27  1 56 30.0000000  0  7 19 27  2 26 13 15  7
  22709774.938    10265564.675 6   7988234.500 6
  20730107.602       37560.776 7     55885.674 8
  21022681.656    -5749503.960 7  -4436906.894 9
  22978915.484    -9871537.391 6  -7620196.689 5
  24786547.492          -0.01013
  24008525.648    -3473758.078 5  -2578064.445 5
  21002322.547   -19377854.530 7 -14934937.819 9
 94  1 27  1 57  0.0000000  0  7 19 27  2 26 13 15  7
  22724503.211    10342972.075 6   8048551.951 6
  20738417.211       81214.286 7     89901.406 8
  21022900.891    -5748331.458 7  -4435993.246 9
  22970213.063    -9917275.969 6  -7655837.093 5
  24764165.063     -117527.080 3
  24004156.227    -3496738.024 5  -2595970.843 5
  20992826.594   -19427764.768 7 -14973828.879 9
 94  1 27  1 57 30.0000000  0  7 19 27  2 26 13 15  7
  22739288.516    10420665.007 6   8109091.871 6
  20746809.391      125317.021 7    124267.177 8
  21023161.891    -5746960.720 7  -4434925.121 9
  22961603.109    -9962516.989 6  -7691089.800 5
  24741827.297     -234994.472 3
  23999877.516    -3519223.129 5  -2613491.673 4
  20983421.945   -19477178.231 7 -15012332.840 9
 94  1 27  1 58  0.0000000  0  7 19 27  2 26 13 15  7
  22754120.023    10498607.587 6   8169826.320 6
  20755279.906      169827.253 7    158950.487 8
  21023450.367    -5745450.485 7  -4433748.289 9
  22953082.656   -10007281.913 6  -7725971.546 5
  24719466.984     -352429.629 3        -0.39611
  23995685.625    -3541241.989 5  -2630649.198 4
  20974108.672   -19526124.293 7 -15050472.594 9
 94  1 27  1 58 30.0000000  0  7 19 27  2 26 13 15  7
  22769000.430    10576793.252 6   8230750.205 6
  20763825.742      214746.348 7    193952.375 8
  21023769.688    -5743789.303 7  -4432453.843 9
  22944657.914   -10051561.655 6  -7760475.194 5
  24697137.063     -469823.078 4    -91475.717 1
  23991588.102    -3562786.303 5  -2647436.945 4
  20964885.883   -19574603.074 7 -15088248.236 9
 94  1 27  1 59  0.0000000  0  7 19 27  2 26 13 15  7
  22783925.117    10655220.458 6   8291862.295 6
  20772452.523      260076.217 7    229274.368 8
  21024112.680    -5741966.610 7  -4431033.538 9
  22936327.797   -10095356.016 6  -7794600.643 5
  24674805.234     -587168.540 4   -182913.658 1
  23987574.383    -3583850.755 5  -2663850.776 5
  20955745.641   -19622622.428 7 -15125665.877 9
 94  1 27  1 59 30.0000000  0  7 19 27  2 26 13 15  7
  22798899.773    10733907.199 6   8353176.614 6
  20781155.703      305817.524 7    264916.947 8
  21024493.703    -5739967.609 7  -4429475.861 9
  22928083.820   -10138666.405 6  -7828348.959 5
  24652484.594     -704454.526 5   -274305.220 1
  23983662.539    -3604425.217 5  -2679882.788 5
  20946694.570   -19670183.179 7 -15162726.155 9
 94  1 27  2  0  0.0000000  0  7 19 27  2 26 13 15  7
  22813920.414    10812850.519 6   8414690.881 6
  20789941.523      351969.164 7    300879.273 8
  21024909.180    -5737791.158 7  -4427779.910 9
  22919929.313   -10181506.942 6  -7861731.161 5
  24630177.039     -821683.802 5   -365652.614 1
  23979837.977    -3624513.706 5  -2695536.125 5
  20937731.500   -19717285.820 7 -15199429.486 9
 94  1 27  2  0 30.0000000  0  7 19 27  2 26 13 15  7
  22828986.992    10892045.467 6   8476401.213 6
  20798800.055      398537.290 7    337166.127 8
  21025358.289    -5735427.105 7  -4425937.764 9
  22911866.961   -10223885.431 6  -7894753.332 5
  24607880.180     -938854.393 5   -456954.316 1
  23976111.531    -3644115.320 5  -2710810.077 5
  20928858.031   -19763915.604 7 -15235764.352 9
 94  1 27  2  1  0.0000000  0  7 19 27  2 26 13 15  7
  22844108.219    10971505.551 5   8538318.151 5
  20807742.211      445530.170 7    373783.959 8
  21025840.922    -5732871.957 7  -4423946.715 9
  22903894.336   -10265776.863 6  -7927395.992 5
  24585588.438    -1055953.267 4   -548200.090 1
  23972469.180    -3663218.901 5  -2725695.938 5
  20920077.500   -19810043.936 7 -15271708.470 9
 94  1 27  2  1 30.0000000  0  7 19 27  2 26 13 15  7
  22859278.859    11051226.389 5   8600438.264 6
  20816770.289      492954.532 7    410738.008 8
  21026369.312    -5730129.155 7  -4421809.456 9
  22896016.234   -10307175.343 6  -7959654.509 5
  24563326.320    -1172975.645 5   -639386.219 1
  23968936.352    -3681820.446 5  -2740190.613 4
  20911397.000   -19855660.772 7 -15307254.024 9
 94  1 27  2  2  0.0000000  0  7 19 27  2 26 13 15  7
  22874503.461    11131209.305 6   8662762.599 5
  20825875.961      540824.706 7    448039.447 8
  21026926.008    -5727198.469 7  -4419525.780 9
  22888235.867   -10348066.283 6  -7991517.552 5
  24541072.203    -1289916.147 5   -730508.591 1
  23965491.383    -3699915.829 5  -2754290.882 5
  20902816.891   -19900763.385 7 -15342398.884 9
 94  1 27  2  2 30.0000000  0  7 19 27  2 26 13 15  7
  22889773.914    11211444.780 5   8725283.730 5
  20835068.445      589126.050 7    485676.857 8
  21027514.469    -5724099.216 7  -4417110.761 9
  22880549.320   -10388452.504 6  -8022987.307 5
  24518832.641    -1406785.570 5   -821575.546 1
  23962140.781    -3717517.526 5  -2768006.444 4
  20894327.164   -19945373.257 7 -15377159.787 9
 94  1 27  2  3  0.0000000  0  7 19 27  2 26 13 15  7
  22905087.148    11291948.311 6   8788013.742 5
  20844344.289      637865.639 7    523655.765 8
  21028137.688    -5720821.505 7  -4414556.683 9
  22872963.516   -10428325.844 6  -8054057.414 5
  24496602.984    -1523575.561 3   -912580.576 1
  23958888.367    -3734619.063 5  -2781332.292 5
  20885928.656   -19989507.976 7 -15411550.445 9
 94  1 27  2  3 30.0000000  0  7 19 27  2 26 13 15  7
  22920458.688    11372713.413 6   8850947.576 5
  20853698.688      687033.675 7    561968.519 8
  21028794.398    -5717375.202 7  -4411871.232 9
  22865466.344   -10467715.365 6  -8084750.508 6
  24474395.508    -1640294.573 3
  23955724.195    -3751229.731 5  -2794275.633 5
  20877616.031   -20033184.301 7 -15445583.909 9
 94  1 27  2  4  0.0000000  0  7 19 27  2 26 13 15  7
  22935881.453    11453769.563 5   8914108.200 5
  20863139.344      736638.339 7    600621.507 8
  21029484.523    -5713746.085 7  -4409043.331 9
  22858065.031   -10506611.920 6  -8115059.493 5
  24452207.148    -1756924.551 4
  23952665.477    -3767332.620 5  -2806823.307 4
  20869393.906   -20076389.093 7 -15479249.947 9
 94  1 27  2  4 30.0000000  0  7 19 27  2 26 13 15  7
  22951362.477    11535105.766 5   8977487.032 6
  20872659.805      786661.300 7    639600.440 8
  21030207.477    -5709944.708 7  -4406081.201 9
  22850756.961   -10545029.778 6  -8144995.454 6
  24430032.281    -1873469.867 3        -0.04211
  23949690.383    -3782933.788 5  -2818980.019 5
  20861264.031   -20119125.493 7 -15512551.012 9
 94  1 27  2  5  0.0000000  0  7 19 27  2 26 13 15  7
  22966890.898    11616719.269 5   9041081.963 5
  20882254.969      837094.254 7    678898.840 8
  21030963.180    -5705975.922 7  -4402988.623 9
  22843532.750   -10582973.743 6  -8174562.138 6
  24407868.297    -1989935.690 3    -90752.466 1
  23946814.805    -3798040.061 5  -2830751.104 5
  20853220.445   -20161386.951 7 -15545481.989 9
 94  1 27  2  5 30.0000000  0  7 19 27  2 26 13 15  7
  22982475.367    11698623.391 6   9104903.347 5
  20891930.000      887940.103 7    718518.980 8
  21031752.930    -5701833.993 7  -4399761.128 9
  22836404.406   -10620435.174 6  -8203752.828 6
  24385720.758    -2106305.266 3   -181429.890 1
  23944039.102    -3812636.033 5  -2842124.560 4
  20845275.578   -20203140.783 7 -15578017.403 9
 94  1 27  2  6  0.0000000  0  7 19 27  2 26 13 15  7
  22998114.469    11780806.706 5   9168942.288 5
  20901686.273      939197.732 7    758459.989 8
  21032570.391    -5697525.823 7  -4396404.096 9
  22829373.914   -10657396.053 6  -8232553.490 5
  24363588.188    -2222580.183 4   -272033.542 2
  23941353.313    -3826724.993 5  -2853102.928 5
  20837424.711   -20244394.748 7 -15610163.321 9
 94  1 27  2  6 30.0000000  0  7 19 27  2 26 13 15  7
  23013807.961    11863277.296 5   9233205.074 5
  20911520.891      990889.643 7    798739.407 8
  21033426.227    -5693033.169 7  -4392903.308 9
  22822439.000   -10693821.031 6  -8260936.572 6
  24341487.336    -2338743.555 5   -362550.285 1
  23938776.750    -3840291.571 5  -2863674.255 5
  20829672.719   -20285133.543 7 -15641907.813 9
 94  1 27  2  7  0.0000000  0  7 19 27  2 26 13 15  7
  23029553.930    11946025.533 5   9297684.203 5
  20921439.281     1043013.677 7    839355.532 8
  21034317.273    -5688362.193 7  -4389263.567 9
  22815606.273   -10729715.960 6  -8288906.618 5
  24319401.328    -2454802.224 5   -452985.417 2
  23936292.703    -3853344.283 5  -2873845.169 5
  20822016.336   -20325373.503 7 -15673263.590 9
 94  1 27  2  7 30.0000000  0  7 19 27  2 26 13 15  7
  23045355.125    12029040.904 5   9362371.485 5
  20931441.328     1095571.014 7    880309.310 8
  21035239.555    -5683511.671 7  -4385483.922 9
  22808880.469   -10765078.220 6  -8316461.577 6
  24297339.211    -2570750.243 5   -543334.349 1
  23933909.477    -3865878.441 5  -2883612.022 5
  20814452.828   -20365121.819 7 -15704236.273 9
 94  1 27  2  8  0.0000000  0  7 19 27  2 26 13 15  7
  23061197.797    12112306.489 5   9427253.749 5
  20941526.164     1148571.642 7    921608.491 8
  21036196.430    -5678478.398 7  -4381561.887 9
  22802255.461   -10799899.970 6  -8343595.380 5
  24275290.523    -2686590.224 5   -633599.141 1
  23931621.305    -3877898.306 5  -2892978.118 5
  20806979.484   -20404387.451 7 -15734832.845 9
 94  1 27  2  8 30.0000000  0  7 19 27  2 26 13 15  7
  23077092.063    12195825.698 5   9492333.636 5
  20951701.570     1202025.823 7    963261.092 8
  21037190.242    -5673250.886 7  -4377488.488 9
  22795728.703   -10834189.244 6  -8370314.262 5
  24253266.344    -2802310.759 5   -723770.852 1
  23929434.977    -3889394.093 5  -2901935.857 5
  20799601.242   -20443157.211 7 -15765043.014 9
 94  1 27  2  9  0.0000000  0  7 19 27  2 26 13 15  7
  23093029.469    12279569.815 5   9557588.771 5
  20961952.102     1255904.803 7   1005244.712 8
  21038217.086    -5667855.742 7  -4373284.461 9
  22789299.063   -10867983.634 6  -8396647.540 6
  24231269.648    -2917924.853 5   -813859.611 1
  23927341.672    -3900380.572 5  -2910496.709 5
  20792314.531   -20481446.174 7 -15794878.543 9
 94  1 27  2  9 30.0000000  0  7 19 27  2 26 13 15  7
  23109004.242    12363543.746 5   9623022.981 5
  20972286.313     1310209.865 7   1047560.340 8
  21039277.570    -5662280.284 7  -4368939.936 9
  22782968.352   -10901263.055 6  -8422579.530 6
  24209294.422    -3033415.942 5   -903852.531 1
  23925355.242    -3910843.025 5  -2918649.248 5
  20785123.102   -20519233.226 7 -15824322.966 9
 94  1 27  2 10  0.0000000  0  7 19 27  2 26 13 15  7
  23125025.367    12447723.613 5   9688617.651 5
  20982699.258     1364924.504 7   1090195.121 8
  21040366.617    -5656550.214 7  -4364474.929 9
  22776729.227   -10934049.875 6  -8448127.664 6
  24187338.594    -3148802.819 5   -993764.264 1
  23923459.867    -3920802.147 5  -2926409.570 5
  20778021.719   -20556544.842 7 -15853396.923 9
 94  1 27  2 10 30.0000000  0  7 19 27  2 26 13 15  7
  23141088.992    12532135.464 5   9754393.100 5
  20993187.641     1420050.257 7   1133150.248 8
  21041486.734    -5650660.222 7  -4359885.308 9
  22770583.992   -10966334.626 6  -8473284.592 6
  24165402.789    -3264066.529 5  -1083580.000 2
  23921663.016    -3930240.167 5  -2933763.847 5
  20771018.344   -20593372.677 7 -15882093.914 9
 94  1 27  2 11  0.0000000  0  7 19 27  2 26 13 15  7
  23157200.914    12616799.849 5   9820365.339 5
  21003758.844     1475592.966 7   1176430.280 8
  21042642.023    -5644593.441 7  -4355157.943 9
  22764537.813   -10998101.007 6  -8498037.592 6
  24143499.750    -3379194.371 5  -1173289.907 1
  23919963.805    -3939146.341 5  -2940703.673 5
  20764101.359   -20629704.835 7 -15910404.660 9
 94  1 27  2 11 30.0000000  0  7 19 27  2 26 13 15  7
  23173360.398    12701729.508 5   9886544.275 5
  21014410.422     1531570.995 7   1220049.526 8
  21043830.602    -5638342.683 7  -4350287.206 9
  22758595.313   -11029343.847 6  -8522382.626 6
  24121607.719    -3494187.280 5  -1262894.628 1
  23918372.641    -3947523.166 5  -2947231.053 5
  20757280.289   -20665548.962 7 -15938335.119 9
 94  1 27  2 12  0.0000000  0  7 19 27  2 26 13 15  7
  23189572.797    12786923.927 5   9952929.505 5
  21025149.203     1587989.169 7   1264011.736 8
  21045054.828    -5631921.062 7  -4345283.334 9
  22752747.086   -11060075.217 6  -8546329.135 6
  24099755.125    -3609047.721 5  -1352396.180 2
  23916873.648    -3955375.363 5  -2953349.625 5
  20750552.617   -20700907.635 7 -15965887.308 9
 94  1 27  2 12 30.0000000  0  7 19 27  2 26 13 15  7
  23205833.938    12872386.707 5  10019523.829 5
  21035962.648     1644828.302 7   1308301.964 8
  21046309.586    -5625322.068 7  -4340141.239 9
  22746996.289   -11090296.469 6  -8569878.144 6
  24077931.117    -3723776.410 5  -1441795.014 2
  23915482.563    -3962704.976 5  -2959060.990 5
  20743919.648   -20735771.936 7 -15993054.269 9
 94  1 27  2 13  0.0000000  0  7 19 27  2 26 13 15  7
  23222144.406    12958109.673 5  10086320.915 5
  21046860.516     1702098.149 7   1352927.828 8
  21047602.914    -5618532.825 7  -4334850.907 9
  22741340.438   -11120010.029 6  -8593031.554 6
  24056114.055    -3838362.766 5  -1531082.963 1
  23914192.016    -3969503.680 5  -2964358.646 5
  20737381.688   -20770124.485 7 -16019822.462 9
 94  1 27  2 13 30.0000000  0  7 19 27  2 26 13 15  7
  23238508.422    13044073.700 5  10153305.839 5
  21057837.633     1759777.999 7   1397873.167 8
  21048926.859    -5611579.489 7  -4329432.710 9
  22735782.063   -11149225.009 6  -8615796.448 6
  24034343.852    -3952812.047 5  -1620264.124 1
  23913000.523    -3975778.574 5  -2969248.140 5
  20730936.867   -20803984.829 7 -16046207.118 9
 94  1 27  2 14  0.0000000  0  7 19 27  2 26 13 15  7
  23254912.594    13130277.831 5  10220477.850 5
  21068887.648     1817849.325 7   1443123.542 8
  21050281.383    -5604461.945 7  -4323886.552 9
  22730316.664   -11177933.296 6  -8638166.522 6
  24012588.836    -4067118.889 5  -1709334.287 1
  23911899.813    -3981525.957 5  -2973726.590 5
  20724588.008   -20837347.348 7 -16072203.865 9
 94  1 27  2 14 30.0000000  0  7 19 27  2 26 13 15  7
  23271357.953    13216730.645 5  10287843.644 5
  21080012.734     1876319.236 7   1488684.516 8
  21051666.680    -5597173.080 7  -4318206.914 9
  22724952.539   -11206129.737 6  -8660137.750 6
  23990864.633    -4181275.674 5  -1798287.530 1
  23910904.445    -3986740.517 5  -2977789.857 5
  20718332.750   -20870217.810 7 -16097817.190 9
 94  1 27  2 15  0.0000000  0  7 19 27  2 26 13 15  7
  23287862.023    13303434.403 5  10355404.982 5
  21091217.898     1935204.108 7   1534568.826 8
  21053083.414    -5589725.195 7  -4312403.357 9
  22719689.250   -11233796.209 6  -8681696.025 6
  23969179.664    -4295273.842 5  -1887117.136 1
  23910017.969    -3991415.305 5  -2981432.522 5
  20712171.922   -20902594.867 7 -16123046.047 9
 94  1 27  2 15 30.0000000  0  7 19 27  2 26 13 15  7
  23304407.438    13390389.974 5  10423162.528 5
  21102502.523     1994496.438 7   1580770.634 8
  21054530.133    -5582127.914 7  -4306483.379 9
  22714527.313   -11260916.440 6  -8702828.656 6
  23947509.133    -4409118.278 5  -1975826.977 2
  23909235.898    -3995557.232 5  -2984659.970 5
  20706105.531   -20934486.738 7 -16147896.825 9
 94  1 27  2 16  0.0000000  0  7 19 27  2 26 13 15  7
  23321001.695    13477592.469 5  10491112.488 5
  21113864.523     2054203.705 7   1627295.761 8
  21056006.805    -5574369.668 7  -4300437.982 9
  22709471.211   -11287493.255 6  -8723537.838 6
  23925870.156    -4522811.998 5  -2064419.360 2
  23908541.063    -3999171.225 5  -2987476.030 5
  20700129.625   -20965878.761 7 -16172358.123 9
 94  1 27  2 16 30.0000000  0  7 19 27  2 26 13 15  7
  23337641.891    13565034.652 5  10559249.226 5
  21125307.031     2114339.081 7   1674154.485 8
  21057514.227    -5566442.264 7  -4294260.787 9
  22704512.094   -11313527.698 6  -8743824.407 6
  23904265.820    -4636343.360 5  -2152885.259 4
  23907957.602    -4002248.075 5  -2989873.562 5
  20694256.977   -20996758.853 7 -16196420.518 9
 94  1 27  2 17  0.0000000  0  7 19 27  2 26 13 15  7
  23354329.398    13652713.242 5  10627570.166 5
  21136834.445     2174907.106 7   1721350.348 8
  21059056.961    -5558335.517 7  -4287943.832 9
  22699662.000   -11339010.636 6  -8763681.203 6
  23882694.031    -4749702.271 5  -2241216.764 4
  23907469.977    -4004779.277 5  -2991845.903 5
  20688476.672   -21027115.659 7 -16220075.145 9
 94  1 27  2 17 30.0000000  0  7 19 27  2 26 13 15  7
  23371060.875    13740636.512 5  10696081.776 5
  21148443.125     2235917.159 7   1768890.639 8
  21060638.172    -5550032.376 7  -4281473.848 9
  22694916.930   -11363959.555 6  -8783121.908 6
  23861156.828    -4862884.479 5  -2329410.537 2
  23907100.758    -4006762.783 5  -2993391.447 5
  20682798.828   -21056948.635 7 -16243321.590 9
 94  1 27  2 18  0.0000000  0  7 19 27  2 26 13 15  7
  23387835.578    13828799.431 5  10764780.133 5
  21160137.922     2297366.975 7   1816773.613 8
  21062251.016    -5541544.830 7  -4274860.165 9
  22690267.852   -11388398.314 6  -8802165.078 6
  23839654.164    -4975896.699 5  -2417471.951 2
  23906820.117    -4008207.230 5  -2994516.972 5
  20677219.625   -21086271.071 7 -16266170.222 9
 94  1 27  2 18 30.0000000  0  7 19 27  2 26 13 15  7
  23404657.352    13917199.328 5  10833663.132 5
  21171915.148     2359257.271 7   1864999.808 8
  21063902.727    -5532880.990 7  -4268109.112 9
  22685712.797   -11412330.324 6  -8820813.372 6
  23818176.664    -5088738.585 5  -2505400.573 2
  23906650.055    -4009114.296 5  -2995223.730 5
  20671731.789   -21115103.209 7 -16288636.802 9
 94  1 27  2 19  0.0000000  0  7 19 27  2 26 13 15  7
  23421528.219    14005856.193 5  10902746.380 5
  21183777.891     2421596.631 7   1913575.924 8
  21065586.375    -5524033.705 7  -4261215.107 9
  22681259.180   -11435734.578 6  -8839050.440 6
  23796743.531    -5201400.556 5  -2593189.016 2
  23906581.250    -4009476.725 5
  20666345.164   -21143434.698 7 -16310713.274 9
 94  1 27  2 19 30.0000000  0  7 19 27  2 26 13 15  7
  23438448.070    14094761.113 5  10972022.912 5
  21195719.180     2484364.830 6   1962486.196 8
  21067302.391    -5515019.599 7  -4254191.119 9
  22676899.719   -11458620.149 6  -8856883.330 6
  23775329.945    -5313892.304 5  -2680844.834 2
  23906615.195    -4009306.295 5
  20661045.586   -21171271.130 7 -16332403.978 9
 94  1 27  2 20  0.0000000  0  7 19 27  2 26 13 15  7
  23455407.930    14183895.406 5  11041478.182 5
  21207741.914     2547545.674 7   2011718.015 8
  21069045.039    -5505844.646 7  -4247041.797 9
  22672651.578   -11480970.594 6  -8874299.231 6
  23753959.539    -5426207.907 5  -2768363.392 4
  23906755.664    -4008599.292 5  -2994822.334 5
  20655845.594   -21198599.539 7 -16353698.816 9
 94  1 27  2 20 30.0000000  0  7 19 27  2 26 13 15  7
  23472409.758    14273247.617 5  11111103.246 3
  21219843.219     2611126.193 7   2061261.274 8
  21070823.539    -5496509.884 7  -4239767.946 9
  22668500.297   -11502779.869 6  -8891293.452 6
  23732621.117    -5538344.947 5  -2855742.814 2
  23906987.586    -4007355.147 5  -2993852.838 5
  20650742.258   -21225416.532 7 -16374595.147 9
 94  1 27  2 21  0.0000000  0  7 19 27  2 26 13 15  7
  23489460.211    14362839.338 5  11180914.923 5
  21232020.672     2675113.460 7   2111121.476 8
  21072627.656    -5487012.053 7  -4232367.028 9
  22664456.211   -11524028.448 6  -8907850.763 6
  23711314.430    -5650280.374 5  -2942965.132 2
  23907324.289    -4005553.391 5  -2992448.836 5
  20645745.180   -21251697.245 7 -16395073.604 9
 94  1 27  2 21 30.0000000  0  7 19 27  2 26 13 15  7
  23506549.609    14452653.123 5  11250899.663 5
  21244270.516     2739488.853 7   2161284.110 8
  21074460.578    -5477369.385 7  -4224853.246 9
  22660514.016   -11544742.337 6  -8923991.430 6
  23690051.328    -5762023.062 5  -3030037.316 1
  23907778.563    -4003205.333 5  -2990619.160 5
  20640841.367   -21277457.581 7 -16415146.571 9
 94  1 27  2 22  0.0000000  0  7 19 27  2 26 13 15  7
  23523689.297    14542694.649 5  11321061.858 4
  21256594.555     2804258.381 7   2211753.861 8
  21076329.289    -5467573.103 7  -4217219.772 9
  22656673.875   -11564926.990 6  -8939719.708 6
  23668831.266    -5873568.530 5  -3116955.767 1
  23908325.742    -4000308.377 5  -2988361.760 5
  20636033.008   -21302707.611 7 -16434821.906 9
 94  1 27  2 22 30.0000000  0  7 19 27  2 26 13 15  7
  23540866.109    14632962.763 5  11391400.615 4
  21268993.852     2869418.325 7   2262527.838 8
  21078223.266    -5457632.691 7  -4209473.978 9
  22652930.758   -11584602.626 6  -8955051.353 6
  23647638.773    -5984926.130 5  -3203727.864 2
  23908979.367    -3996874.407 5  -2985685.911 5
  20631318.508   -21327485.971 7 -16454129.706 9
 94  1 27  2 23  0.0000000  0  7 19 27  2 26 13 15  7
  23558087.281    14723477.092 5  11461931.223 3
  21281471.672     2934991.660 6   2313623.938 8
  21080145.805    -5447530.965 7  -4201602.501 9
  22649284.789   -11603755.949 6  -8969975.999 6
  23626485.797    -6096077.183 5  -3290339.007 2
  23909734.656    -3992886.895 5  -2982578.727 5
  20626694.469   -21351785.410 7 -16473064.311 9
 94  1 27  2 23 30.0000000  0  7 19 27  2 26 13 15  7
  23575355.680    14814220.535 5  11532640.387 4
  21294029.594     3000971.601 6   2365036.862 7
  21082100.102    -5437261.841 7  -4193600.574 9
  22645737.836   -11622395.591 6  -8984500.378 6
  23605378.297    -6207033.357 5  -3376798.272 3
  23910602.516    -3988359.973 5  -2979051.232 5
  20622157.688   -21375621.431 7 -16491637.817 9
 94  1 27  2 24  0.0000000  0  7 19 27  2 26 13 15  7
  23592665.688    14905195.240 5  11603529.733 4
  21306664.094     3067369.806 7   2416775.715 7
  21084085.195    -5426815.431 7  -4185460.501 9
  22642293.758   -11640501.828 6  -8998609.124 6
  23584300.391    -6317784.698 5  -3463097.950 3
  23911568.555    -3983286.320 5  -2975097.712 5
  20617714.563   -21398983.166 7 -16509841.739 9
 94  1 27  2 24 30.0000000  0  7 19 27  2 26 13 15  7
  23610023.422    14996391.549 5  11674591.764 5
  21319377.547     3134186.046 6   2468840.303 7
  21086104.758    -5416205.608 7  -4177193.099 9
  22638947.414   -11658070.179 6  -9012298.730 6
  23563258.930    -6428333.526 5  -3549239.831 4
  23912633.266    -3977670.501 5  -2970721.719 5
  20613361.164   -21421858.526 7 -16527666.682 9
 94  1 27  2 25  0.0000000  0  7 19 27  2 26 13 15  7
  23627421.898    15087817.045 5  11745832.368 4
  21332174.461     3201432.817 6   2521240.371 7
  21088156.305    -5405412.364 7  -4168782.773 9
  22635710.570   -11675085.196 6  -9025557.173 6
  23542272.148    -6538668.912 5  -3635215.344 3
  23913807.344    -3971503.388 5  -2965916.160 5
  20609108.656   -21444210.245 7 -16545083.593 9
 94  1 27  2 25 30.0000000  0  7 19 27  2 26 13 15  7
  23644860.305    15179474.113 5  11817253.452 3
  21345051.406     3269105.933 6   2573972.659 7
  21090247.180    -5394430.087 7  -4160225.151 9
  22632573.859   -11691540.152 6  -9038379.198 6
  23521310.469    -6648782.624 5  -3721018.173 1
  23915085.516    -3964779.279 5  -2960676.574 5
  20604954.766   -21466021.245 7 -16562079.157 9
 94  1 27  2 26  0.0000000  0  7 19 27  2 26 13 15  7
  23662346.563    15271346.657 5  11888842.420 4
  21358010.242     3337188.270 7   2627023.811 7
  21092366.891    -5383283.907 7  -4151539.807 9
  22629554.250   -11707454.868 6  -9050780.259 6
  23500389.742    -6758686.391 5  -3806657.413 2
  23916466.117    -3957512.857 5  -2955014.404 5
  20600908.375   -21487300.599 7 -16578660.457 9
 94  1 27  2 26 30.0000000  0  7 19 27  2 26 13 15  7
  23679869.664    15363450.374 5  11960611.520 3
  21371044.117     3405690.030 6   2680401.794 7
  21094523.008    -5371957.521 7  -4142714.041 9
  22626628.820   -11722820.397 6  -9062753.388 6
  23479528.242    -6868362.007 5  -3892118.861 4
  23917957.508    -3949688.035 5  -2948917.111 5
  20596958.313   -21508048.220 7 -16594827.422 9
 94  1 27  2 27  0.0000000  0  7 19 27  2 26 13 15  7
  23697444.609    15455780.409 5  12032556.976 2
  21384155.711     3474598.531 6   2734096.727 7
  21096714.039    -5360461.557 7  -4133756.153 9
  22623805.148   -11737646.845 6  -9074306.461 6
  23458699.898    -6977809.044 5  -3977402.192 3
  23919556.922    -3941306.424 5  -2942385.969 5
  20593108.586   -21528285.480 7 -16610596.699 9
 94  1 27  2 27 30.0000000  0  7 19 27  2 26 13 15  7
  23715049.891    15548325.564 5  12104670.046 3
  21397343.273     3543898.755 6   2788096.890 7
  21098926.648    -5348820.978 7  -4124685.563 9
  22621088.602   -11751939.367 6  -9085443.474 6
  23437912.508    -7087029.299 5  -4062508.829 2
  23921250.773    -3932373.044 5  -2935424.861 5
  20589353.711   -21548025.914 7 -16625978.839 9
 94  1 27  2 28  0.0000000  0  7 19 27  2 26 13 15  7
  23732701.891    15641077.714 5  12176944.421 4
  21410607.180     3613593.838 6   2842404.734 7
  21101170.000    -5337034.697 7  -4115501.438 9
  22618469.422   -11765697.313 6  -9096163.933 6
  23417172.008    -7196023.969 5  -4147439.673 2
  23923064.055    -3922891.694 5  -2928036.774 5
  20585687.242   -21567286.288 7 -16640986.911 9
 94  1 27  2 28 30.0000000  0  7 19 27  2 26 13 15  7
  23750389.078    15734048.308 5  12249389.007 3
  21423945.086     3683695.757 6   2897029.594 7
  21103442.203    -5325089.856 7  -4106193.773 9
  22615957.344   -11778910.073 6  -9106459.590 6
  23396477.594    -7304776.650 6  -4232181.953 3
  23924970.328    -3912848.191 5  -2920210.641 5
  20582111.109   -21586066.980 7 -16655621.206 9
 94  1 27  2 29  0.0000000  0  7 19 27  2 26 13 15  7
  23768121.813    15827221.462 5  12321991.443 2
  21437359.219     3754192.844 6   2951962.372 7
  21105740.867    -5312989.442 7  -4096764.871 9
  22613538.945   -11791588.579 6  -9116338.931 6
  23375831.516    -7413292.303 6  -4316739.533 2
  23926989.836    -3902249.913 5  -2911952.208 5
  20578635.500   -21604358.785 7 -16669874.543 9
 94  1 27  2 29 30.0000000  0  7 19 27  2 26 13 15  7
  23785893.117    15920598.775 5  12394752.967 3
  21450851.078     3825090.011 6   3007206.903 7
  21108083.977    -5300700.873 7  -4087189.361 9
  22611234.750   -11803728.591 6  -9125798.670 6
  23355226.234    -7521562.122 5  -4401105.580 3
  23929111.625    -3891090.582 5  -2903256.597 5
  20575244.883   -21622145.878 7 -16683734.596 9
 94  1 27  2 30  0.0000000  0  7 19 27  2 26 13 15  7
  23803702.141    16014157.956 5  12467656.197 4
  21464414.852     3896359.615 6   3062741.649 7
  21110452.953    -5288247.998 7  -4077485.822 9
  22609017.695   -11815374.569 6  -9134873.451 6
  23334666.836    -7629613.824 5  -4485301.647 4
  23931333.016    -3879400.726 5  -2894147.606 5
  20571953.531   -21639461.770 7 -16697227.484 9
 94  1 27  2 30 30.0000000  0  7 19 27  2 26 13 15  7
  23821537.539    16107923.178 5  12540719.994 4
  21478050.586     3968011.082 6   3118573.950 7
  21112855.313    -5275618.926 7  -4067644.983 9
  22606897.289   -11826519.067 6  -9143557.467 6
  23314145.883    -7737421.906 5  -4569307.867 4
  23933661.125    -3867157.391 5  -2884607.321 5
  20568755.078   -21656274.349 7 -16710328.180 9
 94  1 27  2 31  0.0000000  0  7 19 27  2 26 13 15  7
  23839426.477    16201902.668 5  12613950.759 5
  21491755.625     4040045.411 6   3174704.592 7
  21115295.719    -5262820.063 7
  22604867.852   -11837152.947 6  -9151843.593 6
  23293678.961    -7844985.436 5  -4653123.541 3
  23936094.211    -3854362.650 5
  20565652.852   -21672575.146 7 -16723030.089 9
 94  1 27  2 31 30.0000000  0  7 19 27  2 26 13 15  7
  23857353.867    16296121.255 5  12687367.794 4
  21505538.750     4112466.865 6   3231136.872 7
  21117760.141    -5249861.039 7  -4047573.886 9
  22602949.672   -11847265.889 6  -9159723.798 6
  23273256.516    -7952299.334 5  -4736744.713 2
  23938633.742    -3841013.933 5
  20562641.289   -21688369.773 7 -16735337.579 9
 94  1 27  2 32  0.0000000  0  7 19 27  2 26 13 15  7
  23875335.109    16390597.549 5  12760985.645 4
  21519398.961     4185294.056 6   3287885.334 7
  21120249.688    -5236755.636 7  -4037361.883 9
  22601124.180   -11856837.477 6  -9167182.165 6
  23252888.461    -8059347.542 5  -4820158.842 4
  23941284.672    -3827097.603 5        -0.32715
  20559737.852   -21703649.488 7 -16747243.846 9
 94  1 27  2 32 30.0000000  0  7 19 27  2 26 13 15  7
  23893360.234    16485333.716 4  12834806.011 4
  21533336.500     4258541.293 6   3344961.094 7
  21122773.789    -5223499.619 7  -4027032.516 9
  22599411.133   -11865838.404 6  -9174195.869 6
  23232573.102    -8166119.708 5  -4903357.867 3
  23944050.922    -3812606.443 5     11291.507 5
  20556930.781   -21718405.345 7 -16758741.899 8
 94  1 27  2 33  0.0000000  0  7 19 27  2 26 13 15  7
  23911432.000    16580307.938 4  12908811.853 3
  21547354.461     4332198.879 6   3402356.604 7
  21125321.938    -5210100.057 7  -4016591.289 9
  22597807.234   -11874282.168 6  -9180775.419 6
  23212300.383    -8272630.673 5  -4986353.361 4
  23946906.688    -3797557.780 5     23017.766 5
  20554219.430   -21732651.283 7 -16769842.607 9
 94  1 27  2 33 30.0000000  0  7 19 27  2 26 13 15  7
  23929544.336    16675495.639 4  12982984.070 3
  21561444.680     4406251.100 6   3460059.628 7
  21127903.203    -5196554.064 7  -4006035.971 9
  22596301.859   -11882180.570 6  -9186930.009 6
  23192081.945    -8378881.447 5  -5069146.127 4
  23949877.539    -3781955.084 5     35175.741 5
  20551606.555   -21746385.870 7 -16780544.874 8
 94  1 27  2 34  0.0000000  0  7 19 27  2 26 13 15  7
  23947697.578    16770872.552 4  13057303.713 3
  21575611.773     4480709.686 6   3518079.294 7
  21130510.992    -5182846.319 7  -3995354.597 9
  22594904.398   -11889524.485 6  -9192652.525 6
  23171911.461    -8484867.785 6  -5151732.837 4
  23952953.625    -3765797.268 5     47766.269 5
  20549085.930   -21759606.412 7 -16790846.586 8
 94  1 27  2 34 30.0000000  0  7 19 27  2 26 13 15  7
  23965872.859    16866425.924 4  13131760.850 3
  21589857.984     4555568.137 6   3576410.546 7
  21133156.719    -5168950.726 7  -3984526.851 9
  22593610.445   -11896318.641 6  -9197946.668 6
  23151799.992    -8590587.295 6  -5234111.608 5
  23956132.102    -3749084.338 5     60789.357 5
  20546670.320   -21772308.598 7 -16800744.386 8
 94  1 27  2 35  0.0000000  0  7 19 27  2 26 13 15  7
  23984098.648    16962159.278 5  13206358.271 3
  21604177.023     4630825.879 6   3635052.935 7
  21135839.781    -5154844.303 7  -3973534.816 9
  22592421.539   -11902561.241 6  -9202811.025 6
  23131728.109    -8696028.206 6  -5316273.311 5
  23959421.617    -3731807.893 5     74251.546 5
  20544353.961   -21784488.182 7 -16810234.953 9
 94  1 27  2 35 30.0000000  0  7 19 27  2 26 13 15  7
  24002344.195    17058066.886 5  13281091.436 2
  21618577.375     4706496.158 6   3694016.780 7
  21138562.625    -5140536.536 7  -3962385.913 9
  22591344.219   -11908239.106 6  -9207235.334 6
  23111715.703    -8801193.306 6  -5398220.104 5
  23962816.219    -3713972.830 5     88149.025 5
  20542131.961   -21796158.813 7 -16819328.940 8
 94  1 27  2 36  0.0000000  0  7 19 27  2 26 13 15  7
  24020632.992    17154147.222 5  13355959.194 2
  21633058.211     4782592.491 6   3753312.610 7
  21141318.867    -5126032.986 7  -3951084.432 9
  22590367.539   -11913358.782 6  -9211224.684 6
  23091762.289    -8906082.616 6  -5479951.986 5
  23966315.461    -3695582.225 5    102479.408 5
  20540008.148   -21807332.803 7 -16828035.933 8
 94  1 27  2 36 30.0000000  0  7 19 27  2 26 13 15  7
  24038947.508    17250422.014 5  13430978.483 3
  21647619.656     4859108.941 6   3812935.800 7
  21144118.906    -5111343.149 7  -3939637.795 9
  22589501.023   -11917929.890 6  -9214786.585 6
  23071849.438    -9010682.685 6  -5561458.508 5
  23969921.945    -3676625.814 5    117250.655 5
  20537975.258   -21818003.671 7 -16836350.884 8
 94  1 27  2 37  0.0000000  0  7 19 27  2 26 13 15  7
  24057303.180    17346895.414 5  13506152.528 3
  21662261.906     4936050.034 6   3872889.884 7
  21146942.555    -5096508.073 7  -3928077.990 9
  22588732.008   -11921953.642 6  -9217921.973 6
  23052005.180    -9114992.514 6  -5642738.841 5
  23973635.148    -3657105.448 5    132461.364 5
  20536042.586   -21828171.490 7 -16844273.849 8
 94  1 27  2 37 30.0000000  0  7 19 27  2 26 13 15  7
  24075704.680    17443563.215 5  13581478.072 2
  21676977.922     5013393.803 6   3933157.742 7
  21149784.016    -5081561.375 7  -3916431.196 9
  22588065.758   -11925446.112 6  -9220643.369 6
  23032210.461    -9219019.524 6  -5723798.811 4
  23977453.695    -3637031.387 5    148103.516 5
  20534200.945   -21837853.451 7 -16851818.218 8
 94  1 27  2 38  0.0000000  0  7 19 27  2 26 13 15  7
  24094132.703    17540422.108 4  13656952.509 3
  21691764.234     5091092.163 6   3993701.909 7
  21152650.414    -5066508.365 7  -3904701.573 9
  22587503.383   -11928429.589 6  -9222968.145 6
  23012466.063    -9322768.543 6  -5804642.178 5
  23981380.031    -3616410.966 5    164171.405 4
  20532446.242   -21847061.583 7 -16858993.378 8
 94  1 27  2 38 30.0000000  0  7 19 27  2 26 13 15  7
  24112612.078    17637494.186 5  13732593.046 2
  21706616.625     5169128.858 6   4054509.706 7
  21155534.086    -5051342.245 7  -3892883.810 9
  22587028.086   -11930895.024 6  -9224889.271 6
  22992778.031    -9426232.489 6  -5885263.397 5
  23985410.039    -3595240.417 5    180667.959 5
  20530790.047   -21855784.916 7 -16865790.768 8
 94  1 27  2 39  0.0000000  0  7 19 27  2 26 13 15  7
  24131119.172    17734797.612 4  13808413.904 2
  21721529.313     5247522.818 6   4115595.891 7
  21158451.344    -5036023.387 7  -3880947.037 9
  22586663.391   -11932813.880 6  -9226384.476 6
  22973149.273    -9529392.287 6  -5965647.614 4
  23989535.836    -3573503.623 5    197605.744 5
  20529223.391   -21864003.134 7 -16872194.569 8
 94  1 27  2 39 30.0000000  0  7 19 27  2 26 13 15  7
  24149678.313    17832316.768 4  13884402.818 2
  21736516.156     5326248.193 6   4176940.324 7
  21161400.594    -5020528.859 7  -3868873.366 9
  22586401.180   -11934210.118 6  -9227472.454 6
  22953573.672    -9632263.781 6  -6045807.175 5
  23993789.914    -3551219.352 5    214970.137 5
  20527750.695   -21871739.508 7 -16878222.901 8
 94  1 27  2 40  0.0000000  0  7 19 27  2 26 13 15  7
  24168280.797    17930052.936 4  13960560.843 1
  21751562.469     5405331.232 6   4238563.460 7
  21164385.875    -5004830.146 7  -3856640.598 9
  22586231.148   -11935081.829 6  -9228151.697 6
  22934052.023    -9734838.702 6  -6125735.661 5
  23998124.922    -3528382.551 5    232765.067 5
  20526373.508   -21878970.168 7 -16883857.171 8
 94  1 27  2 40 30.0000000  0  7 19 27  2 26 13 15  7
  24186918.805    18027998.555 4  14036882.068 1
  21766685.984     5484806.888 6   4300492.522 7
  21167412.047    -4988922.464 7  -3844244.985 9
  22586172.813   -11935416.491 6
  22914590.227    -9837106.954 6  -6205425.160 4
  24002582.070    -3504985.620 5    250996.468 5
  20525097.578   -21885684.727 7 -16889089.279 8
 94  1 27  2 41  0.0000000  0  7 19 27  2 26 13 15  7
  24205591.516    18126114.425 3  14113335.961 2
  21781886.742     5564675.696 6   4362727.929 7
  21170479.508    -4972818.411 7  -3831696.378 9
  22586207.797   -11935221.040 6
  22895192.031    -9939075.625 6  -6284881.245 5
  24007134.828    -3481039.350 5    269655.934 5
  20523910.711   -21891898.325 7 -16893931.039 8
 94  1 27  2 41 30.0000000  0  7 19 27  2 26 13 15  7
  24224286.727    18224406.170 3  14189926.930 2
  21797159.523     5644959.506 6   4425286.714 7
  21173579.789    -4956509.144 7  -3818987.850 9
  22586347.000   -11934477.246 6  -9227680.587 6
  22875846.484   -10040722.940 6  -6364086.902 5
  24011809.141    -3456524.562 5    288758.399 5
  20522830.328   -21897596.611 7 -16898371.255 9
 94  1 27  2 42  0.0000000  0  7 19 27  2 26 13 15  7
  24243026.961    18322855.517 3  14266640.692 1
  21812513.633     5725638.829 6   4488153.701 7
  21176717.750    -4940030.591 7  -3806147.415 9
  22586593.633   -11933189.645 6  -9226677.257 6
  22856562.867   -10142059.453 6  -6443050.390 5
  24016573.039    -3431455.189 5    308292.999 5
  20521843.195   -21902800.325 7 -16902426.078 8
 94  1 27  2 42 30.0000000  0  7 19 27  2 26 13 15  7
  24261798.453    18421461.614 3  14343476.612 3
  21827943.094     5806706.700 6   4551323.451 7
  21179880.930    -4923400.195 7  -3793188.661 9
  22586949.930   -11931340.811 6  -9225236.616 6
  22837334.547   -10243081.013 6  -6521768.454 5
  24021454.125    -3405829.934 5    328260.750 4
  20520941.922   -21907524.218 7 -16906107.024 8
 94  1 27  2 43  0.0000000  0  7 19 27  2 26 13 15  7
  24280588.992    18520250.916 3  14420455.252 3
  21843438.500     5888156.124 6   4614790.498 6
  21183078.711    -4906615.413 7  -3780109.596 9
  22587405.484   -11928932.671 6  -9223360.142 6
  22818174.289   -10343780.410 6  -6600235.481 5
  24026431.305    -3379644.821 5    348664.762 5
  20520130.102   -21911768.632 7 -16909414.348 8
 94  1 27  2 43 30.0000000  0  7 19 27  2 26 13 15  7
  24299431.359    18619229.013 3  14497581.031 2
  21859010.211     5969973.175 6   4678544.039 7
  21186294.125    -4889691.810 7  -3766922.378 9
  22587961.203   -11925986.738 6  -9221064.598 6
  22799073.531   -10444169.501 6  -6678460.716 5
  24031518.914    -3352914.499 5    369493.614 5
  20519414.367   -21915554.863 7 -16912364.643 8
 94  1 27  2 44  0.0000000  0  7 19 27  2 26 13 15  7
  24318296.852    18718413.277 3  14574867.405 3
  21874653.992     6052167.068 6   4742591.202 6
  21189543.852    -4872615.273 7  -3753615.971 9
  22588634.836   -11922493.332 6  -9218342.469 6
  22780028.039   -10544233.315 6  -6756432.492 5
  24036710.781    -3325627.122 5    390756.529 5
  20518782.852   -21918863.153 7 -16914942.520 8
 94  1 27  2 44 30.0000000  0  8 19 27  2 26 13 15  4  7
  24337206.937    18817797.635 3  14652309.739 2
  21890365.391     6134744.972 6   4806937.594 7
  21192826.969    -4855374.066 7  -3740181.267 9
  22589399.477   -11918452.920 6  -9215194.090 6
  22761053.820   -10643965.237 6  -6834145.641 5
  24042012.742    -3297779.202 5    412456.244 5
  24797665.820          -0.44814
  20518250.180   -21921677.339 7 -16917135.384 8
 94  1 27  2 45  0.0000000  0  8 19 27  2 26 13 15  4  7
  24356155.117    18917359.590 3  14729890.448 2
  21906146.461     6217672.134 6   4871556.141 7
  21196132.539    -4837984.573 7  -3726630.999 9
  22590264.195   -11913904.057 6  -9211649.518 6
  22742132.195   -10743382.841 6  -6911613.891 5
  24047415.063    -3269391.931 5    434576.219 4
  24779315.242      -96479.239 4
  20517804.266   -21924009.165 7 -16918952.379 8
 94  1 27  2 45 30.0000000  0  8 19 27  2 26 13 15  4  7
  24375140.750    19017091.059 3  14807603.260 3
  21921996.820     6300958.543 6   4936454.620 6
  21199474.836    -4820439.611 7  -3712959.594 9
  22591235.227   -11908828.154 6  -9207694.274 6
  22723278.445   -10842471.787 6  -6988826.027 5
  24052921.727    -3240453.584 5    457125.620 5
  24760943.531     -193028.162 3        -0.36711
  20517454.641   -21925841.987 7 -16920380.545 8
 94  1 27  2 46  0.0000000  0  8 19 27  2 26 13 15  4  7
  24394149.414    19116994.089 4  14885449.769 3
  21937914.813     6384608.603 6   5001636.446 6
  21202841.570    -4802737.014 7  -3699165.358 9
  22592301.539   -11903210.416 6  -9203316.813 6
  22704484.523   -10941218.688 6  -7065771.666 5
  24058536.836    -3210954.054 5    480112.294 5
  24742560.406     -289630.177 3    -75274.560 1
  20517205.070   -21927157.568 7 -16921405.663 8
 94  1 27  2 46 30.0000000  0  8 19 27  2 26 13 15  4  7
  24413185.258    19217055.788 3  14963419.935 2
  21953896.422     6468605.909 6   5067088.874 6
  21206237.922    -4784891.088 7  -3685259.434 9
  22593466.703   -11897066.460 6  -9198529.318 6
  22685759.273   -11039630.841 6  -7142456.429 5
  24064254.508    -3180903.930 5    503527.984 4
  24724181.016     -386280.824 3   -150586.714 2
  20517052.305   -21927978.954 7 -16922045.693 8
 94  1 27  2 47  0.0000000  0  8 19 27  2 26 13 15  4  7
  24432265.695    19317271.559 4  15041510.111 3
  21969946.836     6552952.401 6   5132813.398 6
  21209660.172    -4766905.398 7  -3671244.592 9
  22594739.313   -11890405.972 6  -9193339.321 6
  22667092.586   -11137708.903 6  -7218880.877 5
  24070077.586    -3150307.458 5    527369.431 5
  24705772.055     -482989.644 3   -225944.171 2
  20516983.469   -21928321.367 7
 94  1 27  2 47 30.0000000  0  8 19 27  2 26 13 15  4  7
  24451356.906    19417649.791 4  15119726.918 1
  21986070.531     6637670.480 6   5198827.453 7
  21213114.234    -4748761.924 7  -3657106.814 9
  22596107.711   -11883225.772 6  -9187744.360 6
  22648502.141   -11235446.100 6  -7295039.721 5
  24076006.266    -3119160.591 5    551639.743 5
  24687336.984     -579769.852 2   -301357.251 2
  20517009.906   -21928182.962 7
 94  1 27  2 48  0.0000000  0  8 19 27  2 26 13 15  4  7
  24470495.211    19518205.975 4  15198082.363 2
  22002264.727     6722776.004 6   5265143.414 6
  21216599.211    -4730430.562 7  -3642822.627 9
  22597572.398   -11875524.752 6  -9181743.561 6
  22629964.711   -11332829.155 6  -7370922.604 5
  24082028.352    -3087453.465 5    576346.624 5
  24668928.797     -676619.189 3   -376824.200 2
  20517129.352   -21927553.339 7 -16921714.007 8
 94  1 27  2 48 30.0000000  0  8 19 27  2 26 13 15  4  7
  24489662.422    19618923.963 4  15276563.874 1
  22018532.773     6808257.847 6   5331752.619 6
  21220129.031    -4711907.590 7  -3628389.132 9
  22599125.992   -11867316.884 6  -9175347.829 6
  22611502.859   -11429866.523 6
  24088167.828    -3055197.978 5    601480.795 5
  24650496.289     -773552.983 3
  20517340.750   -21926443.088 7 -16920848.866 8
 94  1 27  2 49  0.0000000  0  8 19 27  2 26 13 15  4  7
  24508858.633    19719817.825 3  15355182.482 2
  22034870.086     6894122.207 6   5398659.884 6
  21223691.734    -4693185.109 7  -3613800.173 9
  22600792.516   -11858586.509 6  -9168544.928 6
  22593103.750   -11526548.900 6  -7521873.012 5
  24094420.766    -3022387.884 5    627047.157 5
  24632015.297     -870567.515 3   -527952.666 2
  20517644.016   -21924834.131 7 -16919595.121 8
 94  1 27  2 49 30.0000000  0  8 19 27  2 26 13 15  4  7
  24528091.930    19820885.807 3  15433936.741 1
  22051280.039     6980350.070 6   5465850.396 6
  21227288.406    -4674281.242 7  -3599069.875 9
  22602551.055   -11849336.139 6  -9161336.846 6
  22574769.813   -11622885.958 6  -7596940.823 5
  24100764.305    -2989036.423 5    653035.330 5
  24613546.609     -967664.714 3   -603612.746 2
  20518044.516   -21922733.400 7 -16917958.177 8
 94  1 27  2 50  0.0000000  0  8 19 27  2 26 13 15  4  7
  24547355.359    19922134.193 3  15512831.555 1
  22067755.648     7066943.788 6   5533325.984 6
  21230917.922    -4655195.541 7  -3584197.900 9
  22604412.625   -11839540.727 6  -9153704.061 6
  22556507.469   -11718861.686 6  -7671727.087 5
  24107215.883    -2955131.015 5    679455.167 5
  24595054.898    -1064823.487 3   -679320.827 2
  20518544.094   -21920131.076 7 -16915930.378 8
 94  1 27  2 50 30.0000000  0  8 19 27  2 26 13 15  4  7
  24566658.234    20023558.321 3  15591863.303 1
  22084306.117     7153891.195 6   5601077.197 6
  21234582.539    -4635944.640 7  -3569197.199 9
  22606387.023   -11829194.986 6  -9145642.443 6
  22538310.250   -11814473.050 6  -7746229.460 5
  24113772.828    -2920671.672 5    706306.625 4
  24576543.227    -1162035.648 3   -755070.496 2
  20519128.680   -21917033.354 7 -16913516.560 8
 94  1 27  2 51  0.0000000  0  8 19 27  2 26 13 15  4  7
  24585998.484    20125151.774 4  15671027.003 1
  22100913.313     7241185.494 6   5669098.691 6
  21238271.000    -4616546.656 7  -3554081.873 9
  22608457.453   -11818313.786 6  -9137163.582 6
  22520185.039   -11909726.337 6  -7820452.780 5
  24120432.688    -2885667.807 5    733582.410 4
  24558036.766    -1259305.094 3   -830864.812 2
  20519812.328   -21913454.660 7 -16910727.956 8
 94  1 27  2 51 30.0000000  0  8 19 27  2 26 13 15  4  7
  24605354.063    20226903.729 3  15750314.214 2
  22117596.133     7328839.003 6   5737400.111 6
  21241991.891    -4596995.820 7  -3538847.446 9
  22610626.781   -11806906.751 6  -9128274.984 6
  22502127.555   -12004615.186 6  -7894392.141 5
  24127201.883    -2850116.403 5    761284.831 4
  24539523.945    -1356626.392 4   -906699.542 2
  20520583.148   -21909404.767 7 -16907572.187 8
 94  1 27  2 52  0.0000000  0  8 19 27  2 26 13 15  4  7
  24624747.672    20328790.361 4  15829706.395 2
  22134338.008     7416834.606 6   5805968.073 6
  21245742.273    -4577295.134 7  -3523496.255 9
  22612894.250   -11794988.052 6  -9118987.694 6
  22484137.641   -12099142.262 6  -7968049.587 5
  24134068.203    -2814023.955 5    789408.835 4
  24520987.250    -1454003.086 4   -982577.450 3
  20521444.828   -21904888.725 7 -16904053.182 8
 94  1 27  2 52 30.0000000  0  8 19 27  2 26 13 15  4  7
  24644150.430    20430788.837 3  15909185.694 2
  22151144.531     7505150.042 6   5874785.271 6
  21249518.313    -4557452.242 7  -3508034.248 9
  22615257.648   -11782572.071 6  -9109312.909 6
  22466217.781   -12193314.137 6  -8041430.236 5
  24141033.305    -2777400.265 5    817946.808 4
  24502446.930    -1551440.900 5  -1058502.980 2
  20522387.852   -21899915.327 7 -16900177.793 8
 94  1 27  2 53  0.0000000  0  8 19 27  2 26 13 15  4  7
  24663594.164    20532913.696 3  15988763.448 1
  22168013.961     7593806.114 6   5943867.892 6
  21253322.453    -4537455.443 7  -3492452.317 9
  22617713.555   -11769642.488 6  -9099237.899 6
  22448371.859   -12287116.828 6  -8114523.233 5
  24148108.719    -2740234.759 5    846906.971 5
  24483898.344    -1648926.565 5  -1134465.778 3
  20523426.586   -21894473.769 7 -16895937.611 8
 94  1 27  2 53 30.0000000  0  8 19 27  2 26 13 15  4  7
  24683053.398    20635186.280 3  16068456.343 1
  22184957.508     7682818.341 6   6013228.038 6
  21257161.906    -4517280.601 7  -3476731.653 9
  22620283.039   -11756169.308 6  -9088739.315 6
  22430594.523   -12380527.946 6  -8187311.082 5
  24155287.758    -2702508.206 5    876304.314 4
  24465347.063    -1746430.307 4  -1210442.666 2
  20524552.188   -21888547.876 7 -16891320.017 8
 94  1 27  2 54  0.0000000  0  8 19 27  2 26 13 15  4  7
  24702532.781    20737601.385 3  16148260.334 1
  22201955.898     7772151.573 6   6082838.321 6
  21261031.148    -4496947.736 7  -3460887.861 9
  22622954.398   -11742155.502 6  -9077819.463 6
  22412892.039   -12473564.460 6  -8259807.054 5
  24162571.383    -2664241.161 5    906122.795 5
  24446787.734    -1843964.256 4  -1286443.102 4
  20525768.188   -21882147.638 7 -16886332.807 8
 94  1 27  2 54 30.0000000  0  8 19 27  2 26 13 15  4  7
  24722059.492    20840189.604 3  16228199.180 1
  22219019.922     7861833.698 6   6152720.465 6
  21264931.055    -4476454.086 7  -3444918.780 9
  22625722.406   -11727593.261 6  -9066472.264 6
  22395261.531   -12566218.982 6  -8332005.362 6
  24169956.719    -2625429.457 5    936365.727 5
  24428217.523    -1941517.309 4  -1362458.407 1
  20527078.547   -21875275.931 7 -16880978.222 8
 94  1 27  2 55  0.0000000  0  8 19 27  2 26 13 15  4  7
  24741629.078    20942968.249 3  16308286.425 1
  22236155.984     7951875.658 6   6222882.988 6
  21268863.180    -4455798.142 7  -3428823.228 9
  22628594.250   -11712491.806 6  -9054704.901 6
  22377699.281   -12658491.442 6  -8403905.951 5
  24177449.984    -2586076.423 5    967030.467 3
  24409644.109    -2039078.498 3  -1438480.042 2
  20528474.633   -21867934.362 7 -16875257.513 8
 94  1 27  2 55 30.0000000  0  8 19 27  2 26 13 15  4  7
  24761215.836    21045940.935 2  16388524.845 1
  22253359.078     8042273.327 6   6293322.716 6
  21272826.719    -4434962.719 7  -3412587.841 9
  22631570.609   -11696852.715 6  -9042518.590 6
  22360216.352   -12750370.309 6  -8475499.851 5
  24185040.500    -2546174.238 5    998123.100 4
  24391087.891    -2136635.140 4  -1514498.169 1
  20529964.820   -21860101.830 7 -16869154.229 8
 94  1 27  2 56  0.0000000  0  8 19 27  2 26 13 15  4  7
  24780847.711    21149090.085 2  16468900.759 1
  22270622.852     8133013.712 6   6364029.478 6
  21276825.797    -4413959.132 7  -3396221.378 9
  22634644.773   -11680699.531 6  -9029931.696 6
  22342805.500   -12841863.627 6  -8546793.337 6
  24192734.484    -2505734.783 5   1029634.396 5
  24372520.930    -2234209.089 4  -1590529.736 2
  20531543.492   -21851786.972 7 -16862675.109 8
 94  1 27  2 56 30.0000000  0  8 19 27  2 26 13 15  4  7
  24800485.594    21252388.886 1  16549393.271 1
  22287957.945     8224097.426 6   6435003.773 6
  21280853.156    -4392794.972 7  -3379729.819 9
  22637811.023   -11664058.962 6  -9016965.014 6
  22325465.492   -12932976.852 6  -8617790.636 6
  24200526.125    -2464766.119 5   1061558.064 3
  24353941.063    -2331814.537 3  -1666585.888 1
  20533216.852   -21843004.767 7 -16855831.820 8
 94  1 27  2 57  0.0000000  0  8 19 27  2 26 13 15  4  7
  24820190.000    21355828.696 3  16629995.722 1
  22305350.273     8315521.445 6   6506243.235 6
  21284914.820    -4371450.296 7  -3363097.604 9
  22641068.227   -11646920.548 6  -9003610.400 6
  22308204.273   -13023694.446 6  -8688479.644 6
  24208430.383    -2423256.610 5   1093903.149 5
  24335373.141    -2429446.515 3  -1742662.732 1
  20534981.500   -21833740.121 7 -16848612.592 8
 94  1 27  2 57 30.0000000  0  8  9 27  2 26 13 15  4  7
  24760773.664          -0.17614
  22322813.391     8407286.458 6   6577748.412 6
  21289007.875    -4349916.066 7  -3346317.683 9
  22644430.070   -11629273.138 6  -8989859.162 6
  22291016.594   -13114008.573 6  -8758854.264 6
  24216429.195    -2381201.816 5   1126673.151 5
  24316776.172    -2527111.463 3  -1818765.219 2
  20536839.297   -21823991.345 7 -16841016.127 8
 94  1 27  2 58  0.0000000  0  8  9 27  2 26 13 15  4  7
  24742425.961      -96467.843 4        -0.10312
  22340342.508     8499387.525 6   6649515.449 6
  21293141.086    -4328217.974 7  -3329410.071 9
  22647877.547   -11611131.277 6  -8975722.651 6
  22273907.414   -13203935.745 6  -8828927.369 6
  24224535.523    -2338621.814 5   1159852.401 4
  24298177.813    -2624815.544 3  -1894898.172 3
  20538774.750   -21813787.956 7 -16833065.427 8
 94  1 27  2 58 30.0000000  0  8  9 27  2 26 13 15  4  7
  24724081.758     -192901.508 4    -75143.094 2
  22357937.727     8591840.068 6   6721556.370 6
  21297306.461    -4306346.091 7  -3312367.034 9
  22651430.367   -11592475.821 6  -8961185.932 6
  22256866.109   -13293461.178 6  -8898687.421 5
  24232738.938    -2295505.671 5   1193449.419 4
  24279597.789    -2722523.462 3  -1971034.152 4
  20540808.234   -21803115.647 7 -16824749.328 8
 94  1 27  2 59  0.0000000  0  8  9 27  2 26 13 15  4  7
  24705733.852     -289310.626 4   -150266.988 1
  22375591.344     8684634.439 6   6793863.637 6
  21301499.789    -4284294.092 7  -3295183.660 9
  22655079.953   -11573301.217 6  -8946244.681 6
  22239908.484   -13382583.509 6  -8968133.375 6
  24241045.188    -2251855.167 5   1227462.825 5
  24261011.156    -2820222.064 5  -2047162.860 4
  20542929.523   -21791972.483 7 -16816066.333 8
 94  1 27  2 59 30.0000000  0  8  9 27  2 26 13 15  4  7
  24687383.453     -385730.636 4   -225399.290 1
  22393309.625     8777737.297 6   6866411.323 6
  21305721.859    -4262102.523 7  -3277891.518 9
  22658821.188   -11553640.423 6  -8930924.572 6
  22223020.719   -13471327.117 6  -9037284.220 5
  24249449.344    -2207697.946 5   1261871.071 4
  24242412.094    -2917928.197 4  -2123297.468 4
  20545133.422   -21780394.337 7 -16807044.383 8
 94  1 27  3  0  0.0000000  0  8  9 27  2 26 13 15  4  7
  24669036.461     -482123.618 4   -300510.625 1
  22411091.477     8871180.177 6   6939223.928 6
  21309975.984    -4239748.909 7  -3260473.103 9
  22662655.258   -11533472.388 6  -8915209.221 6
  22206214.039   -13559657.564 6  -9106113.125 6
  24257951.023    -2163003.256 5   1296698.120 4
  24223828.023    -3015604.395 5  -2199408.732 4
  20547421.133   -21768357.724 7 -16797665.200 8
 94  1 27  3  0 30.0000000  0  8  9 27  2 26 13 15  4  7
  24650696.008     -578480.038 4   -375593.420 2
  22428935.906     8964950.079 6   7012291.354 6
  21314260.063    -4217221.332 7  -3242919.141 9
  22666593.078   -11512798.504 6  -8899099.692 6
  22189485.742   -13647568.487 6  -9174615.120 6
  24266557.336    -2117768.489 5   1331946.015 3
  24205241.867    -3113257.431 5  -2275501.956 5
  20549801.031   -21755863.639 7 -16787929.545 8
 94  1 27  3  1  0.0000000  0  8  9 27  2 26 13 15  4  7
  24632367.375     -674795.573 4   -450644.387 1
  22446837.070     9059024.632 6   7085596.167 6
  21318580.203    -4194529.146 7  -3225236.911 9
  22670618.859   -11491632.235 6  -8882606.498 6
  22172829.188   -13735066.170 6  -9242795.114 5
  24275269.688    -2072003.306 5   1367607.215 5
  24186659.648    -3210908.809 5  -2351593.890 4
  20552261.992   -21742931.451 7 -16777852.493 8
 94  1 27  3  1 30.0000000  0  8  9 27  2 26 13 15  4  7
  24614050.242     -771062.022 4   -525657.043 2
  22464801.734     9153414.429 6   7159146.626 6
  21322929.836    -4171680.974 7  -3207433.138 9
  22674739.969   -11469972.478 6  -8865728.749 6
  22156263.836   -13822146.443 6  -9310649.870 6
  24284077.813    -2025707.422 5   1403681.951 2
  24168081.570    -3308556.796 5  -2427683.181 5
  20554805.711   -21729549.707 7 -16767425.144 8
 94  1 27  3  2  0.0000000  0  8  9 27  2 26 13 15  4  7
  24595750.563     -867258.992 5   -600615.646 2
  22482825.602     9248135.373 6   7232955.138 6
  21327310.117    -4148649.069 7  -3189486.211 9
  22678965.531   -11447801.385 6  -8848452.577 6
  22139774.445   -13908797.140 6  -9378169.876 6
  24292991.977    -1978871.942 5   1440177.161 3
  24149498.758    -3406187.022 5  -2503758.649 4
  20557445.008   -21715687.450 7 -16756623.373 8
 94  1 27  3  2 30.0000000  0  8  9 27  2 26 13 15  4  7
  24577455.602     -963396.139 5   -675527.610 4
  22500907.984     9343171.744 6   7307009.439 6
  21331727.391    -4125433.206 7  -3171395.916 9
  22683276.180   -11425112.205 6  -8830772.685 6
  22123365.859   -13995024.906 6  -9445360.325 6
  24302000.305    -1931507.146 5   1477084.816 3
  24130923.656    -3503807.175 5  -2579826.242 3
  20560179.703   -21701339.111 7 -16745442.839 8
 94  1 27  3  3  0.0000000  0  8  9 27  2 26 13 15  4  7
  24559168.516    -1059493.158 4   -750408.273 2
  22519054.281     9438510.443 6   7381299.312 6
  21336179.609    -4102054.700 7
  22687694.484   -11401920.935 6
  22107034.406   -14080846.780 6  -9512234.495 6
  24311107.117    -1883633.520 5   1514388.977 4
  24112346.492    -3601443.944 5  -2655906.797 3
  20562992.961   -21686521.840 7 -16733896.906 8
 94  1 27  3  3 30.0000000  0  8  9 27  2 26 13 15  4  7
  24540893.305    -1155525.109 4   -825238.287 2
  22537258.234     9534188.028 6   7455853.256 6
  21340664.906    -4078477.752 7  -3134807.238 9
  22692204.727   -11378188.077 6  -8794208.949 6
  22090787.305   -14166228.455 6  -9578765.658 6
  24320326.180    -1835220.456 5   1552113.464 5
  24093771.266    -3699060.199 5  -2731971.404 3
  20565915.156   -21671196.542 7 -16721955.104 8
 94  1 27  3  4  0.0000000  0  8  9 27  2 26 13 15  4  7
  24522626.430    -1251512.207 4   -900033.380 2
  22555522.609     9630168.602 6   7530643.278 6
  21345182.406    -4054724.854 7  -3116298.480 9
  22696825.094   -11353933.362 6  -8775309.150 6
  22074621.703   -14251185.846 6  -9644966.191 6
  24329638.195    -1786287.586 5   1590242.985 3
  24075195.617    -3796677.669 5  -2808036.952 4
  20568916.469   -21655408.323 7 -16709652.595 8
 94  1 27  3  4 30.0000000  0  8  9 27  2 26 13 15  4  7
  24504368.914    -1347453.497 4   -974792.737 3
  22573845.539     9726445.444 6   7605664.162 6
  21349734.063    -4030810.975 7  -3097664.285 9
  22701532.742   -11329168.389 6  -8756011.765 6
  22058530.711   -14335713.104 6  -9710831.560 6
  24339045.352    -1736832.495 5   1628779.443 4
  24056623.844    -3894301.567 5  -2884107.500 3
  20572006.000   -21639182.340 7 -16697008.955 8
 94  1 27  3  5  0.0000000  0  8  9 27  2 26 13 15  4  7
  24486116.906    -1443347.854 3  -1049515.538 2
  22592221.266     9823024.580 6   7680920.601 6
  21354315.336    -4006743.842 7  -3078910.656 9
  22706343.383   -11303906.387 6  -8736327.091 6
  22042533.883   -14419804.866 6  -9776357.582 6
  24348558.969    -1686853.417 5   1667724.217 2
  24038035.500    -3991916.948 5  -2960171.436 2
  20575175.281   -21622525.048 7 -16684029.244 8
 94  1 27  3  5 30.0000000  0  8  9 27  2 26 13 15  4  7
  24467880.750    -1539203.785 4  -1124208.375 3
  22610657.172     9919890.603 6   7756400.585 6
  21358922.695    -3982547.277 7  -3060056.189 9
  22711236.727   -11278170.218 6  -8716272.930 6
  22026613.312   -14503474.302 6  -9841554.531 6
  24358169.000    -1636367.349 5   1707064.031 4
  24019463.484    -4089514.080 5  -3036221.116 2
  20578420.188   -21605451.572 7 -16670725.223 8
 94  1 27  3  6  0.0000000  0  8  9 27  2 26 13 15  4  7
  24449647.242    -1635008.684 4  -1198861.432 3
  22629143.250    10017047.052 6   7832106.878 5
  21363548.375    -3958212.907 7  -3041094.342 9
  22716221.555   -11251982.865 6  -8695867.196 6
  22010769.344   -14586720.033 6  -9906421.309 6
  24367871.719    -1585376.423 5   1746797.246 4
  24000895.188    -4187092.444 5  -3112256.225 3
  20581751.781   -21587967.510 7 -16657101.272 8
 94  1 27  3  6 30.0000000  0  8  9 27  2 26 13 15  4  7
  24431435.383    -1730737.349 5  -1273455.150 2
  22647692.922    10114526.165 6   7908064.619 5
  21368212.625    -3933700.208 7  -3021993.521 9
  22721302.516   -11225328.937 6  -8675097.916 6
  21995013.406   -14669523.912 6  -9970943.788 6
  24377675.281    -1533865.684 5   1786935.485 4
  23982338.445    -4284627.466 4  -3188257.544 3
  20585158.164   -21570048.075 7 -16643138.067 8
 94  1 27  3  7  0.0000000  0  8  9 27  2 26 13 15  4  7
  24413238.672    -1826372.979 5  -1347976.314 2
  22666304.469    10212339.375 6   7984282.670 5
  21372919.000    -3908986.774 7  -3002736.285 9
  22726456.695   -11198195.339 6  -8653954.846 6
  21979343.883   -14751878.406 6 -10035116.098 6
  24387577.031    -1481831.420 5   1827481.710 4
  23963793.430    -4382094.226 4  -3264205.646 3
  20588654.570   -21551672.017 7 -16628819.051 8
 94  1 27  3  7 30.0000000  0  8  9 27  2 26 13 15  4  7
  24395053.156    -1921916.103 5  -1422425.434 2
  22684981.953    10310469.366 6   8060747.569 5
  21377661.289    -3884072.542 7  -2983322.597 9
  22731711.688   -11170593.198 6  -8632446.689 6
  21963752.453   -14833797.709 6 -10098949.288 6
  24397579.672    -1429291.604 5   1868421.840 4
  23945255.828    -4479513.881 5  -3340117.021 4
  20592235.813   -21532855.669 7 -16614156.953 8
 94  1 27  3  8  0.0000000  0  8  9 27  2 26 13 15  4  7
  24376890.211    -2017368.778 4  -1496804.066 4
  22703717.344    10408919.434 6   8137461.888 5
  21382438.320    -3858944.888 7  -2963742.600 9
  22737060.844   -11142505.068 6  -8610559.835 6
  21948245.375   -14915269.855 6 -10162434.052 6
  24407674.367    -1376238.306 5   1909762.085 4
  23926730.563    -4576879.284 5  -3415986.156 3
  20595904.156   -21513590.764 7 -16599145.323 8
 94  1 27  3  8 30.0000000  0  8  9 27  2 26 13 15  4  7
  24358740.719    -2112748.908 5  -1571126.139 1
  22722509.211    10507687.613 5   8214424.074 5
  21387257.141    -3833627.373 7  -2944014.654 9
  22742501.125   -11113908.046 6  -8588276.442 6
  21932829.805   -14996291.274 6 -10225567.596 6
  24417863.336    -1322671.191 5   1951502.695 4
  23908207.570    -4674181.509 5  -3491806.071 3
  20599658.539   -21493868.010 7 -16583776.931 8
 94  1 27  3  9  0.0000000  0  8  9 27  2 26 13 15  4  7
  24340596.977    -2208078.546 5  -1645408.916 3
  22741359.203    10606755.632 5   8291619.915 5
  21392105.219    -3808151.277 7  -2924163.152 9
  22748030.102   -11084823.117 6  -8565612.857 6
  21917497.422   -15076873.986 6 -10288359.292 6
  24428143.359    -1268606.100 4   1993631.372 3
  23889699.094    -4771431.313 5  -3567585.137 3
  20603495.078   -21473696.195 7 -16568058.629 8
 94  1 27  3  9 30.0000000  0  8  9 27  2 26 13 15  4  7
  24322462.461    -2303359.922 4  -1719654.102 2
  22760273.305    10706136.735 6   8369059.708 5
  21396986.539    -3782512.132 7  -2904184.574 9
  22753665.383   -11055225.641 6  -8542549.887 6
  21902248.914   -15157000.824 6 -10350795.773 6
  24438533.203    -1214029.264 5   2036158.806 5
  23871207.039    -4868618.979 5  -3643315.791 5
  20607419.242   -21453065.968 7 -16551983.121 8
 94  1 27  3 10  0.0000000  0  8  9 27  2 26 13 15  4  7
  24304340.703    -2398600.962 4  -1793867.777 3
  22779240.102    10805815.461 6   8446731.434 5
  21401890.445    -3756729.213 7  -2884093.990 9
  22759395.688   -11025121.278 6  -8519091.952 6
  21887088.008   -15236675.111 6 -10412879.613 6
  24449016.508    -1158947.721 5   2079079.501 3
  23852729.141    -4965744.975 5  -3718998.382 5
  20611429.250   -21431994.217 7 -16535563.578 8
 94  1 27  3 10 30.0000000  0  8  9 27  2 26 13 15  4  7
  24286237.914    -2493769.456 4  -1868024.932 3
  22798269.352    10905800.680 6   8524641.978 5
  21406829.117    -3730781.824 7  -2863875.234 9
  22765221.289   -10994518.527 6  -8495245.645 6
  21872016.383   -15315886.432 7 -10474602.693 6
  24459599.961    -1103354.740 5   2122398.712 3
  23834259.625    -5062808.694 5  -3794632.437 4
  20615521.688   -21410483.476 7 -16518801.946 8
 94  1 27  3 11  0.0000000  0  8  9 27  2 26 13 15  4  7
  24268134.344    -2588845.737 4  -1942110.320 3
  22817350.820    11006081.156 5   8602782.587 5
  21411800.617    -3704649.083 7  -2843512.046 9
  22771136.695   -10963424.231 6  -8471016.332 6
  21857026.445   -15394631.415 6 -10535962.386 6
  24470268.852    -1047250.469 5   2166116.368 4
  23815796.633    -5159805.637 5  -3870214.463 5
  20619701.125   -21388544.296 7 -16501706.468 8
 94  1 27  3 11 30.0000000  0  8  9 27  2 26 13 15  4  7
  24250062.453    -2683831.652 4  -2016125.249 2
  22836482.820    11106624.188 5   8681127.784 5
  21416805.141    -3678353.316 7  -2823021.822 9
  22777143.414   -10931848.423 6  -8446411.802 6
  21842130.758   -15472922.033 7 -10596968.036 6
  24481043.648     -990650.811 5   2210220.011 4
  23797347.547    -5256750.485 5  -3945755.880 5
  20623951.820   -21366200.043 7 -16484295.355 8
 94  1 27  3 12  0.0000000  0  8  9 27  2 26 13 15  4  7
  24232014.203    -2778687.119 5  -2090038.503 3
  22855672.141    11207449.360 6   8759692.832 5
  21421845.633    -3651858.547 7  -2802376.555 9
  22783243.313   -10899797.629 6  -8421437.166 6
  21827323.727   -15550731.702 7 -10657598.925 6
  24491913.617     -933532.827 5   2254727.541 2
  23778912.172    -5353623.275 5  -4021241.171 4
  20628284.398   -21343429.219 7 -16466551.846 8
 94  1 27  3 12 30.0000000  0  8  9 27  2 26 13 15  4  7
  24213980.461    -2873455.276 5  -2163883.738 3
  22874909.758    11308531.015 6   8838457.719 5
  21426925.953    -3625178.025 7  -2781586.539 9
  22789428.453   -10867299.856 6  -8396114.227 6
  21812601.555   -15628087.629 6 -10717876.249 6
  24502870.563     -875927.198 5   2299615.070 3
  23760497.016    -5450450.681 5  -4096691.086 5
  20632695.266   -21320241.974 7 -16448483.864 8
 94  1 27  3 13  0.0000000  0  8  9 27  2 26 13 15  4  7
  24195962.852    -2968142.159 5  -2237665.649 4
  22894192.219    11409875.555 5   8917427.466 5
  21432037.875    -3598319.152 7  -2760657.549 9
  22795699.531   -10834337.073 6  -8370428.957 6
  21797974.109   -15704980.414 6 -10777792.671 6
  24513925.039     -817828.091 4   2344887.109 2
  23742077.281    -5547205.264 5  -4172084.252 4
  20637191.883   -21296613.987 7 -16430072.431 8
 94  1 27  3 13 30.0000000  0  8  9 27  2 26 13 15  4  7
  24177956.930    -3062759.693 5  -2311393.503 4
  22913528.656    11511494.079 5   8996610.711 5
  21437181.813    -3571287.299 7  -2739593.745 9
  22802057.289   -10800927.324 6  -8344395.391 6
  21783428.898   -15781418.088 7 -10837354.482 6
  24525081.422     -759247.177 5   2390534.581 2
  23723678.500    -5643898.575 5  -4247429.686 5
  20641770.430   -21272548.820 7 -16411320.342 8
 94  1 27  3 14  0.0000000  0  8  9 27  2 26 13 15  4  7
  24159966.219    -3157300.722 5  -2385061.786 3
  22932917.328    11613402.391 5   9076019.765 5
  21442362.242    -3544051.834 7  -2718371.303 9
  22808499.992   -10767061.802 6  -8318006.669 6
  21768970.250   -15857390.211 6 -10896553.516 6
  24536317.961     -700177.817 5   2436562.679 4
  23705299.148    -5740516.129 5  -4322716.061 5
  20646440.328   -21248027.141 7 -16392212.526 8
 94  1 27  3 14 30.0000000  0  8  9 27  2 26 13 15  4  7
  24141995.094    -3251752.020 5  -2458660.132 3
  22952371.742    11715612.024 5   9155663.604 5
  21447582.414    -3516617.234 7  -2696993.684 9
  22815037.891   -10732708.010 6  -8291237.496 6
  21754603.852   -15932885.510 7 -10955380.996 6
  24547655.305     -640612.375 5   2482977.322 4
  23686924.102    -5837034.459 5  -4397925.106 5
  20651196.359   -21223036.147 7 -16372739.015 8
 94  1 27  3 15  0.0000000  0  8  9 27  2 26 13 15  4  7
  24124036.305    -3346099.517 5  -2532177.584 4
  22971878.031    11818116.332 5   9235537.047 5
  21452835.445    -3489014.123 7  -2675484.761 9
  22821659.211   -10697895.510 6  -8264110.878 6
  21740327.180   -16007913.338 7 -11013844.224 6
  24559077.234     -580564.200 5   2529768.131 3
  23668574.086    -5933465.347 5  -4473066.042 4
  20656030.664   -21197611.951 7 -16352927.941 9
 94  1 27  3 15 30.0000000  0  8  9 27  2 26 13 15  4  7
  24106105.430    -3440321.139 5  -2605596.983 4
  22991436.477    11920909.511 5   9315635.618 5
  21458128.016    -3461219.610 7  -2653826.690 9
  22828373.406   -10662621.906 6  -8236624.956 6
  21726136.781   -16082461.659 6 -11071933.812 6
  24570591.773     -520024.556 4   2576941.918 2
  23650243.367    -6029809.624 5  -4548139.483 5
  20660947.445   -21171760.298 7 -16332783.789 9
 94  1 27  3 16  0.0000000  0  8  9 27  2 26 13 15  4  7
  24088202.773    -3534421.982 5  -2678922.233 3
  23011045.875    12023956.954 5   9395932.296 5
  21463448.430    -3433257.130 7  -2632037.734 9
  22835173.945   -10626902.780 6  -8208791.875 6
  21712040.586   -16156538.713 6 -11129656.165 6
  24582208.820     -459005.497 4   2624489.246 3
  23631924.750    -6126069.028 5  -4623146.826 5
  20665944.602   -21145501.300 7 -16312322.220 9
 94  1 27  3 16 30.0000000  0  8  9 27  2 26 13 15  4  7
  24070316.695    -3628401.605 5  -2752153.081 5
  23030706.969    12127266.355 5   9476433.118 5
  21468798.094    -3405143.475 7  -2610130.985 9
  22842056.070   -10590742.278 6  -8180614.866 6
  21698038.055   -16230138.431 7 -11187006.573 6
  24593917.313     -397504.447 5   2672412.151 2
  23613621.984    -6222229.451 5  -4698077.026 5
  20671013.352   -21118858.764 7 -16291561.794 9
 94  1 27  3 17  0.0000000  0  8  9 27  2 26 13 15  4  7
  24052456.453    -3722248.624 5  -2825280.576 3
  23050417.320    12230851.319 5   9557148.648 5
  21474180.617    -3376841.130 7  -2588077.197 9
  22849021.906   -10554131.276 6  -8152086.805 6
  21684127.219   -16303235.023 6 -11243964.932 6
  24605717.195     -335499.315 5   2720727.856 2
  23595349.305    -6318258.940 5  -4772905.173 4
  20676161.930   -21091812.165 7 -16270486.526 9
 94  1 27  3 17 30.0000000  0  8  9 27  2 26 13 15  4  7
  24034621.141    -3815998.380 5  -2898332.284 4
  23070175.617    12334679.796 5   9638053.926 5
  21479599.742    -3348361.310 7  -2565885.131 9
  22856071.203   -10517073.255 6  -8123210.436 6
  21670311.188   -16375847.259 7 -11300545.872 6
  24617605.555     -273012.635 4   2769418.749 2
  23577098.578    -6414173.225 5  -4847643.565 4
  20681390.945   -21064369.668 7 -16249102.744 9
 94  1 27  3 18  0.0000000  0  8  9 27  2 26 13 15  4  7
  24016790.461    -3909680.730 5  -2971331.452 4
  23089981.953    12438755.678 5   9719152.000 5
  21485051.461    -3319730.641 7  -2543575.503 9
  22863208.742   -10479576.489 6  -8093992.173 6
  21656583.258   -16447990.569 7 -11356761.423 6
  24629583.773     -210063.625 5   2818469.945 2
  23558870.875    -6509985.321 5  -4922302.320 5
  20686675.367   -21036552.302 7 -16227426.857 9
 94  1 27  3 18 30.0000000  0  8  9 27  2 26 13 15  4  7
  23998974.125    -4003296.303 5  -3044278.626 4
  23109837.500    12543098.311 5   9800457.939 5
  21490527.391    -3290934.861 7  -2521137.224 9
  22870427.914   -10441625.020 6  -8064419.612 6
  21642948.711   -16519656.297 7 -11412604.817 6
  24641650.297     -146647.393 4   2867885.194 2
  23540654.656    -6605692.834 5  -4996879.586 5
  20692048.281   -21008349.032 7 -16205450.278 9
 94  1 27  3 19  0.0000000  0  8  9 27  2 26 13 15  4  7
  23981182.367    -4096826.536 5  -3117159.304 4
  23129747.539    12647712.030 5   9881975.108 5
  21496042.758    -3261955.893 7  -2498556.208 9
  22877734.664   -10403208.228 6  -8034484.457 6
  21629399.047   -16590835.166 7 -11468068.860 6
  24653814.258      -82758.040 5   2917669.107 2
  23522460.336    -6701301.541 5  -5071379.866 5
  20697496.086   -20979729.117 7 -16183149.033 9
 94  1 27  3 19 30.0000000  0  8  9 27  2 26 13 15  4  7
  23963398.914    -4190250.922 5  -3189957.446 5
  23149702.875    12752614.062 5   9963716.918 5
  21501593.641    -3232795.676 7
  22885142.063   -10364320.959 6  -8004182.691 6
  21615945.672   -16661522.077 7 -11523149.542 6
  24666064.656      -18393.938 5   2967822.982 2
  23504285.070    -6796819.219 5  -5145809.216 5
  20703013.289   -20950699.104 7
 94  1 27  3 20  0.0000000  0  8  9 27  2 26 13 15  4  7
  23945644.109    -4283557.261 5  -3262663.641 3
  23169723.906    12857812.544 5  10045689.726 5
  21507175.555    -3203448.473 7  -2452965.990 9
  22892625.500   -10324980.765 6  -7973528.003 6
  21602588.563   -16731715.044 7 -11577845.348 6
  24678396.563       46443.016 5   3018345.309 2
  23486126.563    -6892236.349 5  -5220160.165 5
  20708621.086   -20921254.933 7 -16137584.714 9
 94  1 27  3 20 30.0000000  0  8  9 27  2 26 13 15  4  7
  23927914.594    -4376741.957 5  -3335275.053 3
  23189792.063    12963273.703 5  10127867.224 5
  21512791.563    -3173926.722 7  -2429962.014 9
  22900197.883   -10285211.826 6  -7942539.223 6
  21589321.688   -16801426.987 7 -11632166.323 6
  24690814.539      111736.078 4   3069223.047 3
  23467985.297    -6987554.374 5  -5294433.938 5
  20714302.742   -20891403.061 7 -16114323.494 9
 94  1 27  3 21  0.0000000  0  8  9 27  2 26 13 15  4  7
  23910204.289    -4469777.297 5  -3407770.094 4
  23209912.883    13069007.245 5  10210256.957 5
  21518450.539    -3144214.002 7  -2406809.239 9
  22907846.867   -10245004.449 6  -7911208.793 6
  21576152.266   -16870640.081 7 -11686098.576 6
  24703333.195      177499.606 4   3120467.397 2
  23449877.602    -7082751.212 5  -5368613.279 5
  20720061.797   -20861131.799 7 -16090735.492 9
 94  1 27  3 21 30.0000000  0  8  9 27  2 26 13 15  4  7
  23892531.758    -4562668.376 5  -3480152.708 4
  23230083.523    13175001.856 5  10292850.131 5
  21524135.828    -3114316.178 7  -2383512.223 9
  22915581.781   -10204357.885 6  -7879536.150 6
  21563079.563   -16939354.091 7 -11739641.933 6
  24715940.328      243730.219 4   3172075.676 3
  23431783.391    -7177819.655 5  -5442692.571 5
  20725902.375   -20830447.053 7 -16066825.281 9
 94  1 27  3 22  0.0000000  0  8  9 27  2 26 13 15  4  7
  23874883.578    -4655430.251 5  -3552434.638 4
  23250297.797    13281226.505 5  10375622.576 5
  21529859.234    -3084253.269 7  -2360086.568 9
  22923401.875   -10163277.947 6  -7847525.827 6
  21550096.906   -17007577.678 7 -11792803.160 6
  24728621.625      310415.736 3   3224038.428 3
  23413716.781    -7272763.763 5  -5516674.977 5
  20731816.094   -20799354.283 7 -16042597.138 9
 94  1 27  3 22 30.0000000  0  7  9 27  2 26 13  4  7
  23857254.922    -4748047.925 5  -3624604.205 4
  23270556.359    13387691.137 5  10458582.005 5
  21535614.523    -3054018.437 7  -2336526.953 9
  22931303.961   -10121737.473 6  -7815156.638 6
  21537211.961   -17075284.708 7 -11845561.861 6
  23395678.578    -7367559.843 5  -5590542.010 5
  20737811.063   -20767848.666 7 -16018047.308 9
 94  1 27  3 23  0.0000000  0  7  9 27  2 26 13  4  7
  23839657.555    -4840542.494 5  -3696677.859 4
  23290856.125    13494374.434 5  10541711.816 5
  21541394.703    -3023640.043 7  -2312855.470 9
  22939291.656   -10079770.812 6  -7782455.349 6
  21524420.742   -17142495.697 7 -11897934.039 6
  23377656.727    -7462232.697 5  -5664313.027 5
  20743882.813   -20735955.119 7 -15993195.180 9
 94  1 27  3 23 30.0000000  0  7  9 27  2 26 13  4  7
  23822074.203    -4932906.280 5  -3768649.603 5
  23311203.063    13601279.451 5  10625014.398 5
  21547204.961    -2993111.313 7  -2289066.846 9
  22947354.313   -10037379.899 6  -7749423.484 6
  21511730.117   -17209201.573 7 -11949912.615 6
  23359671.477    -7556769.055 5  -5737977.697 5
  20750021.992   -20703669.518 7 -15968037.552 9
 94  1 27  3 24  0.0000000  0  7  9 27  2 26 13  4  7
  23804520.570    -5025142.092 5  -3840521.616 5
  23331589.172    13708406.856 5  10708490.272 5
  21553043.453    -2962416.080 7  -2265148.467 9
  22955498.281    -9994577.029 6  -7716070.613 6
  21499130.883   -17275396.853 7 -12001493.337 6
  23341712.266    -7651152.020 5  -5811522.831 5
  20756246.813   -20670998.365 7 -15942579.510 9
 94  1 27  3 24 30.0000000  0  7  9 27  2 26 13  4  7
  23786992.055    -5117274.109 5  -3912312.752 4
  23352013.398    13815742.250 5  10792128.221 5
  21558917.852    -2931556.254 7  -2241101.849 9
  22963718.047    -9951395.214 6  -7682422.459 6
  21486626.133   -17341104.088 7 -12052693.756 6
  23323777.758    -7745399.634 5  -5884962.500 5
  20762529.367   -20637968.203 7 -15916841.709 9
 94  1 27  3 25  0.0000000  0  7  9 27  2 26 13  4  7
  23769488.453    -5209275.283 5  -3984001.963 4
  23372486.695    13923315.742 5  10875951.693 5
  21564825.578    -2900489.872 7  -2216894.266 9
  22972009.930    -9907810.043 6  -7648460.002 6
  21474220.734   -17406307.384 7 -12103501.493 6
  23305869.406    -7839508.715 5  -5958294.212 5
  20768886.531   -20604549.180 7 -15890800.898 9
 94  1 27  3 25 30.0000000  0  7  9 27  2 26 13  4  7
  23752002.563    -5301144.529 5  -4055588.326 5
  23393001.922    14031145.947 5  10959975.243 5
  21570787.094    -2869186.973 7  -2192502.386 9
  22980388.984    -9863797.924 6  -7614164.843 6
  21461910.438   -17470996.111 7 -12153908.276 6
  23287987.031    -7933469.058 5  -6031510.037 5
  20775320.711   -20570733.258 7 -15864450.820 9
 94  1 27  3 26  0.0000000  0  7  9 27  2 26 13  4  7
  23734547.625    -5392878.190 5  -4127069.086 5
  23413569.180    14139236.275 5  11044201.467 4
  21576784.297    -2837645.413 7  -2167924.549 9
  22988845.758    -9819356.307 6  -7579535.008 6
  21449696.227   -17535172.172 7 -12203915.576 6
  23270135.641    -8027287.389 5  -6104615.174 5
  20781833.406   -20536527.747 7 -15837797.165 9
 94  1 27  3 26 30.0000000  0  8  9 27  2 26 13 12  4  7
  23717123.852    -5484448.582 5  -4198422.602 5
  23434191.516    14247596.560 5  11128638.022 5
  21582833.891    -2805861.288 7  -2143157.682 9
  22997380.617    -9774474.604 5  -7544562.273 6
  21437585.023   -17598829.260 7 -12253518.479 6
  24767937.289      -88044.842 4
  23252305.992    -8120966.388 5  -6177611.742 5
  20788420.375   -20501916.730 7 -15810827.529 9
 94  1 27  3 27  0.0000000  0  8  9 27  2 26 13 12  4  7
  23699728.570    -5575845.063 5  -4269640.609 5
  23454860.023    14356218.180 5  11213278.238 4
  21588926.586    -2773848.241 7  -2118212.444 9
  23006008.320    -9729152.432 6  -7509246.309 6
  21425569.586   -17661967.598 7 -12302717.167 7
  24751180.688     -176112.690 4        -0.35111
  23234512.227    -8214497.819 5  -6250493.356 5
  20795081.914   -20466901.611 7 -15783543.010 9
 94  1 27  3 27 30.0000000  0  8  9 27  2 26 13 12  4  7
  23682366.438    -5667077.529 5  -4340730.802 5
  23475575.563    14465064.167 5  11298093.295 4
  21595055.023    -2741636.387 7  -2093112.296 9
  23014717.875    -9683409.223 6  -7473602.269 6
  21413651.195   -17724594.717 7 -12351517.498 7
  24734411.555     -264211.779 4    -68648.887 2
  23216743.680    -8307860.835 5  -6323243.725 5
  20801819.797   -20431499.385 7 -15755956.852 9
 94  1 27  3 28  0.0000000  0  8  9 27  2 26 13 12  4  7
  23665038.977    -5758139.070 5  -4411687.832 5
  23496323.430    14574113.466 5  11383066.759 4
  21601216.023    -2709252.251 7  -2067877.905 9
  23023499.758    -9637257.511 6  -7437639.902 5
  21401828.961   -17786711.251 7 -12399919.968 6
  24717644.094     -352342.771 4   -137322.320 2
  23199009.773    -8401046.329 5  -6395855.758 5
  20808631.492   -20395710.829 7 -15728069.648 9
 94  1 27  3 28 30.0000000  0  8  9 27  2 26 13 12  4  7
  23647748.148    -5849020.237 5  -4482504.289 5
  23517117.680    14683368.136 5  11468200.258 4
  21607412.922    -2676707.424 7  -2042518.294 8
  23032359.203    -9590685.211 6  -7401349.809 6
  21390108.609   -17848306.633 7 -12447916.347 6
  24700870.047     -440495.077 4   -206012.349 1
  23181315.766    -8494037.961 5  -6468316.732 5
  20815511.813   -20359519.513 7 -15699868.617 9
 94  1 27  3 29  0.0000000  0  8  9 27  2 26 13 12  4  7
  23630478.820    -5939734.764 5  -4553190.910 5
  23537939.313    14792821.633 5  11553488.697 3
  21613632.430    -2644015.215 7  -2017043.838 9
  23041299.070    -9543697.205 6  -7364735.771 6
  21378487.891   -17909375.998 7 -12495502.839 7
  24684090.117     -528663.631 4   -274715.108 1
  23163654.125    -8586827.061 5  -6540619.894 5
  20822478.773   -20322939.363 7 -15671364.600 9
 94  1 27  3 29 30.0000000  0  8  9 27  2 26 13 12  4  7
  23613257.844    -6030271.726 5  -4623739.172 5
  23558812.289    14902486.903 5  11638942.147 4
  21619884.805    -2611162.446 7  -1991444.272 8
  23050325.391    -9496288.231 6  -7327793.715 6
  21366969.633   -17969903.632 7 -12542667.214 7
  24667308.070     -616832.785 4   -343418.288 1
  23146037.039    -8679414.351 5  -6612765.792 5
  20829511.602   -20285961.686 7 -15642550.804 9
 94  1 27  3 30  0.0000000  0  8  9 27  2 26 13 12  4  7
  23596057.094    -6120645.943 5  -4694160.598 5
  23579724.703    15012368.973 5  11724564.520 4
  21626169.320    -2578154.056 7  -1965723.439 8
  23059418.180    -9448473.148 5  -7290535.227 6
  21355554.867   -18029901.341 7 -12589418.656 7
  24650532.805     -705014.160 4   -412130.984 1
  23128454.969    -8771830.429 5  -6684778.280 5
  20836617.156   -20248609.930 7 -15613445.532 9
 94  1 27  3 30 30.0000000  0  8  9 27  2 26 13 12  4  7
  23578887.133    -6210880.352 5  -4764473.115 5
  23600672.813    15122462.018 5  11810351.300 5
  21632479.336    -2544982.799 7  -1939875.703 9
  23068594.758    -9400256.082 6  -7252963.494 5
  21344237.195   -18089378.685 7 -12635764.611 6
  24633747.055     -793217.042 4   -480860.456 2
  23110899.211    -8864082.328 5  -6756662.833 5
  20843791.344   -20210911.586 7 -15584070.194 9
 94  1 27  3 31  0.0000000  0  8  9 27  2 26 13 12  4  7
  23561742.969    -6300983.206 5  -4834683.105 5
  23621663.750    15232757.742 5  11896295.983 5
  21638829.094    -2511627.560 7  -1913884.597 9
  23077846.383    -9351648.534 5  -7215087.505 6
  21333015.125   -18148339.111 7 -12681707.763 7
  24616950.570     -881444.828 4   -549609.320 1
  23093370.125    -8956177.148 5  -6828425.009 5
  20851028.055   -20172884.483 7 -15554438.670 9
 94  1 27  3 31 30.0000000  0  8  9 27  2 26 13 12  4  7
  23544619.523    -6390955.971 5  -4904791.724 5
  23642687.156    15343253.055 5  11982396.204 5
  21645211.367    -2478082.362 7  -1887745.478 9
  23087170.063    -9302655.333 5  -7176910.984 5
  21321892.297   -18206791.878 7 -12727255.350 7
  24600158.914     -969706.636 5   -618384.740 1
  23075881.836    -9048112.366 6  -6900062.792 5
  20858324.945   -20134535.065 7 -15524555.990 9
 94  1 27  3 32  0.0000000  0  8  9 27  2 26 13 12  4  7
  23527526.266    -6480769.255 5  -4974776.060 5
  23663762.953    15453984.340 5  12068680.291 5
  21651633.906    -2444314.179 7  -1861432.605 9
  23096571.805    -9253246.788 6  -7138410.848 6
  21310871.266   -18264704.434 7 -12772381.994 7
  24583361.859    -1057969.402 4   -687160.850 1
  23058417.797    -9139836.478 5  -6971536.073 5
  20865695.789   -20095837.674 7 -15494402.172 9
 94  1 27  3 32 30.0000000  0  8  9 27  2 26 13 12  4  7
  23510470.523    -6570413.736 5  -5044628.897 5
  23684881.133    15564954.436 5  12155150.478 5
  21658105.656    -2410311.642 7  -1834937.110 8
  23106051.039    -9203433.712 5  -7099595.502 6
  21299953.383   -18322074.463 7 -12817085.888 7
  24566571.336    -1146230.527 5   -755935.693 2
  23041012.133    -9231347.661 6  -7042843.458 5
  20873127.297   -20056778.969 7 -15463966.802 9
 94  1 27  3 33  0.0000000  0  8  9 27  2 26 13 12  4  7
  23493442.086    -6659885.616 5  -5114347.225 5
  23706037.555    15676160.256 4  12241804.339 4
  21664618.156    -2376091.693 7  -1808272.210 8
  23115604.953    -9153246.699 6  -7060488.742 6
  21289140.594   -18378913.175 7 -12861375.769 7
  24549776.320    -1234501.095 4   -824717.930 1
  23023633.523    -9322668.337 6  -7114002.387 6
  20880624.930   -20017366.134 7 -15433255.492 9
 94  1 27  3 33 30.0000000  0  8  9 27  2 26 13 12  4  7
  23476452.156    -6749177.911 5  -5183925.618 5
  23727246.953    15787600.407 5  12328640.825 5
  21671167.281    -2341668.549 7  -1781448.972 8
  23125216.438    -9102698.741 5  -7021100.733 6
  21278424.023   -18435225.123 7 -12905255.194 6
  24532971.289    -1322785.102 4   -893510.624 2
  23006294.242    -9413789.182 5  -7185005.613 5
  20888196.922   -19977598.276 7 -15402267.545 9
 94  1 27  3 34  0.0000000  0  8  9 27  2 26 13 12  4  7
  23459498.563    -6838269.394 5  -5253347.528 5
  23748494.336    15899279.294 5  12415663.300 5
  21677759.734    -2307028.674 7  -1754456.858 8
  23134914.016    -9051781.786 6  -6981425.200 5
  21267809.320   -18490998.499 7 -12948714.941 6
  24516175.266    -1411070.576 5   -962304.457 1
  22988989.125    -9504705.765 5  -7255849.646 5
  20895828.000   -19937458.204 7 -15370989.546 9
 94  1 27  3 34 30.0000000  0  8  9 27  2 26 13 12  4  7
  23442581.461    -6927163.926 5  -5322615.984 5
  23769784.930    16011174.351 5  12502854.218 4
  21684388.984    -2272188.769 7  -1727308.881 8
  23144666.273    -9000504.861 5  -6941469.185 5
  21257297.563   -18546244.501 7 -12991763.759 7
  24499372.453    -1499368.044 5  -1031107.671 1
  22971727.727    -9595435.536 6  -7326548.105 5
  20903541.766   -19896945.287 7 -15339421.038 9
 94  1 27  3 35  0.0000000  0  8  9 27  2 26 13 12  4  7
  23425704.813    -7015846.855 5  -5391719.532 5
  23791122.086    16123267.766 5  12590199.711 4
  21691053.359    -2237161.376 7  -1700014.804 8
  23154494.281    -8948851.807 5  -6901220.061 5
  21246885.320   -18600956.749 7 -13034396.652 7
  24482572.727    -1587670.766 5  -1099914.919 2
  22954499.672    -9685951.041 6  -7397079.629 6
  20911324.672   -19856058.435 7 -15307561.140 9
 94  1 27  3 35 30.0000000  0  8  9 27  2 26 13 12  4  7
  23408870.008    -7104315.372 5
  23812487.820    16235541.115 5  12677685.421 5
  21697759.328    -2201936.402 7  -1672566.762 8
  23164398.109    -8896809.256 6  -6860667.449 5
  21236574.688   -18655127.727 7 -13076607.778 7
  24465768.219    -1675970.784 5
  22937320.953    -9776241.650 6  -7467435.920 6
  20919174.492   -19814794.419 7 -15275407.349 9
 94  1 27  3 36  0.0000000  0  8  9 27  2 26 13 12  4  7
  23392075.742    -7192587.076 5
  23833877.148    16347970.966 5  12765293.036 5
  21704493.438    -2166539.259 7  -1644984.565 8
  23174375.344    -8844378.922 5  -6819812.664 5
  21226369.477   -18708763.508 7 -13118401.878 7
  24448961.422    -1764273.529 5
  22920181.141    -9866328.174 6  -7537633.196 5
  20927098.281   -19773170.260 7 -15242972.929 9
 94  1 27  3 36 30.0000000  0  8  9 27  2 26 13 12  4  7
  23375315.516    -7280663.204 5  -5598069.907 5
  23855303.188    16460547.658 5  12853015.115 4
  21711259.563    -2130978.856 7  -1617275.167 8
  23184428.516    -8791563.163 6  -6778657.541 5
  21216266.570   -18761859.682 7 -13159775.497 7
  24432155.406    -1852573.990 5  -1306332.922 1
  22903066.656    -9956207.657 5  -7607669.125 5
  20935082.367   -19731199.215 7 -15210268.206 9
 94  1 27  3 37  0.0000000  0  8  9 27  2 26 13 12  4  7
  23358592.367    -7368539.343 5  -5666544.796 5
  23876754.508    16573276.115 5  12940855.446 2
  21718063.828    -2095238.950 7  -1589425.881 8
  23194554.648    -8738358.314 5  -6737199.219 5
  21206267.195   -18814404.554 7 -13200719.528 7
  24415355.086    -1940859.837 5  -1375127.029 3
  22886005.586   -10045866.070 5  -7677532.805 6
  20943128.398   -19688897.109 7 -15177305.527 9
 94  1 27  3 37 30.0000000  0  8  9 27  2 26 13 12  4  7
  23341903.672    -7456242.173 5  -5734884.653 5
  23898235.875    16686154.510 5  13028812.615 3
  21724895.648    -2059329.684 7  -1561444.630 8
  23204743.922    -8684787.027 5  -6695455.365 5
  21196369.234   -18866413.477 7 -13241245.937 7
  24398555.289    -2029145.828 5  -1443921.274 3
  22868988.813   -10135324.315 6  -7747240.510 6
  20951242.977   -19646277.116 7 -15144095.125 9
 94  1 27  3 38  0.0000000  0  8  9 27  2 26 13 12  4  7
  23325250.109    -7543751.083 5  -5803073.398 5
  23919745.781    16799215.127 4  13116911.753 4
  21731761.109    -2023244.207 7  -1533326.081 8
  23215011.711    -8630846.606 5  -6653423.893 5
  21186576.570   -18917875.591 7 -13281346.270 7
  24381758.281    -2117420.560 5  -1512706.762 2
  22852008.281   -10224560.920 6  -7816775.487 6
  20959417.633   -19603314.313 7 -15110617.607 9
 94  1 27  3 38 30.0000000  0  8  9 27  2 26 13 12  4  7
  23308634.906    -7631067.723 5  -5871112.320 5
  23941293.852    16912449.944 4  13205146.645 2
  21738663.945    -1986972.709 7  -1505062.572 8
  23225337.305    -8576566.839 5  -6611127.979 5
  21176882.828   -18968805.102 7 -13321031.572 7
  24364961.273    -2205697.513 5  -1581493.969 2
  22835069.227   -10313575.211 6  -7886137.244 6
  20967654.414   -19560019.859 7 -15076881.673 9
 94  1 27  3 39  0.0000000  0  8  9 27  2 26 13 12  4  7
  23292059.289    -7718168.570 5  -5938983.103 5
  23962881.500    17025897.926 4  13293547.650 4
  21745609.094    -1950486.011 7  -1476631.380 8
  23235735.594    -8521927.835 5  -6568552.148 5
  21167297.680   -19019183.796 7 -13360287.684 7
  24348164.773    -2293957.413 5  -1650267.889 1
  22818178.883   -10402348.059 6  -7955310.864 6
  20975959.813   -19516364.079 7 -15042864.166 9
 94  1 27  3 39 30.0000000  0  8  9 27  2 26 13 12  4  7
  23275529.156    -7805049.518 5  -6006682.530 5
  23984516.906    17139564.049 4  13382118.622 2
  21752593.289    -1913780.332 7  -1448029.549 8
  23246199.438    -8466933.082 5  -6525699.115 5
  21157814.102   -19069013.241 7 -13399115.800 7
  24331370.555    -2382201.592 5
  22801327.633   -10490879.752 6
  20984342.523   -19472330.686 7 -15008552.430 9
 94  1 27  3 40  0.0000000  0  8  9 27  2 26 13 12  4  7
  23259037.367    -7891719.844 6  -6074217.836 5
  24006175.258    17253412.460 4  13470831.663 3
  21759612.664    -1876873.581 7  -1419271.031 8
  23256730.094    -8411602.962 5  -6482584.756 5
  21148436.258   -19118309.923 7 -13437528.780 7
  24314580.891    -2470445.404 5
  22784515.563   -10579189.787 6
  20992791.344   -19427956.626 7 -14973975.230 9
 94  1 27  3 40 30.0000000  0  8  9 27  2 26 13 12  4  7
  23242583.461    -7978179.105 6  -6141588.657 5
  24027878.016    17367430.557 4  13559676.900 2
  21766676.070    -1839759.496 7  -1390350.970 8
  23267325.922    -8355924.100 5  -6439198.649 6
  21139158.773   -19167066.143 7 -13475520.613 7
  24297788.750    -2558680.277 5  -1856545.377 1
  22767762.875   -10667270.038 6  -8161743.518 6
  21001291.289   -19383259.475 7 -14939146.275 9
 94  1 27  3 41  0.0000000  0  8  9 27  2 26 13 12  4  7
  23226171.680    -8064427.633 5  -6208795.299 5
  24049604.281    17481623.479 3  13648658.367 3
  21773777.773    -1802445.239 7  -1361274.930 8
  23277986.188    -8299887.717 5  -6395533.955 5
  21129981.602   -19215277.287 7 -13513087.714 7
  24281006.805    -2646900.664 5  -1925288.492 3
  22751042.742   -10755114.882 6  -8230194.004 6
  21009862.492   -19338236.318 7 -14904063.294 9
 94  1 27  3 41 30.0000000  0  8  9 27  2 26 13 12  4  7
  23209798.797    -8150453.989 5  -6275828.801 5
  24071370.922    17595979.283 4  13737766.774 4
  21780916.508    -1764925.481 7  -1332038.749 8
  23288720.906    -8243493.650 5  -6351590.522 6
  21120916.812   -19262932.115 7 -13550221.315 7
  24264222.805    -2735094.838 5  -1994011.170 2
  22734376.367   -10842701.893 6  -8298443.617 6
  21018492.250   -19292883.986 7 -14868723.805 9
 94  1 27  3 42  0.0000000  0  8  9 27  2 26 13 12  4  7
  23193470.500    -8236260.568 5  -6342691.063 5
  24093158.695    17710482.756 3  13826990.209 3
  21788093.352    -1727219.500 7  -1302657.471 8
  23299520.055    -8186755.494 5  -6307378.978 5
  21111950.125   -19310043.030 7 -13586931.101 7
  24247440.547    -2823273.946 5  -2062722.151 2
  22717759.477   -10930038.418 6  -8366498.000 6
  21027176.859   -19247233.401 7 -14833151.922 9
 94  1 27  3 42 30.0000000  0  8  9 27  2 26 13 12  4  7
  23177185.328    -8321845.212 6  -6409380.383 5
  24114975.055    17825151.122 3  13916342.166 1
  21795306.164    -1689320.779 7  -1273125.996 8
  23310385.516    -8129672.783 5  -6262898.973 5
  21103087.047   -19356610.667 7 -13623217.544 7
  24230661.859    -2911437.663 5  -2131421.149 2
  22701185.047   -11017123.162 6  -8434356.209 6
  21035920.078   -19201273.850 7 -14797339.275 9
 94  1 27  3 43  0.0000000  0  8  9 27  2 26 13 12  4  7
  23160947.359    -8407177.829 6  -6475873.311 5
  24136829.367    17940009.271 4  14005842.009 4
  21802559.633    -1651202.460 7  -1243423.412 8
  23321313.313    -8072228.577 5  -6218137.251 5
  21094333.031   -19402613.858 7 -13659064.163 6
  24213891.219    -2999563.724 5  -2200090.776 2
  22684667.719   -11103933.483 6  -8502000.579 6
  21044731.461   -19154974.817 7 -14761262.103 9
 94  1 27  3 43 30.0000000  0  8  9 27  2 26 13 12  4  7
  23144754.953    -8492269.930 5  -6542178.821 5
  24158723.422    18055038.262 4  14095474.984 3
  21809851.680    -1612878.361 7  -1213560.486 8
  23332309.711    -8014442.200 5  -6173108.928 6
  21085685.148   -19448067.065 7 -13694482.226 7
  24197131.758    -3087665.646 5  -2268741.606 4
  22668197.102   -11190490.782 6  -8569447.805 6
  21053606.688   -19108357.322 7 -14724936.775 9
 94  1 27  3 44  0.0000000  0  8  9 27  2 26 13 12  4  7
  23128609.656    -8577107.328 5  -6608285.886 5
  24180651.727    18170254.910 5  14185254.161 4
  21817189.000    -1574333.612 7  -1183525.615 8
  23343372.484    -7956298.468 5  -6127802.136 5
  21077142.852   -19492958.023 7 -13729462.163 7
  24180369.000    -3175729.925 5  -2337363.095 4
  22651776.930   -11276785.675 6  -8636690.565 6
  21062533.797   -19061408.083 7 -14688352.951 9
 94  1 27  3 44 30.0000000  0  8  9 27  2 26 13 12  4  7
  23112512.102    -8661708.966 6  -6674209.209 5
  24202602.852    18285639.365 4  14275164.068 4
  21824560.344    -1535584.719 7  -1153331.668 8
  23354502.391    -7897816.127 5  -6082231.475 5
  21068705.680   -19537297.339 7 -13764012.258 7
  24163610.250    -3263766.179 5  -2405962.781 2
  22635400.797   -11362825.238 6  -8703734.347 6
  21071535.719   -19014125.493 7 -14651509.367 9
 94  1 27  3 45  0.0000000  0  8  9 27  2 26 13 12  4  7
  23096454.430    -8746065.481 6  -6739941.566 5
  24224595.484    18401186.293 5  14365200.615 4
  21831972.508    -1496623.918 7  -1122972.602 8
  23365690.680    -7838999.992 5  -6036400.745 5
  21060375.648   -19581072.614 7 -13798122.845 7
  24146873.086    -3351760.941 5  -2474530.075 3
  22619082.883   -11448587.270 6  -8770561.881 6
  21080597.141   -18966506.281 7 -14614403.485 9
 94  1 27  3 45 30.0000000  0  8  9 27  2 26 13 12  4  7
  23080446.883    -8830213.058 6  -6805511.069 6
  24246604.758    18516854.262 5  14455331.466 2
  21839424.773    -1457484.337 7  -1092474.234 8
  23376942.945    -7779893.818 5  -5990343.998 5
  21052147.836   -19624314.405 7 -13831817.726 7
  24130127.594    -3439743.494 5  -2543087.892 3
  22602810.633   -11534100.584 6  -8837195.602 6
  21089713.172   -18918588.065 7 -14577064.614 9
 94  1 27  3 46  0.0000000  0  8  9 27  2 26 13 12  4  7
  23064475.484    -8914130.575 6  -6870901.361 6
  24268643.695    18632656.634 4  14545567.065 4
  21846911.734    -1418136.283 7  -1061813.410 8
  23388248.133    -7720476.690 5  -5944044.958 5
  21044023.742   -19666998.986 7 -13865078.418 7
  24113394.000    -3527688.814 5  -2611616.734 2
  22586594.648   -11619332.369 6  -8903609.963 6
  21098896.125   -18870343.894 7 -14539471.745 9
 94  1 27  3 46 30.0000000  0  8  9 27  2 26 13 12  4  7
  23048550.086    -8997816.267 6  -6936110.959 6
  24290700.352    18748588.130 3  14635903.243 2
  21854436.828    -1378588.178 7  -1030996.709 8
  23399612.359    -7660759.805 5  -5897512.323 5
  21036005.320   -19709128.687 7 -13897906.728 7
  24096664.992    -3615597.935 5  -2680117.324 5
  22570424.359   -11704284.635 6  -8969806.515 6
  21108137.273   -18821788.602 7 -14501636.444 9
 94  1 27  3 47  0.0000000  0  8  9 27  2 26 13 12  4  7
  23032676.695    -9081255.268 6  -7001128.359 5
  24312794.234    18864664.121 3  14726352.061 2
  21862002.422    -1338818.608 7  -1000007.438 8
  23411031.453    -7600738.237 5  -5850742.309 5
  21028094.953   -19750695.359 7 -13930296.320 7
  24079948.594    -3703461.725 5  -2748582.588 4
  22554309.289   -11788959.605 6  -9035786.987 6
  21117435.930   -18772928.297 7 -14463563.484 9
 94  1 27  3 47 30.0000000  0  8  9 27  2 26 13 12  4  7
  23016838.648    -9164451.943 6  -7065956.924 6
  24334904.578    18980884.831 3  14816913.594 3
  21869609.539    -1298834.400 7   -968850.912 8
  23422514.992    -7540408.966 5  -5803732.498 5
  21020291.125   -19791703.559 7 -13962250.741 7
  24063231.438    -3791283.067 5  -2817014.773 4
  22538243.453   -11873370.715 6  -9101561.847 6
  21126791.250   -18723764.073 7 -14425253.681 9
 94  1 27  3 48  0.0000000  0  8  9 27  2 26 13 12  4  7
  23001055.070    -9247413.396 6  -7130602.199 6
  24357052.539    19097251.314 3  14907588.733 2
  21877257.516    -1258652.500 7   -937540.349 8
  23434056.813    -7479781.474 5  -5756490.313 6
  21012591.289   -19832167.795 7 -13993781.299 7
  24046525.961    -3879075.181 5  -2885424.220 3
  22522235.195   -11957520.464 6  -9167133.055 6
  21136198.523   -18674321.033 7 -14386726.642 9
 94  1 27  3 48 30.0000000  0  8  9 27  2 26 13 12  4  7
  22985315.438    -9330110.776 6  -7195041.715 6
  24379233.945    19213789.039 3  14998397.345 1
  21884946.883    -1218252.514 7   -906059.841 8
  23445647.156    -7418838.255 5  -5709002.107 5
  21005000.055   -19872066.097 7 -14024870.865 6
  24029832.789    -3966814.789 5  -2953792.679 2
  22506274.492   -12041384.284 6  -9232481.449 6
  21145662.070   -18624587.810 7 -14347973.473 9
 94  1 27  3 49  0.0000000  0  8  9 27  2 26 13 12  4  7
  22969629.477    -9412559.736 6  -7259287.639 6
  24401432.398    19330479.095 3  15089324.649 1
  21892676.680    -1177625.446 7   -874402.393 8
  23457303.555    -7357584.124 5  -5661271.639 5
  20997512.898   -19911402.946 7 -14055522.941 6
  24013140.945    -4054504.838 5  -3022122.610 3
  22490373.063   -12124956.900 6  -9297602.947 6
  21155184.039   -18574550.659 7 -14308983.491 9
 94  1 27  3 49 30.0000000  0  8  9 27  2 26 13 12  4  7
  22953985.773    -9494766.092 6  -7323344.525 6
  24423670.930    19447315.687 3  15180366.095 1
  21900452.570    -1136774.121 7   -842570.190 8
  23469022.195    -7296010.997 5  -5613292.588 5
  20990135.430   -19950173.883 7 -14085734.045 7
  23996464.445    -4142139.365 5  -3090409.239 5
  22474535.477   -12208206.090 6  -9362472.417 6
  21164768.727   -18524195.698 7 -14269745.848 9
 94  1 27  3 50  0.0000000  0  8  9 27  2 26 13 12  4  7
  22938386.656    -9576739.186 6  -7387219.644 6
  24445926.336    19564280.628 3  15271507.566 2
  21908269.789    -1095700.721 7   -810564.950 8
  23480798.578    -7234133.531 5  -5565076.408 5
  20982862.820   -19988388.797 7 -14115511.876 7
  23979800.047    -4229726.996 5  -3158659.310 4
  22458749.844   -12291136.283 6  -9427093.306 6
  21174401.805   -18473535.715 7 -14230270.535 9
 94  1 27  3 50 30.0000000  0  8  9 27  2 26 13 12  4  7
  22922829.359    -9658480.541 6  -7450914.208 6
  24468206.805    19681350.201 3  15362730.617 1
  21916125.164    -1054412.731 7   -778392.494 8
  23492627.984    -7171962.930 5  -5516631.800 5
  20975698.258   -20026051.355 7 -14144859.301 7
  23963143.844    -4317269.807 5  -3226874.463 5
  22443022.695   -12373763.373 6  -9491478.027 6
  21184110.609   -18422550.837 7 -14190542.057 9
 94  1 27  3 51  0.0000000  0  8  9 27  2 26 13 12  4  7
  22907321.414    -9739971.452 6  -7514413.604 6
  24490502.836    19798539.091 4  15454046.628 2
  21924023.133    -1012910.984 7   -746053.474 7
  23504517.188    -7109487.370 5  -5467949.560 5
  20968638.719   -20063150.645 7 -14173767.829 7
  23946495.359    -4404754.925 5  -3295044.653 4
  22427364.016   -12456070.871 6  -9555613.705 6
  21193874.133   -18371225.779 7 -14150548.501 9
 94  1 27  3 51 30.0000000  0  8  9 27  2 26 13 12  4  7
  22891865.992    -9821211.975 6  -7577717.899 6
  24512818.430    19915842.638 3  15545451.932 1
  21931952.070     -971232.609 7   -713576.821 8
  23516460.211    -7046725.074 5  -5419043.884 5
  20961682.922   -20099704.513 7 -14202251.337 7
  23929855.352    -4492198.968 5  -3363182.852 2
  22411756.531   -12538085.256 6  -9619520.993 6
  21203698.008   -18319602.463 7 -14110322.543 9
 94  1 27  3 52  0.0000000  0  8  9 27  2 26 13 12  4  7
  22876455.883    -9902171.429 6  -7640803.176 6
  24535166.469    20033265.822 3
  21939919.555     -929371.404 7   -680957.702 7
  23528459.125    -6983674.516 5  -5369913.617 5
  20954831.078   -20135705.479 7 -14230304.021 7
  23913219.500    -4579592.633 5  -3431281.799 5
  22396205.453   -12619809.112 6  -9683201.900 6
  21213576.938   -18267688.974 7 -14069870.474 9
 94  1 27  3 52 30.0000000  0  8  9 27  2 26 13 12  4  7
  22861110.969    -9982811.977 6  -7703639.959 6
  24557536.500    20150821.117 3
  21947919.656     -887327.019 7   -648195.843 8
  23540512.578    -6920325.028 5  -5320550.404 5
  20948089.406   -20171136.705 7 -14257912.753 7
  23896606.023    -4666917.497 5  -3499327.135 4
  22380710.648   -12701212.859 6  -9746633.356 6
  21223511.844   -18215480.865 7 -14029188.824 9
 94  1 27  3 53  0.0000000  0  8  9 27  2 26 13 12  4  7
  22845825.516   -10063146.976 6  -7766238.659 6
  24579929.992    20268494.334 3        -0.12511
  21955954.938     -845106.210 7   -615296.518 8
  23552623.258    -6856688.653 5  -5270963.617 5
  20941450.055   -20206010.314 7 -14285086.973 7
  23879996.586    -4754184.116 5  -3567327.071 4
  22365285.664   -12782302.306 6  -9809819.903 6
  21233496.188   -18163019.334 7 -13988309.706 9
 94  1 27  3 53 30.0000000  0  8  9 27  2 26 13 12  4  7
  22830589.258   -10143188.361 6  -7828608.556 6
  24602346.875    20386272.796 3     91775.239 1
  21964024.477     -802690.225 7   -582245.107 7
  23564782.320    -6792770.380 5  -5221157.198 5
  20934921.031   -20240329.599 7 -14311829.251 7
  23863402.039    -4841393.803 5  -3635282.663 3
  22349913.055   -12863082.675 6  -9872765.605 6
  21243525.320   -18110306.764 7 -13947234.968 9
 94  1 27  3 54  0.0000000  0  8  9 24  2 26 13 12  4  7
  22815423.250   -10222915.966 6  -7890733.950 6
  24650474.859          -0.55813
  21972138.563     -760045.316 7   -549015.312 7
  23577004.961    -6728562.483 5  -5171125.081 5
  20928500.125   -20274075.550 7 -14338124.774 7
  23846825.227    -4928525.916 5  -3703177.817 5
  22334601.531   -12943529.124 6  -9935451.120 6
  21253611.031   -18057314.750 7 -13905942.487 9
 94  1 27  3 54 30.0000000  0  8  9 24  2 26 13 12  4  7
  22800303.711   -10302350.275 6  -7952630.834 6
  24630679.844     -104023.307 3
  21980300.773     -717176.647 7   -515611.153 8
  23589275.797    -6664081.653 5  -5120880.313 5
  20922186.141   -20307254.336 7 -14363978.358 7
  23830252.172    -5015584.640 5  -3771015.748 5
  22319353.797   -13023655.925 6  -9997887.565 6
  21263745.078   -18004042.467 7 -13864431.620 9
 94  1 27  3 55  0.0000000  0  8  9 24  2 26 13 12  4  7
  22785244.078   -10381514.818 6  -8014317.458 6
  24610895.039     -208021.513 3        -0.13012
  21988503.688     -674071.810 7   -482022.981 7
  23601592.406    -6599340.102 5  -5070432.346 5
  20915978.117   -20339872.889 7 -14389395.402 7
  23813700.656    -5102575.113 5  -3838800.533 5
  22304166.688   -13103479.321 6 -10060087.579 6
  21273936.492   -17950483.896 7 -13822697.656 9
 94  1 27  3 55 30.0000000  0  8  9 24  2 26 13 12  4  7
  22770227.656   -10460406.696 6  -8075791.660 6
  24591114.383     -311994.083 4    -81017.690 3
  21996751.352     -630728.924 7   -448249.315 7
  23613965.383    -6534331.748 5  -5019776.499 5
  20909878.594   -20371927.840 7 -14414373.268 7
  23797162.016    -5189492.376 5  -3906528.241 4
  22289027.773   -13182990.591 6 -10122044.377 6
  21284186.125   -17896631.123 7 -13780734.458 9
 94  1 27  3 56  0.0000000  0  8  9 24  2 26 13 12  4  7
  22755269.961   -10539020.089 6  -8137048.840 6
  24571327.867     -415939.051 4   -162013.759 2
  22005036.477     -587171.809 7   -414308.715 7
  23626386.266    -6469068.727 5  -4968922.221 5
  20903886.266   -20403420.381 7 -14438912.886 7
  23780635.359    -5276335.204 5  -3974197.971 5
  22273961.875   -13262180.135 6 -10183750.488 7
  21294488.859   -17842501.370 7 -13738555.425 9
 94  1 27  3 56 30.0000000  0  8  9 24  2 26 13 12  4  7
  22740364.516   -10617350.501 6  -8198085.515 6
  24551555.688     -519836.553 5   -242972.837 2
  22013363.711     -543402.780 7   -380202.976 7
  23638855.969    -6403538.237 5  -4917859.513 5
  20898001.016   -20434344.514 7 -14463009.602 6
  23764130.422    -5363095.910 5  -4041803.679 5
  22258962.836   -13341034.845 6 -10245195.687 7
  21304843.313   -17788094.471 7 -13696160.440 9
 94  1 27  3 57  0.0000000  0  8  9 24  2 26 13 12  4  7
  22725511.336   -10695395.145 6  -8258899.529 6
  24531791.656     -623702.325 5   -323907.177 4
  22021732.047     -499428.417 7   -345937.247 7
  23651375.750    -6337736.751 5  -4866585.645 5
  20892223.266   -20464707.399 7 -14486668.975 6
  23747633.945    -5449779.544 5  -4109349.345 5
  22244020.781   -13419538.459 6 -10306367.307 6
  21315246.563   -17733423.011 7 -13653559.298 9
 94  1 27  3 57 30.0000000  0  8  9 24  2 26 13 12  4  7
  22710720.148   -10773132.680 6  -8319474.218 6
  24512029.719     -727538.712 5   -404818.600 4
  22030138.078     -455253.078 7   -311514.906 7
  23663946.742    -6271658.636 5  -4815096.230 5
  20886553.164   -20494505.066 7 -14509887.921 6
  23731156.313    -5536380.270 5  -4176830.435 5
  22229151.711   -13497665.453 6 -10367245.454 7
  21325694.586   -17678505.593 7 -13610766.506 9
 94  1 27  3 58  0.0000000  0  8  9 24  2 26 13 12  4  7
  22695983.688   -10850562.654 6  -8379809.257 6
  24492273.984     -831354.019 5   -485713.604 5
  22038580.727     -410884.713 6   -276942.164 7
  23676575.461    -6205323.907 5  -4763406.851 5
  20880987.844   -20523747.822 7 -14532674.477 6
  23714689.539    -5622906.289 5  -4244253.288 4
  22214357.258   -13575431.977 6 -10427842.721 6
  21336193.141   -17623345.330 7 -13567784.472 9
 94  1 27  3 58 30.0000000  0  8  9 24  2 26 13 12  4  7
  22681311.133   -10927662.794 6  -8439887.279 6
  24472527.148     -935134.755 5   -566581.677 5
  22047069.211     -366281.176 6   -242186.175 7
  23689250.555    -6138711.495 5  -4711501.084 5
  20875532.984   -20552411.969 7 -14555010.158 7
  23698240.578    -5709331.852 5  -4311597.867 4
  22199632.500   -13652819.063 6 -10488144.315 7
  21346743.945   -17567904.525 7 -13524583.845 9
 94  1 27  3 59  0.0000000  0  8  9 24  2 26 13 12  4  7
  22666697.867   -11004464.967 6  -8499733.122 6
  24452783.922    -1038919.194 5   -647452.609 5
  22055596.922     -321465.780 7   -207265.091 7
  23701965.656    -6071860.189 5  -4659409.204 5
  20870182.648   -20580529.281 7 -14576919.742 6
  23681810.203    -5795686.623 5  -4378887.293 4
  22184965.000   -13729855.161 6 -10548172.421 7
  21357340.070   -17512218.357 7 -13481192.025 9
 94  1 27  3 59 30.0000000  0  8  9 24  2 26 13 12  4  7
  22652140.766   -11080958.346 6
  24433040.391    -1142684.137 5   -728308.353 5
  22064169.211     -276421.915 7   -172165.979 7
  23714739.750    -6004767.059 5  -4607128.841 5
  20864938.477   -20608087.547 7 -14598393.704 6
  23665391.523    -5881956.122 5  -4446110.276 4
  22170375.133   -13806542.740 6
  21367988.469   -17456273.340 7 -13437598.501 9
 94  1 27  4  0  0.0000000  0  8  9 24  2 26 13 12  4  7
  22637644.000   -11157139.833 6
  24413298.539    -1246415.994 5   -809138.328 3
  22072788.547     -231137.770 7   -136879.639 7
  23727554.734    -5937427.937 5  -4554656.803 5
  20859802.805   -20635078.891 7 -14619425.912 6
  23648991.195    -5968130.344 5  -4513258.999 5
  22155849.172   -13882887.210 6
  21378685.484   -17400033.659 7 -13393775.383 9
 94  1 27  4  0 30.0000000  0  8  9 24  2 26 13 12  4  7
  22623208.406   -11233009.445 6
  24393568.875    -1350107.982 5   -889937.279 3
  22081454.016     -185613.856 6   -101406.465 7
  23740415.742    -5869849.050 5  -4501997.935 5
  20854772.641   -20661505.902 7 -14640018.371 6
  23632611.727    -6054209.461 5  -4580333.639 5
  22141387.445   -13958875.982 6
  21389443.430   -17343503.273 7 -13349725.724 9
 94  1 27  4  1  0.0000000  0  8  9 24  2 26 13 12  4  7
  22608829.156   -11308570.418 6
  24373844.805    -1453747.638 5   -970695.383 4
  22090157.453     -139869.033 6    -65761.151 7
  23753320.039    -5802030.200 5  -4449152.104 5
  20849850.516   -20687377.552 7 -14660178.082 7
  23616249.633    -6140200.422 5  -4647339.556 4
  22126994.656   -14034511.783 6
  21400252.141   -17286700.942 7 -13305464.163 9
 94  1 27  4  1 30.0000000  0  8  9 24  2 26 13 12  4  7
  22594505.562   -11383822.288 6
  24354133.109    -1557325.313 5  -1051405.225 4
  22098903.203      -93897.228 6    -29938.977 7
  23766264.023    -5733972.891 5  -4396120.441 5
  20845034.172   -20712688.161 7 -14679900.625 6
  23599902.383    -6226095.251 5  -4714270.607 5
  22112671.906   -14109791.437 6
  21411114.820   -17229622.226 7 -13260987.241 9
 94  1 27  4  2  0.0000000  0  8  9 24  2 26 13 12  4  7
  22580250.938   -11458757.932 6
  24334430.016    -1660835.307 5  -1132062.333 3
  22107695.195      -47698.148 6      6060.309 7
  23779262.391    -5665677.244 5  -4342903.066 5
  20840325.070   -20737431.027 7 -14699180.766 6
  23583580.469    -6311884.881 5  -4781119.646 5
  22098410.508   -14184700.930 6
  21422032.555   -17172258.049 7 -13216287.882 9
 94  1 27  4  2 30.0000000  0  8  9 24  2 26 13 12  4  7
  22566047.961   -11533374.760 6
  24314759.109    -1764259.629 5  -1212652.647 3
  22116531.211       -1267.339 6     42240.148 7
  23792308.453    -5597140.796 5  -4289498.051 5
  20835726.188   -20761599.080 7 -14718012.998 7
  23567275.016    -6397559.888 5  -4847879.397 5
  22084233.461   -14259230.359 6
  21432995.727   -17114631.087 7 -13171383.754 9
 94  1 27  4  3  0.0000000  0  8  9 24  2 26 13 12  4  7
  22551906.242   -11607695.131 6
  24295093.102    -1867615.088 5  -1293189.328 3
  22125409.609       45376.518 6     78585.995 7
  23805389.594    -5528377.275 5  -4235916.140 5
  20831233.578   -20785208.174 7 -14736409.689 6
  23550993.570    -6483133.590 5  -4914560.206 5
  22070120.211   -14333399.619 6
  21444004.648   -17056772.224 7 -13126298.919 9
 94  1 27  4  3 30.0000000  0  8  9 24  2 26 13 12  4  7
  22537822.313   -11681706.695 6  -9027453.882 6
  24275426.789    -1970909.567 4  -1373678.460 4
  22134321.055       92229.227 6    115094.598 7
  23818518.891    -5459404.277 5  -4182170.948 5
  20826845.930   -20808259.858 7 -14754372.021 6
  23534725.805    -6568605.346 5  -4981161.574 5
  22056076.109   -14407214.538 6 -11075984.708 7
  21455061.938   -16998680.953 7 -13081032.996 9
 94  1 27  4  4  0.0000000  0  8  9 24  2 26 13 12  4  7
  22523802.289   -11755382.131 6  -9084863.314 6
  24255781.133    -2074110.902 4  -1454095.046 3
  22143279.992      139295.585 6    151769.668 7
  23831684.414    -5390210.652 5  -4128253.869 5
  20822567.172   -20830747.130 7 -14771894.559 7
  23518479.547    -6653965.339 5  -5047675.839 5
  22042099.234   -14480665.116 6 -11133218.904 7
  21466162.898   -16940347.175 7 -13035578.111 9
 94  1 27  4  4 30.0000000  0  8  9 24  2 26 13 12  4  7
  22509851.008   -11828706.106 6  -9141998.868 6
  24236166.297    -2177210.668 4  -1534432.464 3
  22152283.266      186593.048 6    188624.829 7
  23844896.461    -5320780.363 5  -4074152.351 5
  20818396.891   -20852664.408 7 -14788972.950 6
  23502262.953    -6739205.731 5  -5114096.917 5
  22028190.617   -14553734.946 6 -11190156.417 7
  21477305.570   -16881779.520 7 -12989940.968 9
 94  1 27  4  5  0.0000000  0  8  9 24  2 26 13 12  4  7
  22495965.852   -11901677.942 6  -9198860.039 6
  24216563.945    -2280232.947 4  -1614709.478 4
  22161319.172      234104.281 6    225646.561 7
  23858150.563    -5251121.724 5  -4019872.897 5
  20814332.156   -20874029.849 7 -14805621.338 6
  23486058.180    -6824342.280 5  -5180437.082 5
  22014355.016   -14626432.417 6 -11246803.785 7
  21488494.523   -16822983.064 7 -12944125.551 9
 94  1 27  4  5 30.0000000  0  8  9 24  2 26 13 12  4  7
  22482148.609   -11974288.357 6  -9255439.576 6
  24196972.117    -2383177.815 5  -1694926.204 4
  22170403.367      281829.544 6    262835.070 7
  23871451.695    -5181237.273 5  -3965417.499 5
  20810370.391   -20894844.418 7 -14821840.467 6
  23469882.727    -6909372.928 6  -5246694.710 5
  22000596.602   -14698759.821 6 -11303162.787 7
  21499728.203   -16763947.403 7 -12898123.736 9
 94  1 27  4  6  0.0000000  0  8  9 24  2 26 13 12  4  7
  22468396.828   -12046541.903 6  -9311741.041 6
  24177406.492    -2486047.352 5  -1775084.258 4
  22179530.117      329780.509 6    300199.448 7
  23884798.195    -5111116.848 5  -3910778.231 4
  20806516.297   -20915102.175 7 -14837625.713 7
  23453723.734    -6994289.445 6  -5312863.427 5
  21986906.078   -14770697.134 6 -11359217.805 7
  21511008.703   -16704671.934 7 -12851935.050 9
 94  1 27  4  6 30.0000000  0  8  9 24  2 26 13 12  4  7
  22454712.180   -12118455.877 6  -9367777.889 6
  24157832.430    -2588874.329 5  -1855209.112 5
  22188690.266      377950.591 6    337734.564 7
  23898185.789    -5040771.211 5  -3855963.456 4
  20802766.000   -20934804.621 7 -14852978.260 6
  23437582.273    -7079090.841 5  -5378942.421 5
  21973291.180   -14842235.149 6 -11414961.695 7
  21522335.383   -16645167.056 7 -12805567.622 9
 94  1 27  4  7  0.0000000  0  8  9 24  2 26 13 12  4  7
  22441091.016   -12190043.697 6  -9423560.612 6
  24138271.055    -2691662.783 5  -1935303.946 5
  22197900.336      426320.546 6    375425.426 7
  23911602.969    -4970225.870 5  -3800993.076 5
  20799121.680   -20953956.169 7 -14867901.539 6
  23421471.281    -7163778.777 6  -5444933.026 5
  21959754.477   -14913381.151 6 -11470400.120 7
  21533698.750   -16585434.393 7 -12759022.684 9
 94  1 27  4  7 30.0000000  0  8  9 24  2 26 13 12  4  7
  22427530.141   -12261318.899 6  -9479099.720 6
  24118719.953    -2794418.643 5  -2015373.372 5
  22207142.430      474886.409 6    413268.948 7
  23925063.391    -4899505.493 5  -3745886.300 3
  20795582.047   -20972561.987 7 -14882399.565 6
  23405371.008    -7248355.658 6  -5510837.081 5
  21946283.086   -14984135.845 6 -11525533.625 7
  21545106.461   -16525485.224 7 -12712309.058 9
 94  1 27  4  8  0.0000000  0  8  9 24  2 26 13 12  4  7
  22414025.641   -12332263.699 6  -9534381.386 6
  24099172.297    -2897124.531 5  -2095403.883 4
  22216425.125      523675.298 6    451286.240 7
  23938558.516    -4828598.416 5  -3690634.058 4
  20792149.102   -20990602.454 7 -14896457.052 7
  23389304.891    -7332799.218 6  -5576637.260 5
  21932905.602   -15054466.068 6 -11580336.377 7
  21556561.258   -16465304.147 7 -12665414.704 9
 94  1 27  4  8 30.0000000  0  8  9 24  2 26 13 12  4  7
  22400589.570   -12402873.675 6  -9589402.141 6
  24079642.641    -2999754.438 5  -2175375.174 4
  22225753.484      572690.088 6    489479.575 7
  23952082.164    -4757504.114 5  -3635235.929 5
  20788824.844   -21008078.399 7 -14910074.654 6
  23373258.227    -7417107.606 5  -5642332.099 5
  21919596.813   -15124389.012 6 -11634821.767 7
  21568055.148   -16404891.977 7 -12618340.286 9
 94  1 27  4  9  0.0000000  0  8  9 24  2 26 13 12  4  7
  22387218.922   -12473128.507 6  -9644146.162 7
  24060129.633    -3102281.469 5  -2255266.334 4
  22235120.766      621932.514 6    527850.288 7
  23965648.609    -4686221.837 5  -3579691.315 5
  20785604.836   -21024994.290 7 -14923255.855 6
  23357242.945    -7501282.179 6  -5707922.692 5
  21906367.594   -15193917.195 6 -11688999.563 7
  21579595.047   -16344251.137 7 -12571087.681 9
 94  1 27  4  9 30.0000000  0  8  9 24  2 26 13 12  4  7
  22373923.711   -12543012.008 6  -9698600.839 6
  24040642.234    -3204697.759 5  -2335071.178 4
  22244538.289      671409.577 6    566403.831 7
  23979248.539    -4614741.367 5  -3523992.248 5
  20782492.273   -21041347.883 7 -14935998.908 6
  23341252.063    -7585318.253 6  -5773405.320 5
  21893209.055   -15263044.606 6 -11742865.052 7
  21591181.633   -16283373.628 7 -12523650.661 9
 94  1 27  4 10  0.0000000  0  8  9 24  2 26 13 12  4  7
  22360695.734   -12612518.152 6  -9752761.468 6
  24021177.813    -3306981.593 5  -2414772.811 5
  22253999.039      721125.944 6    605143.854 7
  23992888.891    -4543063.782 5  -3468139.617 5
  20779487.609   -21057137.466 7 -14948302.472 6
  23325288.047    -7669211.115 6  -5838776.395 5
  21880133.180   -15331771.606 6 -11796418.536 7
  21602808.883   -16222259.629 7 -12476029.368 9
 94  1 27  4 10 30.0000000  0  8  9 24  2 26 13 12  4  7
  22347540.781   -12681645.913 6  -9806627.255 6
  24001739.688    -3409127.026 5  -2494366.602 5
  22263503.977      771078.955 6    644068.274 7
  24006562.602    -4471198.043 4  -3412140.348 5
  20776588.594   -21072371.001 7 -14960172.750 6
  23309350.859    -7752965.698 6  -5904039.705 5
  21867131.797   -15400106.822 6 -11849666.737 7
  21614481.547   -16160920.732 7 -12428232.819 9
 94  1 27  4 11  0.0000000  0  8  9 24  2 26 13 12  4  7
  22334453.703   -12750407.320 6  -9860207.557 7
  23982317.578    -3511164.362 5  -2573876.140 5
  22273056.727      821259.181 6    683169.728 7
  24020272.766    -4399171.463 5  -3356015.779 5
  20773793.117   -21087059.444 7 -14971618.271 6
  23293440.164    -7836590.170 6  -5969201.626 5
  21854208.664   -15468032.710 6 -11902595.984 7
  21626195.133   -16099370.920 7 -12380271.926 9
 94  1 27  4 11 30.0000000  0  8  9 24  2 26 13 12  4  7
  22321441.594   -12818805.946 6  -9913505.195 7
  23962923.836    -3613087.903 5  -2653297.037 4
  22282647.172      871683.193 6    722461.150 7
  24034014.438    -4326982.799 5  -3299764.892 5
  20771104.242   -21101192.090 7 -14982630.717 6
  23277550.531    -7920070.825 6  -6034251.480 5
  21841362.820   -15535528.652 6 -11955190.211 7
  21637950.688   -16037592.008 7 -12332132.518 9
 94  1 27  4 12  0.0000000  0  8  9 24  2 26 13 12  4  7
  22308493.977   -12886850.229 6  -9966526.706 7
  23943548.070    -3714892.758 5  -2732625.473 5
  22292292.602      922359.213 6    761948.945 7
  24047780.555    -4254632.370 5  -3243387.936 5
  20768520.047   -21114770.922 7 -14993211.608 6
  23261692.367    -8003406.774 6  -6099188.579 5
  21828598.883   -15602601.669 6 -12007454.874 7
  21649751.531   -15975588.745 7 -12283818.287 9
 94  1 27  4 12 30.0000000  0  8  9 24  2 26 13 12  4  7
  22295609.828   -12954534.979 6 -10019268.070 7
  23924202.258    -3816583.997 5  -2811865.355 5
  22301983.570      973280.129 6    801627.571 7
  24061581.617    -4182102.078 5  -3186870.837 5
  20766041.992   -21127793.615 7 -15003359.158 6
  23245863.633    -8086592.792 6  -6164008.832 5
  21815919.688   -15669245.241 6 -12059384.930 7
  21661591.070   -15913365.608 7 -12235332.722 9
 94  1 27  4 13  0.0000000  0  8  9 24  2 26 13 12  4  7
  22282801.555   -13021861.883 6 -10071730.577 7
  23904874.297    -3918160.844 5  -2891016.103 5
  22311710.352     1024423.429 6    841479.482 7
  24075419.508    -4109387.746 5  -3130210.345 4
  20763670.133   -21140265.715 7 -15013077.660 6
  23230062.469    -8169631.290 6  -6228714.169 5
  21803314.117   -15735465.199 6 -12110984.878 7
  21673470.578   -15850927.337 7 -12186679.525 9
 94  1 27  4 13 30.0000000  0  8  9 24  2 26 13 12  4  7
  22270060.141   -13088810.214 6 -10123898.110 7
  23885572.914    -4019596.643 5  -2970056.948 5
  22321489.289     1075795.972 6    881510.021 7
  24089291.680    -4036471.507 5  -3073392.485 4
  20761402.266   -21152184.564 7 -15022365.072 6
  23214291.266    -8252516.328 6  -6293299.899 5
  21790793.109   -15801266.871 6 -12162258.889 7
  21685397.805   -15788259.766 7 -12137847.652 9
 94  1 27  4 14  0.0000000  0  8  9 24  2 26 13 12  4  7
  22257391.625   -13155379.086 6 -10175769.960 7
  23866292.156    -4120906.743 5  -3048999.842 5
  22331309.320     1127387.194 6    921710.950 7
  24103202.875    -3963371.713 5  -3016431.627 4
  20759237.344   -21163563.382 7 -15031231.665 6
  23198543.906    -8335258.305 6  -6357774.179 5
  21778351.727   -15866655.898 6 -12213211.368 7
  21697359.633   -15725395.249 7 -12088862.314 9
 94  1 27  4 14 30.0000000  0  8  9 24  2 26 13 12  4  7
  22244803.094   -13221538.158 6 -10227322.486 7
  23847036.961    -4222079.958 5  -3127836.080 5
  22341168.172     1179202.652 6    962086.613 7
  24117148.656    -3890091.174 5  -2959329.940 4
  20757176.094   -21174394.049 7 -15039671.142 6
  23182828.633    -8417845.911 6  -6422128.140 5
  21765994.852   -15931610.825 6 -12263825.591 7
  21709360.531   -15662325.215 7 -12039716.830 9
 94  1 27  4 15  0.0000000  0  8  9 24  2 26 13 12  4  7
  22232293.180   -13287277.689 6 -10278548.090 7
  23827816.797    -4323103.020 5  -3206555.328 5
  22351071.406     1231259.974 6   1002650.751 7
  24131124.336    -3816639.848 5  -2902095.166 4
  20755219.555   -21184666.175 7 -15047675.393 6
  23167144.844    -8500265.603 6  -6486351.292 5
  21753712.430   -15996110.526 6 -12314085.078 7
  21721407.414   -15599027.122 7 -11990393.645 9
 94  1 27  4 15 30.0000000  0  8  9 24  2 26 13 12  4  7
  22219858.266   -13352621.997 6 -10329465.721 7
  23808618.219    -4424009.590 5  -3285183.763 5
  22361025.320     1283548.718 6   1043395.208 7
  24145126.109    -3743060.745 5  -2844760.801 3
  20753367.484   -21194400.606 7 -15055260.648 6
  23151487.828    -8582534.911 6  -6550457.224 5
  21741524.898   -16060163.617 6 -12363996.559 7
  21733487.688   -15535531.098 7 -11940916.227 9
 94  1 27  4 16  0.0000000  0  8  9 24  2 26 13 12  4  7
  22207498.602   -13417580.410 6 -10380082.665 7
  23789436.242    -4524801.876 5  -3363723.155 5
  22371018.875     1336075.298 6   1084325.002 7
  24159152.008    -3669347.513 5  -2787321.957 4
  20751621.539   -21203581.890 7 -15062414.883 6
  23135866.398    -8664635.267 6  -6614431.532 5
  21729426.711   -16123754.583 6 -12413547.951 7
  21745611.063   -15471833.996 7 -11891282.127 9
 94  1 27  4 16 30.0000000  0  8  9 24  2 26 13 12  4  7
  22195209.484   -13482171.122 6 -10430413.099 7
  23770278.805    -4625480.000 5  -3442173.590 5
  22381056.039     1388825.357 6   1125428.934 6
  24173204.047    -3595499.099 5  -2729777.780 5
  20749977.352   -21212217.279 7 -15069143.752 6
  23120270.844    -8746570.554 6  -6678277.200 5
  21717410.977   -16186885.696 6 -12462741.008 7
  21757771.594   -15407934.419 7 -11841490.248 9
 94  1 27  4 17  0.0000000  0  8  9 24  2 26 13 12  4  7
  22182979.148   -13546411.779 6 -10480470.746 7
  23751142.336    -4726053.725 5  -3520542.684 5
  22391135.211     1441794.644 6   1166703.693 7
  24187288.961    -3521514.315 5  -2672127.312 4
  20748436.813   -21220312.055 7 -15075451.359 6
  23104713.281    -8828343.147 6  -6741996.095 5
  21705487.234   -16249562.389 6 -12511579.971 7
  21769965.188   -15343854.235 7 -11791557.630 9
 94  1 27  4 17 30.0000000  0  8  9 24  2 26 13 12  4  7
  22170829.742   -13610277.312 6 -10530236.100 7
  23732022.688    -4826505.569 5  -3598816.820 5
  22401263.219     1494996.696 6   1208159.826 6
  24201396.539    -3447379.860 5  -2614360.225 5
  20747000.789   -21227856.731 7 -15081330.320 6
  23089184.227    -8909939.937 6  -6805578.010 6
  21693642.336   -16311787.570 6 -12560067.119 7
  21782193.266   -15279593.685 7 -11741484.475 9
 94  1 27  4 18  0.0000000  0  8  9 24  2 26 13 12  4  7
  22158748.539   -13673764.527 6 -10579706.667 7
  23712934.234    -4926825.200 5  -3676987.915 5
  22411430.039     1548419.791 6   1249788.203 6
  24215525.219    -3373096.226 4  -2556476.863 4
  20745668.422   -21234860.757 7 -15086787.991 6
  23073694.953    -8991367.094 6  -6869027.741 6
  21681881.172   -16373581.565 6 -12608218.272 8
  21794455.758   -15215149.698 7 -11691268.385 9
 94  1 27  4 18 30.0000000  0  8  9 24  2 26 13 12  4  7
  22146744.492   -13736838.603 6 -10628855.288 7
  23693876.586    -5026986.083 5  -3755035.294 5
  22421635.953     1602064.451 6   1291589.219 6
  24229693.227    -3298665.395 4  -2498478.858 4
  20744438.344   -21241323.168 7 -15091823.627 6
  23058227.867    -9072620.418 6  -6932342.014 6
  21670203.383   -16434947.758 6 -12656036.062 8
  21806752.063   -15150526.628 7 -11640912.747 9
 94  1 27  4 19  0.0000000  0  8  9 24  2 26 13 12  4  7
  22134823.586   -13799481.010 6 -10677667.543 7
  23674839.164    -5126982.672 5  -3832954.661 5
  22431887.734     1655933.730 6   1333565.266 6
  24243882.023    -3224094.732 4  -2440371.897 4
  20743312.773   -21247242.836 7 -15096436.341 6
  23042801.781    -9153695.255 6  -6995517.205 6
  21658612.570   -16495887.612 6 -12703521.643 8
  21819083.172   -15085715.674 7 -11590410.711 9
 94  1 27  4 19 30.0000000  0  8  9 24  2 26 13 12  4  7
  22122983.664   -13861684.489 6 -10726137.787 7
  23655850.336    -5226800.337 5  -3910734.616 5
  22442177.961     1710026.751 6   1375715.656 6
  24258098.875    -3149388.576 4  -2382159.315 5
  20742289.742   -21252618.315 7 -15100625.020 6
  23027409.258    -9234586.764 6  -7058549.552 6
  21647099.344   -16556393.566 6 -12750669.134 8
  21831459.648   -15020692.283 7 -11539743.135 9
 94  1 27  4 20  0.0010000  0  8  9 24  2 26 13 12  4  7
  22111229.614   -13923469.629 6 -10774282.050 7
  23636891.825    -5326444.994 5  -3988379.775 5
  22452515.442     1764335.556 6   1418034.196 6
  24272336.856    -3074547.679 4  -2323841.761 4
  20741369.130   -21257458.936 7 -15104396.928 6
  23012047.583    -9315303.450 6  -7121445.657 6
  21635670.724   -16616459.546 6 -12797473.782 8
  21843872.278   -14955457.836 7 -11488911.102 9
 94  1 27  4 20 30.0010000  0  8  9 24  2 26 13 12  4  7
  22099553.052   -13984817.725 6 -10822085.765 7
  23617961.263    -5425901.018 5  -4065877.941 5
  22462893.544     1818885.953 6   1460540.983 6
  24286607.278    -2999565.688 4  -2265414.283 4
  20740550.177   -21261744.208 7 -15107736.090 6
  22996729.724    -9395816.066 6  -7184182.777 6
  21624329.341   -16676035.549 6 -12843896.631 8
  21856330.458   -14890001.509 7 -11437906.172 9
 94  1 27  4 21  0.0010000  0  8  9 24  2 26 13 12  4  7
  22087957.005   -14045765.324 6 -10869577.392 7
  23599073.302    -5525196.777 5  -4143251.215 5
  22473320.302     1873676.655 6   1503235.015 6
  24300902.560    -2924459.804 3  -2206890.258 5
  20739841.302   -21265489.152 7 -15110654.223 6
  22981440.786    -9476138.957 6  -7246772.026 6
  21613086.325   -16735121.406 6 -12889937.552 8
  21868826.341   -14824327.871 7 -11386731.918 9
 94  1 27  4 21 30.0010000  0  8  9 24  2 26 13 12  4  7
  22076432.786   -14106330.266 6 -10916770.873 7
  23580203.544    -5624338.842 5  -4220504.729 5
  22483791.981     1928707.465 6   1546116.152 6
  24315209.481    -2849246.247 3  -2148282.326 3
  20739228.255   -21268700.679 7 -15113156.701 6
  22966192.755    -9556275.414 6  -7309216.025 6
  21601932.442   -16793732.445 6 -12935608.478 8
  21881360.888   -14758462.543 7 -11335408.283 8
 94  1 27  4 22  0.0010000  0  8  9 24  2 26 13 12  4  7
  22064981.435   -14166503.859 6 -10963659.387 7
  23561368.036    -5723322.296 5  -4297634.639 5
  22494316.138     1983999.745 6   1589201.022 6
  24329552.739    -2773924.693 5  -2089590.227 3
  20738719.349   -21271367.933 7 -15115235.069 6
  22950984.239    -9636210.768 6  -7371503.310 6
  21590874.739   -16851858.221 6 -12980901.284 8
  21893932.083   -14692410.160 7 -11283938.896 9
 94  1 27  4 22 30.0010000  0  8  9 24  2 26 13 12  4  7
  22053601.677   -14226292.756 6 -11010248.146 7
  23542559.396    -5822162.112 5  -4374652.653 5
  22504883.864     2039543.556 6   1632481.896 6
  24343895.606    -2698517.357 4  -2030831.302 4
  20738312.810   -21273502.028 7 -15116897.994 6
  22935806.138    -9715952.786 6  -7433639.940 6
  21579900.442   -16909518.148 6 -13025831.077 8
  21906531.317   -14626194.433 7 -11232342.223 9
 94  1 27  4 23  0.0010000  0  8  9 24  2 26 13 12  4  7
  22042303.872   -14285675.094 6 -11056520.088 7
  23523788.208    -5920830.165 5  -4451536.823 5
  22515502.349     2095336.998 6   1675957.287 6
  24358263.466    -2623010.232 4  -1971994.576 3
  20738013.669   -21275093.858 7 -15118138.374 6
  22920673.724    -9795488.711 6  -7495615.981 6
  21569016.630   -16966720.826 6 -13070404.585 8
  21919162.505   -14559810.270 7 -11180614.307 8
 94  1 27  4 23 30.0010000  0  8  9 24  2 26 13 12  4  7
  22031080.911   -14344648.085 6 -11102473.071 7
  23505029.622    -6019330.731 5  -4528290.481 5
  22526165.864     2151370.336 6   1719619.601 6
  24372651.021    -2547403.333 5  -1913080.111 3
  20737808.372   -21276152.171 7 -15118963.030 6
  22905572.474    -9874823.627 6  -7557435.401 6
  21558218.153   -17023467.831 6 -13114623.020 8
  21931825.333   -14493265.054 7 -11128760.901 8
 94  1 27  4 24  0.0010000  0  8  9 24  2 26 13 12  4  7
  22019941.638   -14403195.328 6 -11148094.297 7
  23486328.317    -6117658.826 5  -4604909.746 6
  22536875.130     2207640.801 6   1763466.702 6
  24387062.622    -2471680.515 4  -1854075.350 4
  20737711.927   -21276678.872 7
  22890514.763    -9953955.938 6  -7619096.941 6
  21547510.114   -17079740.232 6 -13158471.634 8
  21944522.231   -14426552.047 7 -11076776.738 8
 94  1 27  4 24 30.0010000  0  8  9 24  2 26 13 12  4  7
  22008883.677   -14461288.685 6 -11193361.853 7
  23467651.411    -6215800.843 5  -4681383.998 5
  22547624.411     2264145.665 6   1807496.440 6
  24401497.864    -2395821.667 4  -1794964.551 2
  20737712.786   -21276669.193 7
  22875497.981   -10032877.209 6  -7680594.028 6
  21536896.419   -17135521.485 6 -13201937.531 8
  21957249.130   -14359667.145 7 -11024658.631 8
 94  1 27  4 25  0.0010000  0  8  9 24  2 26 13 12  4  7
  21997919.036   -14518916.670 6 -11238266.771 7
  23449009.489    -6313745.761 5  -4757704.689 6
  22558424.981     2320901.440 6   1851721.701 6
  24415966.794    -2319818.050 5  -1735741.000 3
  20737817.786   -21276119.218 7
  22860519.888   -10111579.667 6  -7741920.620 6
  21526373.528   -17190800.244 6 -13245011.875 8
  21970012.481   -14292592.744 6 -10972392.867 8
 94  1 27  4 25 30.0010000  0  8  9 24  2 26 13 12  4  7
  21987038.521   -14576105.168 6 -11282829.241 7
  23430406.372    -6411515.081 5  -4833888.545 5
  22569271.013     2377897.347 6   1896134.075 6
  24430451.614    -2243698.244 4  -1676426.863 2
  20738018.435   -21275052.142 7 -15118105.827 6
  22845584.669   -10190082.670 6  -7803091.783 6
  21515951.317   -17245582.454 6 -13287699.284 8
  21982806.450   -14225353.268 7 -10919998.473 8
 94  1 27  4 26  0.0010000  0  8  9 24  2 26 13 12  4  7
  21976241.442   -14632831.519 6 -11327031.609 7
  23411837.231    -6509083.005 5  -4909915.479 5
  22580165.997     2435146.580 6   1940743.861 6
  24444943.911    -2167458.493 3  -1617019.292 2
  20738323.810   -21273452.249 7 -15116859.143 6
  22830681.919   -10268367.014 6  -7864092.585 6
  21505622.099   -17299862.320 6 -13329995.276 8
  21995636.021   -14157939.872 7 -10867468.555 8
 94  1 27  4 26 30.0010000  0  8  9 24  2 26 13 12  4  7
  21965532.099   -14689113.906 6 -11370888.013 7
  23393316.911    -6606437.215 5  -4985775.890 6
  22591107.513     2492651.487 6   1985552.847 6
  24459482.036    -2091118.246 4  -1557533.405 4
  20738729.614   -21271323.955 7 -15115200.724 6
  22815828.130   -10346433.182 6  -7924923.355 6
  21495387.778   -17353646.519 6 -13371905.032 8
  22008497.739   -14090352.788 6 -10814803.297 8
 94  1 27  4 27  0.0010000  0  7  9 24  2 13 12  4  7
  21954900.638   -14744982.110 6 -11414421.686 7
  23374825.356    -6703594.177 5  -5061482.584 5
  22602098.177     2550394.952 6   2030547.741 6
  20739229.560   -21268684.642 7 -15113144.112 6
  22801012.911   -10424294.743 6  -7985594.708 6
  21485242.224   -17406956.161 6 -13413444.998 8
  22021389.200   -14022608.657 6 -10762015.661 8
 94  1 27  4 27 30.0010000  0  8  9 24  2  5 13 12  4  7
  21944349.896   -14800432.326 6 -11457629.646 7
  23356374.341    -6800548.072 5  -5137031.047 5
  22613131.958     2608377.351 6   2075728.803 6
  24439821.185      -76523.563 4
  20739831.919   -21265528.009 7 -15110684.385 6
  22786235.997   -10501941.637 6  -8046098.787 6
  21475193.778   -17459771.611 6 -13454599.882 8
  22034308.661   -13954712.881 6 -10709109.867 8
 94  1 27  4 28  0.0010000  0  8  9 24  2  5 13 12  4  7
  21933879.692   -14855457.659 6 -11500506.537 7
  23337966.458    -6897304.151 5  -5212425.383 5
  22624210.302     2666601.865 6   2121098.529 6
  24425257.567     -153062.575 3
  20740531.388   -21261849.710 7 -15107818.174 6
  22771507.224   -10579365.555 6  -8106429.100 6
  21465232.942   -17512105.006 6 -13495379.142 8
  22047261.794   -13886653.118 7 -10656076.282 8
 94  1 27  4 28 30.0010000  0  8  9 24  2  5 13 12  4  7
  21923490.364   -14910066.251 6 -11543058.683 7
  23319588.067    -6993887.019 5  -5287684.733 6
  22635332.052     2725042.467 6   2166636.641 6
  24410685.005     -229633.360 4        -0.41015
  20741326.286   -21257663.073 7 -15104555.856 6
  22756809.177   -10656576.003 6  -8166593.102 6
  21455362.669   -17563960.789 6 -13535786.235 8
  22060240.747   -13818440.167 6 -10602923.332 8
 94  1 27  4 29  0.0010000  0  8  9 24  2  5 13 12  4  7
  21913183.169   -14964215.576 6 -11585252.963 7
  23301238.849    -7090287.341 5  -5362801.842 6
  22646496.763     2783709.425 6   2212351.134 6
  24396109.544     -306224.138 5    -59681.501 2
  20742225.560   -21252949.465 7 -15100882.904 6
  22742166.325   -10733550.329 6  -8226573.085 6
  21445595.692   -17615313.880 6 -13575801.612 8
  22073253.294   -13750059.408 6 -10549639.625 8
 94  1 27  4 29 30.0010000  0  8  9 24  2  5 13 12  4  7
  21902965.224   -15017896.032 6 -11627081.892 8
  23282934.896    -7186499.896 5  -5437772.633 5
  22657701.427     2842596.217 6   2258236.930 6
  24381527.013     -382840.504 4
  20743221.489   -21247712.887 7 -15096802.457 6
  22727561.450   -10810288.723 6
  21435917.427   -17666162.839 6 -13615424.160 8
  22086296.794   -13681509.795 6 -10496224.346 8
 94  1 27  4 30  0.0010000  0  8  9 24  2  5 13 12  4  7
  21892843.263   -15071100.278 6 -11668539.766 7
  23264660.685    -7282525.573 5  -5512597.803 6
  22668946.372     2901694.408 6   2304287.439 6
  24366945.083     -459488.473 4
  20744316.411   -21241960.721 7 -15092320.240 6
  22713001.013   -10886794.587 6  -8345984.195 6
  21426334.153   -17716515.866 6 -13654660.269 8
  22099375.630   -13612792.200 7 -10442678.162 8
 94  1 27  4 30 30.0010000  0  8  9 24  2  5 13 12  4  7
  21882808.903   -15123830.014 6 -11709627.868 7
  23246422.028    -7378346.224 5  -5587263.239 6
  22680235.020     2961006.388 6   2350504.552 6
  24352349.544     -536172.016 3        -0.13113
  20745509.192   -21235695.699 7 -15087438.397 6
  22698489.958   -10963066.720 6  -8405417.030 6
  21416850.942   -17766349.789 6 -13693491.883 8
  22112480.935   -13543915.757 7 -10389008.206 8
 94  1 27  4 31  0.0010000  0  8  9 24  2  5 13 12  4  7
  21872867.771   -15176079.563 6 -11750341.801 8
  23228233.817    -7473934.443 5  -5661747.556 6
  22691571.708     3020570.501 6   2396918.125 6
  24337755.583     -612877.944 3    -59770.979 3
  20746799.755   -21228910.303 7 -15082151.067 6
  22684020.864   -11039093.645 6  -8464658.799 6
  21407465.255   -17815656.204 6 -13731912.444 8
  22125620.474   -13474871.905 6 -10335207.804 8
 94  1 27  4 31 30.0010000  0  8  9 24  2  5 13 12  4  7
  21863011.653   -15227876.122 6 -11790702.763 8
  23210085.395    -7569301.706 5  -5736059.684 6
  22702952.599     3080381.971 6   2443524.437 6
  24323155.669     -689618.216 5   -119568.591 4
  20748186.083   -21221619.111 7 -15076469.612 6
  22669598.880   -11114885.912 6  -8523717.715 6
  21398179.810   -17864465.406 6 -13769945.581 8
  22138787.981   -13405666.258 6 -10281281.330 8
 94  1 27  4 32  0.0010000  0  8  9 24  2  5 13 12  4  7
  21853243.208   -15279217.410 6 -11830708.970 8
  23191985.466    -7664427.037 5  -5810183.284 6
  22714385.481     3140469.237 6   2490345.655 6
  24308549.864     -766375.077 5   -179379.113 5
  20749675.419   -21213810.130 7 -15070384.688 6
  22655223.013   -11190427.458 6  -8582581.247 6
  21388988.599   -17912768.647 6 -13807584.455 8
  22151987.388   -13336295.159 6 -10227225.928 8
 94  1 27  4 32 30.0010000  0  8  9 24  2  5 13 12  4  7
  21843556.302   -15330114.956 6 -11870369.392 8
  23173931.161    -7759310.603 5  -5884118.517 6
  22725871.169     3200822.974 6   2537374.511 6
  24293939.052     -843163.846 4   -239214.495 4
  20751255.716   -21205496.242 7 -15063906.322 6
  22640893.497   -11265726.873 6  -8641256.124 6
  21379889.427   -17960583.733 6 -13844842.945 8
  22165215.669   -13266777.394 6 -10173056.234 8
 94  1 27  4 33  0.0010000  0  8  9 24  2  5 13 12  4  7
  21833957.505   -15380554.542 6 -11909672.973 8
  23155919.021    -7853961.973 5  -5957872.804 6
  22737404.231     3261435.775 6   2584605.228 6
  24279313.403     -919988.124 4   -299077.572 2
  20752934.067   -21196680.770 7 -15057037.117 6
  22626611.270   -11340783.770 6  -8699742.009 6
  21370875.606   -18007930.013 6 -13881736.136 8
  22178472.513   -13197120.067 6 -10118777.803 8
 94  1 27  4 33 30.0010000  0  8  9 24  2  5 13 12  4  7
  21824446.778   -15430530.742 6 -11948615.473 8
  23137954.396    -7948377.398 5  -6031443.250 6
  22748986.130     3322296.206 6   2632028.916 6
  24264690.974     -996836.607 4   -358959.503 5
  20754705.708   -21187358.991 7 -15049773.381 6
  22612375.661   -11415589.064 6  -8758031.846 6
  21361958.903   -18054793.195 6 -13918252.886 8
  22191752.896   -13127336.623 6 -10064401.101 8
 94  1 27  4 34  0.0010000  0  8  9 24  2  5 13 12  4  7
  21815027.177   -15480032.100 6 -11987187.963 8
  23120033.356    -8042547.722 6  -6104822.705 6
  22760615.138     3383403.546 6   2679645.004 6
  24250068.747    -1073692.452 5   -418847.173 5
  20756577.935   -21177529.858 7 -15042114.318 6
  22598189.958   -11490137.825 6  -8816121.805 6
  21353137.560   -18101148.250 6 -13954373.693 8
  22205054.013   -13057446.510 6 -10009941.271 8
 94  1 27  4 34 30.0010000  0  8  9 24  2  5 13 12  4  7
  21805700.192   -15529031.285 6 -12025369.138 7
  23102157.747    -8136470.566 6  -6178009.323 6
  22772287.708     3444748.062 6   2727445.903 6
  24235445.950    -1150538.063 4   -478726.848 4
  20758544.880   -21167186.879 7 -15034054.845 6
  22584054.185   -11564419.156 6  -8874003.366 6
  21344413.911   -18146986.391 6 -13990091.715 8
  22218379.544   -12987429.382 6  -9955382.471 8
 94  1 27  4 35  0.0010000  0  8  9 24  2  5 13 12  4  7
  21796466.880   -15577559.909 6 -12063183.657 8
  23084326.661    -8230162.672 5  -6251016.132 6
  22784001.825     3506309.110 6   2775415.520 6
  24220819.661    -1227374.472 4   -538599.368 4
  20760610.966   -21156346.794 7 -15025608.015 6
  22569966.817   -11638445.901 6  -8931686.544 6
  21335790.903   -18192306.486 6 -14025406.049 8
  22231720.950   -12917294.520 6  -9900731.937 8
 94  1 27  4 35 30.0010000  0  8  9 24  2  5 13 12  4  7
  21787315.958   -15625638.457 6 -12100647.469 8
  23066548.849    -8323611.549 6  -6323833.413 6
  22795759.091     3568095.350 6   2823560.616 6
  24206210.192    -1304195.810 5   -598460.119 4
  20762765.778   -21145010.815 7 -15016774.781 6
  22555930.106   -11712214.754 6  -8989168.761 6
  21327272.989   -18237093.343 6 -14060304.886 8
  22245091.599   -12847037.377 6  -9845986.106 8
 94  1 27  4 36  0.0010000  0  8  9 24  2  5 13 12  4  7
  21778255.310   -15673249.053 6 -12137746.643 8
  23048815.536    -8416804.409 6  -6396451.205 6
  22807560.536     3630115.159 5   2871887.710 6
  24191591.286    -1381000.530 5   -658307.951 4
  20765019.755   -21133171.526 7 -15007549.358 6
  22541943.606   -11785714.287 6  -9046441.133 6
  21318850.239   -18281338.119 6 -14094781.319 8
  22258493.411   -12776622.604 6  -9791117.461 8
 94  1 27  4 36 30.0010000  0  8  9 24  2  5 13 12  4  7
  21769287.685   -15720396.940 6 -12174485.248 8
  23031125.880    -8509753.751 6  -6468879.248 6
  22819408.739     3692367.003 5   2920395.596 5
  24176973.817    -1457809.491 4   -718159.106 4
  20767365.935   -21120835.747 7 -14997937.058 6
  22528008.880   -11858947.051 6  -9103505.623 6
  21310532.497   -18325047.534 6 -14128840.583 8
  22271922.388   -12706038.672 6  -9736116.994 8
 94  1 27  4 37  0.0010000  0  8  9 24  2  5 13 12  4  7
  21760401.302   -15767088.955 6 -12210868.639 8
  23013483.802    -8602451.098 5  -6541110.930 6
  22831303.747     3754879.650 6   2969106.716 5
  24162358.294    -1534630.163 5   -778019.365 5
  20769809.153   -21108002.573 7 -14987937.178 6
  22514123.677   -11931908.122 6  -9160358.405 6
  21302321.880   -18368209.104 6 -14162472.973 8
  22285383.747   -12635303.431 6  -9680998.628 8
 94  1 27  4 37 30.0010000  0  8  9 24  2  5 13 12  4  7
  21751606.317   -15813310.789 6 -12246885.654 8
  22995890.091    -8694919.624 6  -6613164.297 6
  22843246.161     3817645.803 5   3018015.386 5
  24147728.567    -1611480.033 5   -837902.343 5
  20772342.599   -21094683.922 7 -14977558.995 6
  22500287.950   -12004604.885 6  -9217005.228 6
  21294211.278   -18410843.577 6 -14195694.629 8
  22298872.778   -12564427.481 6  -9625770.625 8
 94  1 27  4 38  0.0010000  0  8  9 24  2  5 13 12  4  7
  21742906.544   -15859023.586 6 -12282506.012 8
  22978338.614    -8787158.873 6  -6685039.004 6
  22855240.567     3880675.962 5   3067129.772 6
  24133098.106    -1688355.004 5   -897804.886 5
  20774971.810   -21080869.351 7 -14966794.392 6
  22486508.146   -12077022.734 6  -9273434.723 6
  21286197.880   -18452932.757 6 -14228491.379 8
  22312388.052   -12493396.856 6  -9570422.079 7
 94  1 27  4 38 30.0010000  0  8  9 24  2  5 13 12  4  7
  21734302.653   -15904236.388 6 -12317736.767 8
  22960825.411    -8879180.297 5  -6756744.006 6
  22867290.677     3943980.606 5   3116458.049 6
  24118467.903    -1765256.518 5   -957728.134 3
  20777694.091   -21066565.997 7 -14955648.914 6
  22472782.177   -12149164.492 6  -9329649.079 7
  21278287.685   -18494476.118 6 -14260862.810 8
  22325928.435   -12422238.988 6  -9514974.394 8
 94  1 27  4 39  0.0010000  0  8  9 24  2  5 13 12  4  7
  21725789.833   -15948965.510 6 -12352590.630 8
  22943355.474    -8970976.654 5  -6828273.615 6
  22879385.927     4007553.255 5   3165995.133 6
  24103826.310    -1842184.040 4  -1017671.656 4
  20780506.208   -21051781.677 7 -14944128.662 6
  22459107.919   -12221033.711 6  -9385651.068 6
  21270486.966   -18535477.845 6 -14292812.187 8
  22339492.075   -12350970.050 6  -9459440.158 8
 94  1 27  4 39 30.0010000  0  8  9 24  2  5 13 12  4  7
  21717372.528   -15993204.475 6 -12387062.565 8
  22925934.653    -9062538.749 6  -6899620.680 6
  22891533.310     4071386.897 5   3215735.590 5
  24089188.771    -1919131.603 5  -1077630.791 5
  20783411.528   -21036513.981 7 -14932231.748 6
  22445481.646   -12292623.470 6  -9441435.297 7
  21262792.661   -18575924.364 6 -14324328.936 8
  22353079.239   -12279567.200 6  -9403801.573 8
 94  1 27  4 40  0.0010000  0  8  9 24  2  5 13 12  4  7
  21709046.067   -16036961.281 6 -12421158.778 8
  22908560.981    -9153846.295 6  -6970769.410 6
  22903730.403     4135482.969 5   3265680.556 5
  24074544.591    -1996096.969 5  -1137603.791 5
  20786410.216   -21020766.016 7 -14919960.601 6
  22431913.919   -12363932.756 6  -9497000.984 7
  21255206.817   -18615816.466 7 -14355413.691 8
  22366689.271   -12208044.597 6  -9348069.685 7
 94  1 27  4 40 30.0010000  0  8  9 24  2  5 13 12  4  7
  21700809.638   -16080247.843 6 -12454888.567 8
  22891237.802    -9244875.916 6  -7041701.556 6
  22915973.271     4199838.358 5   3315827.588 6
  24059898.333    -2073068.852 5  -1197581.875 5
  20789496.677   -21004534.044 7 -14907312.303 6
  22418395.856   -12434953.362 6  -9552341.712 7
  21247716.411   -18655161.085 7 -14386071.829 9
  22380322.950   -12136398.544 6  -9292241.594 7
 94  1 27  4 41  0.0010000  0  8  9 24  2  5 13 12  4  7
  21692663.567   -16123056.806 6 -12488246.203 8
  22873971.161    -9335615.330 6  -7112407.579 6
  22928268.481     4264424.589 5   3366154.490 5
  24045245.403    -2150048.481 5  -1257565.979 4
  20792674.856   -20987826.263 7 -14894293.250 6
  22404937.497   -12505689.184 6  -9607460.542 7
  21240332.200   -18693964.612 6 -14416308.321 8
  22393980.021   -12064622.872 6  -9236312.498 7
 94  1 27  4 41 30.0010000  0  8  9 24  2  5 13 12  4  7
  21684612.763   -16165349.029 6 -12521201.201 8
  22856756.872    -9426054.598 6  -7182879.717 6
  22940604.372     4329245.875 5   3416664.542 5
  24030600.724    -2227021.560 5  -1317544.987 5
  20795948.825   -20970631.321 7 -14880894.595 6
  22391535.294   -12576124.252 6  -9662345.012 7
  21233050.606   -18732217.084 6 -14446115.422 8
  22407665.419   -11992710.513 6  -9180276.893 7
 94  1 27  4 42  0.0010000  0  8  9 24  2  5 13 12  4  7
  21676664.396   -16207135.729 6 -12553762.263 8
  22839598.825    -9516213.526 6  -7253133.421 6
  22952975.388     4394272.004 5   3467334.232 5
  24015948.474    -2303996.079 5  -1377525.115 4
  20799309.021   -20952964.465 7 -14867128.197 6
  22378185.708   -12646269.798 6  -9717003.870 7
  21225870.083   -18769943.075 6 -14475512.285 8
  22421367.302   -11920697.433 6  -9124162.814 7
 94  1 27  4 42 30.0010000  0  8  9 24  2  5 13 12  4  7
  21668810.466   -16248396.082 6 -12585913.190 8
  22822502.138    -9606079.908 6  -7323159.150 6
  22965392.794     4459516.794 6   3518174.309 5
  24001302.786    -2380951.748 5  -1437490.558 5
  20802764.958   -20934809.586 7 -14852981.544 6
  22364895.552   -12716104.851 6  -9771420.798 7
  21218798.771   -18807117.482 6 -14504479.341 8
  22435097.388   -11848556.159 6  -9067948.840 7
 94  1 27  4 43  0.0010000  0  8  9 24  2  5 13 12  4  7
  21661056.739   -16289136.416 6 -12617658.904 8
  22805452.505    -9695677.897 6  -7392975.751 6
  22977845.419     4524963.492 5   3569171.715 5
  23986654.380    -2457913.810 5  -1497460.981 5
  20806308.567   -20916187.626 7 -14838470.919 6
  22351662.513   -12785646.216 6  -9825608.880 7
  21211823.747   -18843760.943 6 -14533032.674 8
  22448845.966   -11776313.589 6  -9011655.933 7
 94  1 27  4 43 30.0010000  0  8  9 24  2  5 13 12  4  7
  21653403.872   -16329368.881 6 -12649008.884 8
  22788453.403    -9785004.595 6  -7462580.955 6
  22990341.255     4590633.775 5   3620343.323 6
  23972009.802    -2534886.391 5  -1557439.618 5
  20809944.091   -20897091.001 7 -14823590.434 6
  22338489.825   -12854881.701 6  -9879558.606 7
  21204953.013   -18879874.139 6 -14561172.820 8
  22462613.864   -11703971.115 6  -8955285.169 7
 94  1 27  4 44  0.0010000  0  8  9 24  2  5 13 12  4  7
  21645842.747   -16369101.681 6 -12679969.518 8
  22771508.560    -9874040.499 6  -7531959.564 6
  23002883.489     4656544.104 5   3671701.984 5
  23957363.685    -2611863.956 5  -1617422.100 5
  20813669.388   -20877515.198 7 -14808336.548 6
  22325370.614   -12923802.426 6  -9933263.064 7
  21198184.567   -18915447.713 6 -14588892.474 8
  22476401.247   -11631512.069 6  -8898823.580 7
 94  1 27  4 44 30.0010000  0  8  9 24  2  5 13 12  4  7
  21638375.778   -16408342.255 6 -12710546.584 8
  22754626.536    -9962775.135 6  -7601103.418 6
  23015478.927     4722711.126 5   3723260.668 5
  23942716.216    -2688854.634 5  -1677414.838 4
  20817483.247   -20857469.011 7 -14792716.139 6
  22312313.052   -12992412.614 6  -9986725.552 7
  21191517.825   -18950486.400 6 -14616195.341 8
  22490210.653   -11558937.172 6  -8842271.710 7
 94  1 27  4 45  0.0010000  0  8  9 24  2  5 13 12  4  7
  21630999.958   -16447092.622 6 -12740741.676 8
  22737795.911   -10051198.770 6  -7670004.927 6
  23028120.786     4789148.224 5   3775029.810 5
  23928061.747    -2765850.306 5  -1737411.459 5
  20821385.216   -20836953.873 7 -14776730.308 6
  22299320.177   -13060709.262 6 -10039943.717 7
  21184951.669   -18984986.719 6 -14643078.694 8
  22504036.286   -11486258.121 6  -8785638.699 7
 94  1 27  4 45 30.0010000  0  8  9 24  2  5 13 12  4  7
  21623720.700   -16485346.602 6 -12770549.984 8
  22721031.161   -10139300.896 6  -7738655.925 6
  23040815.216     4855857.917 5   3827011.330 5
  23913413.138    -2842835.725 5  -1797400.071 5
  20825379.489   -20815969.586 7 -14760378.916 6
  22286388.380   -13128687.615 6 -10092913.864 7
  21178488.849   -19018939.469 7 -14669535.370 8
  22517891.333   -11413470.844 6  -8728921.338 7
 94  1 27  4 46  0.0010000  0  8  9 24  2  5 13 12  4  7
  21616538.724   -16523093.452 6 -12799963.117 8
  22704326.310   -10227088.958 6  -7807062.181 6
  23053557.411     4922830.505 5   3879197.721 5
  23898758.763    -2919805.080 5  -1857376.193 5
  20829458.091   -20794530.406 7 -14743673.061 6
  22273508.192   -13196357.483 6 -10145643.625 7
  21172129.606   -19052355.251 6 -14695573.633 8
  22531762.497   -11340587.044 6  -8672128.777 7
 94  1 27  4 46 30.0010000  0  8  9 24  2  5 13 12  4  7
  21609455.013   -16560309.585 6 -12828962.703 8
  22687685.270   -10314562.576 6  -7875223.414 7
  23066351.583     4990072.298 5   3931593.885 5
  23884127.185    -2996745.069 5  -1917329.441 5
  20833628.130   -20772623.801 7 -14726602.973 6
  22260693.794   -13263701.760 6 -10198119.686 7
  21165879.325   -19085212.613 6 -14721176.763 8
  22545651.653   -11267588.367 6  -8615246.697 7
 94  1 27  4 47  0.0010000  0  8  9 24  2  5 13 12  4  7
  21602475.239   -16596989.260 6 -12857544.274 8
  22671090.052   -10401732.650 6  -7943148.140 6
  23079198.161     5057562.425 5   3984183.566 5
  23869487.786    -3073667.592 5  -1977269.041 5
  20837885.138   -20750255.261 7 -14709172.930 6
  22247939.325   -13330721.359 6 -10250342.751 7
  21159733.505   -19117506.612 6 -14746340.912 8
  22559568.802   -11194461.739 6  -8558264.907 7
 94  1 27  4 47 30.0010000  0  8  9 24  2  5 13 12  4  7
  21595599.638   -16633122.774 6 -12885700.266 8
  22654561.630   -10488603.877 6  -8010839.978 7
  23092084.302     5125287.223 5   4036956.105 5
  23854846.380    -3150588.367 5  -2037207.306 5
  20842229.075   -20727427.284 7 -14691384.892 6
  22235246.364   -13397414.136 6 -10302311.153 7
  21153697.747   -19149232.898 7 -14771062.679 8
  22573511.013   -11121190.438 6  -8501170.397 7
 94  1 27  4 48  0.0010000  0  8  9 24  2  5 13 12  4  7
  21588827.716   -16668716.716 6 -12913435.802 8
  22638085.255   -10575186.860 6  -8078307.220 7
  23105015.739     5193248.024 5   4089912.563 5
  23840207.802    -3227513.008 5  -2097148.557 5
  20846656.896   -20704144.813 7 -14673242.709 6
  22222618.138   -13463780.846 6 -10354025.469 7
  21147766.067   -19180385.094 6 -14795337.101 8
  22587477.622   -11047777.800 6  -8443965.747 7
 94  1 27  4 48 30.0010000  0  8  9 24  2  5 13 12  4  7
  21582154.974   -16703789.966 6 -12940765.609 8
  22621659.591   -10661496.012 6  -8145561.091 7
  23117991.372     5261427.647 5   4143039.510 5
  23825566.599    -3304463.527 5  -2157110.001 5
  20851174.505   -20680422.613 7 -14654757.871 6
  22210048.474   -13529831.195 6 -10405493.278 7
  21141946.997   -19210963.179 6 -14819164.171 8
  22601472.442   -10974240.320 6  -8386663.819 7
 94  1 27  4 49  0.0010000  0  8  9 24  2  5 13 12  4  7
  21575585.185   -16738318.890 6 -12967671.272 8
  22605298.552   -10747490.833 6  -8212570.030 7
  23131012.083     5329859.417 5   4196362.933 5
  23810923.661    -3381408.019 5  -2217066.741 5
  20855776.028   -20656238.894 7 -14635913.417 7
  22197544.208   -13595539.096 6 -10456694.233 7
  21136241.021   -19240957.955 7 -14842536.718 8
  22615491.958   -10900568.924 6  -8329257.546 7
 94  1 27  4 49 30.0010000  0  8  9 24  2  5 13 12  4  7
  21569112.599   -16772317.935 6 -12994164.049 8
  22588994.333   -10833173.489 6  -8279335.718 7
  23144084.169     5398558.929 5   4249894.983 5
  23796279.919    -3458337.392 5  -2277011.699 5
  20860464.653   -20631596.457 7 -14616711.514 6
  22185105.106   -13660902.812 6 -10507627.001 7
  21130642.427   -19270376.565 7 -14865460.305 8
  22629530.481   -10826797.951 6  -8271773.681 7
 94  1 27  4 50  0.0010000  0  8  9 24  2  5 13 12  4  7
  21562735.872   -16805822.316 6 -13020271.356 8
  22572743.075   -10918550.705 6  -8345863.403 7
  23157207.036     5467521.119 5   4303631.716 5
  23781647.333    -3535256.877 5  -2336948.940 5
  20865237.950   -20606511.611 7 -14597164.879 6
  22172733.739   -13725933.923 7 -10558300.586 7
  21125147.802   -19299248.843 6 -14887958.165 8
  22643581.302   -10752963.908 6  -8214240.665 7
 94  1 27  4 50 30.0010000  0  8  9 24  2  5 13 12  4  7
  21556457.005   -16838825.816 6 -13045988.375 8
  22556560.091   -11003610.155 6  -8412143.486 7
  23170381.700     5536745.160 5   4357572.493 5
  23767012.349    -3612167.189 5  -2396879.063 5
  20870097.505   -20580983.379 7 -14577272.747 7
  22160420.536   -13790626.563 6 -10608710.437 7
  21119755.114   -19327580.207 6 -14910034.542 8
  22657643.192   -10679062.207 6  -8156654.929 7
 94  1 27  4 51  0.0010000  0  8  9 24  2  5 13 12  4  7
  21550271.731   -16871320.866 6 -13071309.199 8
  22540432.903   -11088336.312 6  -8478163.864 7
  23183607.036     5606239.880 5   4411724.200 5
  23752381.505    -3689060.873 5  -2456796.203 5
  20875038.614   -20555008.865 7 -14557032.863 6
  22148177.442   -13854973.551 6 -10658850.954 7
  21114466.700   -19355372.656 7 -14931690.979 8
  22671721.614   -10605094.726 6  -8099017.929 7
 94  1 27  4 51 30.0010000  0  8  9 24  2  5 13 12  4  7
  21544180.919   -16903323.762 6 -13096246.523 8
  22524377.192   -11172739.872 6  -8543932.855 7
  23196877.231     5675976.186 5   4466064.152 6
  23737747.317    -3765947.572 5  -2516707.899 5
  20880063.005   -20528599.566 7 -14536454.185 6
  22135995.614   -13918981.581 6 -10708727.338 7
  21109283.310   -19382617.340 7 -14952920.591 8
  22685804.981   -10531079.167 6  -8041343.472 7
 94  1 27  4 52  0.0010000  0  8  9 24  2  5 13 12  4  7
  21538190.349   -16934811.288 6 -13120782.257 8
  22508377.255   -11256812.139 6  -8609443.717 7
  23210188.653     5745933.232 5   4520576.082 5
  23723117.388    -3842816.881 5  -2576606.046 5
  20885172.614   -20501754.398 7 -14515535.863 6
  22123883.685   -13982645.013 6 -10758335.207 7
  21104208.052   -19409297.540 7 -14973710.347 8
  22699902.427   -10456990.521 6  -7983612.067 7
 94  1 27  4 52 30.0010000  0  8  9 24  2  5 13 12  4  7
  21532300.599   -16965752.188 6 -13144892.049 8
  22492439.677   -11340543.874 6  -8674689.213 7
  23223544.466     5816111.241 5   4575260.201 5
  23708499.005    -3919662.024 5  -2636485.375 5
  20890364.411   -20474468.887 7 -14494274.428 7
  22111837.489   -14045954.890 7 -10807667.567 7
  21099242.052   -19435386.200 7 -14994039.158 8
  22714017.317   -10382817.292 6  -7925814.749 7
 94  1 27  4 53  0.0010000  0  8  9 24  2  5 13 12  4  7
  21526515.239   -16996165.165 6 -13168590.477 8
  22476573.138   -11423940.826 6  -8739673.859 7
  23236941.731     5886502.882 5   4630110.794 5
  23693879.731    -3996488.004 5  -2696349.769 5
  20895636.739   -20446753.348 7 -14472677.900 6
  22099851.646   -14108916.576 6 -10856728.630 7
  21094391.981   -19460878.637 7 -15013903.382 8
  22728145.450   -10308573.329 6  -7867962.322 7
 94  1 27  4 53 30.0010000  0  8  9 24  2  5 13 12  4  7
  21520828.263   -17026051.362 6 -13191878.430 8
  22460766.880   -11507003.511 6  -8804398.025 7
  23250371.895     5957114.808 5   4685133.078 5
  23679266.270    -4073294.692 5  -2756199.123 5
  20900992.575   -20418606.800 7 -14450745.522 7
  22087941.138   -14171524.365 7 -10905513.932 7
  21089654.021   -19485767.456 6 -15033297.264 8
  22742292.700   -10234234.909 6  -7810036.282 7
 94  1 27  4 54  0.0010000  0  8  9 24  2  5 13 12  4  7
  21515246.817   -17055393.617 6 -13214742.534 8
  22445024.872   -11589734.661 6  -8868863.847 7
  23263860.716     6027969.728 5   4740344.666 5
  23664650.224    -4150093.363 5  -2816042.243 5
  20906431.661   -20390032.237 7 -14428479.622 7
  22076094.044   -14233776.733 7 -10954022.274 7
  21085028.747   -19510068.468 6 -15052233.106 8
  22756459.677   -10159783.087 6  -7752021.882 7
 94  1 27  4 54 30.0010000  0  8  9 24  2  5 13 12  4  7
  21509761.911   -17084195.342 6 -13237185.432 8
  22429342.224   -11672138.333 6  -8933074.470 7
  23277393.231     6099085.230 5   4795759.306 5
  23650031.630    -4226902.005 5  -2875893.131 5
  20911950.146   -20361033.600 7 -14405883.284 7
  22064315.138   -14295672.951 7 -11002253.092 7
  21080518.786   -19533795.862 7 -15070721.969 8
  22770647.450   -10085222.436 6  -7693922.678 7
 94  1 27  4 55  0.0010000  0  8  9 24  2  5 13 12  4  7
  21504389.919   -17112450.739 6 -13259202.623 8
  22413726.325   -11754204.763 6  -8997022.332 7
  23290974.435     6170462.661 5   4851378.040 5
  23635416.927    -4303711.407 5  -2935744.592 5
  20917550.349   -20331605.664 7 -14382952.419 7
  22052604.146   -14357203.011 6 -11050198.592 7
  21076107.911   -19556949.527 7 -15088763.778 8
  22784860.817   -10010530.976 6  -7635721.546 7
 94  1 27  4 55 30.0010000  0  8  9 24  2  5 13 12  4  7
  21499118.536   -17140138.329 6 -13280777.362 8
  22398172.575   -11835934.565 6  -9060707.868 7
  23304605.638     6242097.490 5   4907197.372 5
  23620801.997    -4380514.411 5  -2995591.100 5
  20923231.341   -20301749.547 7 -14359687.917 7
  22040966.528   -14418363.484 7 -11097856.102 7
  21071808.521   -19579537.925 7 -15106365.116 8
  22799099.349    -9935708.577 6  -7577418.386 7
 94  1 27  4 56  0.0010000  0  8  9 24  2  5 13 12  4  7
  21493955.974   -17167259.093 6 -13301910.422 8
  22382679.692   -11917340.213 6  -9124140.832 7
  23318279.927     6313960.446 5   4963194.472 5
  23606188.810    -4457319.161 5  -3055438.935 5
  20928992.614   -20271484.635 7 -14336104.858 7
  22029395.903   -14479168.929 7 -11145236.968 8
  21067619.630   -19601573.815 7 -15123535.920 8
  22813355.942    -9860792.368 6  -7519042.130 7
 94  1 27  4 56 30.0010000  0  8  9 24  2  5 13 12  4  7
  21488905.231   -17193812.375 6 -13322601.301 8
  22367261.442   -11998389.790 6  -9187296.334 7
  23332003.872     6386072.568 5   5019385.685 5
  23591572.661    -4534091.441 5  -3115261.491 5
  20934833.958   -20240789.495 7 -14312186.574 7
  22017896.083   -14539593.342 6 -11192320.929 7
  21063536.739   -19623022.338 7 -15140249.050 8
  22827629.864    -9785776.323 6  -7460588.080 7
 94  1 27  4 57  0.0010000  0  8  9 24  2  5 13 12  4  7
  21483956.880   -17219815.031 6 -13342863.106 8
  22351904.825   -12079076.548 6  -9250169.123 7
  23345771.224     6458423.916 5   5075763.316 5
  23576975.911    -4610817.130 5  -3175047.745 5
  20940754.450   -20209673.799 7 -14287940.571 7
  22006471.419   -14599641.502 7 -11239111.706 7
  21059562.716   -19643895.434 7 -15156513.800 8
  22841918.700    -9710688.079 6  -7402077.766 7
 94  1 27  4 57 30.0010000  0  8  9 24  2  5 13 12  4  7
  21479110.403   -17245284.698 6 -13362709.607 8
  22336622.771   -12159411.348 6  -9312767.659 7
  23359588.560     6531019.251 5   5132331.071 5
  23562381.997    -4687502.173 5  -3234802.311 5
  20946753.716   -20178148.991 7 -14263375.776 7
  21995113.153   -14659320.248 6 -11285614.625 7
  21055700.122   -19664203.475 7 -15172338.232 8
  22856217.442    -9635559.225 6  -7343535.803 7
 94  1 27  4 58  0.0010000  0  8  9 24  2  5 13 12  4  7
  21474366.630   -17270214.635 6 -13382135.535 8
  22321400.028   -12239369.650 6  -9375072.817 7
  23373454.442     6603882.098 5   5189107.255 5
  23547798.435    -4764137.860 5  -3294518.426 5
  20952833.599   -20146202.965 7 -14238482.763 7
  21983831.700   -14718612.904 7 -11331816.704 8
  21051945.731   -19683934.190 7 -15187712.803 8
  22870522.372    -9560383.668 6  -7284957.453 7
 94  1 27  4 58 30.0010000  0  8  9 24  2  5 13 12  4  7
  21469719.747   -17294619.633 6 -13401152.422 8
  22306259.974   -12318951.244 6  -9437084.437 7
  23387367.614     6677015.235 5   5246094.076 5
  23533224.185    -4840728.090 5  -3354199.126 5
  20958989.521   -20113843.211 7 -14213267.376 7
  21972624.224   -14777521.873 7 -11377719.792 7
  21048297.185   -19703099.749 7 -15202647.003 8
  22884837.255    -9485164.633 6  -7226345.234 7
 94  1 27  4 59  0.0010000  0  8  9 24  2  5 13 12  4  7
  21465181.231   -17318476.156 6 -13419741.926 8
  22291186.419   -12398159.644 6  -9498805.253 7
  23401335.185     6750406.579 5   5303282.096 5
  23518657.317    -4917274.498 5  -3413845.667 5
  20965223.708   -20081072.752 7 -14187731.957 7
  21961487.216   -14836045.644 7 -11423322.728 8
  21044759.310   -19721699.918 7 -15217140.631 8
  22899160.044    -9409892.679 6  -7167691.765 7
 94  1 27  4 59 30.0010000  0  8  9 24  2  5 13 12  4  7
  21460746.747   -17341786.882 6 -13437906.140 8
  22276180.817   -12477009.605 6  -9560246.768 7
  23415348.138     6824041.061 5   5360659.569 5
  23504091.005    -4993806.914 5  -3473481.328 5
  20971536.880   -20047905.865 7 -14161887.615 7
  21950421.317   -14894193.808 7 -11468632.991 8
  21041326.231   -19739732.487 7 -15231191.971 8
  22913496.028    -9334564.040 6  -7108994.128 7
 94  1 27  5  0  0.0010000  0  8  9 24  2  5 13 12  4  7
  21456417.177   -17364531.614 6 -13455629.315 8
  22261244.247   -12555489.727 6  -9621400.103 7
  23429405.364     6897918.266 5   5418226.174 5
  23489533.974    -5070325.855 5  -3533106.473 5
  20977924.567   -20014333.302 7 -14135727.178 7
  21939428.896   -14951952.378 7 -11513639.669 8
  21038006.771   -19757190.763 7 -15244795.810 8
  22927844.888    -9259156.955 6  -7050235.373 7
 94  1 27  5  0 30.0010000  0  8  9 24  2  5 13 12  4  7
  21452199.177   -17386710.211 6 -13472911.340 8
  22246379.552   -12633617.287 6  -9682278.700 7
  23443508.091     6972029.877 5   5475975.436 5
  23474977.513    -5146837.853 5  -3592726.186 5
  20984390.278   -19980358.487 7 -14109253.299 7
  21928511.380   -15009320.187 6 -11558341.857 8
  21034796.317   -19774062.633 7 -15257942.713 8
  22942209.685    -9183659.112 6  -6991405.895 6
 94  1 27  5  1  0.0010000  0  8  9 24  2  5 13 12  4  7
  21448083.591   -17408324.985 6 -13489754.028 8
  22231577.388   -12711397.202 6  -9742886.413 7
  23457652.208     7046370.241 5   5533902.925 5
  23460415.216    -5223356.673 5  -3652351.249 5
  20990932.419   -19945983.581 7 -14082467.655 7
  21917670.700   -15066294.337 7 -11602737.295 8
  21031696.771   -19790341.886 7 -15270627.831 8
  22956595.950    -9108067.198 6  -6932503.100 6
 94  1 27  5  1 30.0010000  0  8  9 24  2  5 13 12  4  7
  21444073.552   -17429396.746 6 -13506173.588 8
  22216844.372   -12788823.650 6  -9803218.699 7
  23471843.450     7120947.682 5   5592015.161 5
  23445851.349    -5299871.224 5  -3711972.972 5
  20997551.380   -19911204.271 7 -14055366.895 7
  21906906.200   -15122865.959 7 -11646819.081 8
  21028711.802   -19806026.393 7 -15282849.508 8
  22970996.716    -9032381.333 6  -6873527.109 6
 94  1 27  5  2  0.0010000  0  8  9 24  2  5 13 12  4  7
  21440165.200   -17449924.551 6 -13522169.285 8
  22202173.536   -12865904.972 6  -9863282.048 7
  23486084.786     7195765.215 5   5650314.475 5
  23431295.864    -5376369.835 5  -3771582.275 5
  21004245.200   -19876021.714 7 -14027951.911 7
  21896218.450   -15179031.533 7 -11690584.467 8
  21025838.138   -19821121.801 7 -15294612.155 8
  22985417.646    -8956605.049 6  -6814480.659 6
 94  1 27  5  2 30.0010000  0  8  9 24  2  5 13 12  4  7
  21436364.021   -17469922.411 6 -13537752.038 8
  22187575.364   -12942638.940 6
  23500366.099     7270824.732 5   5708802.364 5
  23416741.005    -5452844.965 5
  21011014.919   -19840447.414 7 -14000231.676 7
  21885603.521   -15234797.756 6 -11734038.673 8
  21023075.747   -19835630.165 7 -15305917.362 8
  22999852.755    -8880749.635 6  -6755372.555 6
 94  1 27  5  3  0.0010000  0  8  9 24  2  5 13 12  4  7
  21432658.442   -17489389.128 6 -13552920.906 8
  22173046.552   -13019001.439 6  -9982577.967 7
  23514697.192     7346132.517 5   5767483.729 5
  23402199.755    -5529266.568 5
  21017859.356   -19804481.617 7 -13972206.379 7
  21875072.060   -15290159.912 7 -11777178.010 8
  21020428.396   -19849561.906 7 -15316773.250 8
  23014299.138    -8804823.050 6  -6696208.994 6
 94  1 27  5  3 30.0010000  0  8  9 24  2  5 13 12  4  7
  21429056.888   -17508313.942 6 -13567667.527 8
  22158582.075   -13094988.778 6 -10041788.859 7
  23529073.739     7421692.304 5   5826361.424 5
  23387666.638    -5605626.795 5        -0.06415
  21024776.310   -19768129.784 7 -13943880.269 7
  21864612.489   -15345119.075 7 -11820003.338 8
  21017883.646   -19862922.462 7 -15327184.066 8
  23028760.497    -8728831.059 6  -6636994.458 6
 94  1 27  5  4  0.0010000  0  8  9 24  2  5 13 12  4  7
  21425567.606   -17526658.342 6 -13581961.871 8
  22144198.481   -13170575.698 6 -10100687.755 7
  23543500.435     7497519.917 5
  23373150.653    -5681922.774 5    -59451.488 5
  21031769.747   -19731383.806 7 -13915247.042 7
  21854231.981   -15399662.310 7 -11862504.555 8
  21015452.880   -19875691.244 7 -15337133.754 8
  23043233.888    -8652769.552 6
 94  1 27  5  4 30.0010000  0  8  9 24  2  5 13 12  4  7
  21422184.513   -17544422.836 6 -13595804.343 8
  22129896.036   -13245744.851 6 -10159261.108 7
  23557988.708     7573611.807 5
  23358645.544    -5758152.054 5   -118850.905 5
  21038834.638   -19694248.867 7 -13886310.724 7
  21843933.200   -15453789.993 7 -11904681.973 8
  21013140.521   -19887862.968 7 -15346618.212 8
  23057723.005    -8576639.801 6
 94  1 27  5  5  0.0010000  0  8  9 24  2  5 13 12  4  7
  21418918.036   -17561603.879 6 -13609192.184 8
  22115672.825   -13320498.755 6 -10217510.892 7
  23572516.239     7649956.256 5   6004229.257 5
  23344146.755    -5834329.453 5   -178209.929 6
  21045976.138   -19656728.201 7 -13857073.842 7
  21833710.997   -15507500.652 7 -11946534.438 8
  21010936.021   -19899438.676 7 -15355638.233 8
  23072221.364    -8500452.464 6  -6459037.128 6
 94  1 27  5  5 30.0010000  0  8  9 24  2  5 13 12  4  7
  21415758.505   -17578202.480 6 -13622126.168 8
  22101526.716   -13394843.366 6 -10275441.761 7
  23587088.450     7726540.786 5   6063905.479 5
  23329661.083    -5910487.109 5   -237553.560 6
  21053186.708   -19618831.358 7 -13827543.839 7
  21823569.153   -15560798.903 7 -11988065.543 8
  21008846.396   -19910420.872 7 -15364195.776 8
  23086729.372    -8424218.264 6  -6399633.869 6
 94  1 27  5  6  0.0010000  0  8  9 24  2  5 13 12  4  7
  21412708.935   -17594215.571 6 -13634603.910 8
  22087456.567   -13468764.435 6 -10333042.583 7
  23601702.513     7803362.022 5   6123766.138 5
  23315175.810    -5986607.315 5   -296867.991 5
  21060471.755   -19580556.765 7 -13797719.474 7
  21813507.810   -15613678.740 7 -12029270.611 8
  21006871.880   -19920810.085 7 -15372291.264 8
  23101240.052    -8347936.470 6  -6340193.514 6
 94  1 27  5  6 30.0010000  0  8  9 24  2  5 13 12  4  7
  21409776.099   -17609644.010 6 -13646626.071 8
  22073468.169   -13542256.951 6 -10390309.468 7
  23616372.130     7880422.396 5   6183813.132 5
  23300692.880    -6062673.292 5   -356140.198 5
  21067828.013   -19541896.265 7 -13767594.410 7
  21803523.872   -15666127.329 7 -12070139.645 8
  21005003.372   -19930615.515 7 -15379931.851 8
  23115770.950    -8271588.533 6  -6280701.620 6
 94  1 27  5  7  0.0010000  0  8  9 24  2  5 13 12  4  7
  21406944.950   -17624506.073 6 -13658206.903 8
  22059562.294   -13615338.287 6 -10447255.950 7
  23631078.153     7957708.786 5   6244036.253 5
  23286228.528    -6138697.928 5   -415380.157 5
  21075257.411   -19502864.167 7 -13737179.788 7
  21793625.325   -15718154.097 7 -12110679.984 8
  21003245.263   -19939863.199 7 -15387137.830 8
  23130307.950    -8195190.002 6  -6221170.306 6
 94  1 27  5  7 30.0010000  0  8  9 24  2  5 13 12  4  7
  21404224.677   -17638798.100 6 -13669343.543 8
  22045740.794   -13688003.089 6 -10503877.869 7
  23645827.786     8035229.512 5   6304441.947 5
  23271772.083    -6214662.107 5   -474573.022 6
  21082754.333   -19463459.075 7 -13706474.523 7
  21783805.771   -15769752.886 6 -12150886.838 8
  21001591.646   -19948542.548 7 -15393900.945 8
  23144860.481    -8118731.180 6  -6161592.003 6
 94  1 27  5  8  0.0010000  0  8  9 24  2  5 13 12  4  7
  21401617.224   -17652534.783 6 -13680047.464 8
  22031984.146   -13760267.664 6 -10560187.907 7
  23660622.231     8112982.512 5   6365028.646 5
  23257331.161    -6290570.949 5   -533722.760 6
  21090322.513   -19423688.548 7 -13675484.500 7
  21774067.146   -15820926.657 7 -12190762.491 8
  21000048.020   -19956651.776 7 -15400219.813 8
  23159416.708    -8042211.724 6  -6101966.466 6
 94  1 27  5  8 30.0010000  0  8  9 24  2  5 13 12  4  7
  21399102.841   -17665716.224 6 -13690318.725 8
  22018304.028   -13832145.475 6 -10616196.583 8
  23675467.380     8190970.572 5   6425798.502 5
  23242891.708    -6366442.596 5   -592843.519 5
  21097960.614   -19383549.226 7 -13644207.103 7
  21764410.606   -15871667.230 7 -12230300.609 8
  20998617.974   -19964178.196 7 -15406084.558 8
  23173995.942    -7965627.521 6  -6042290.471 6
 94  1 27  5  9  0.0010000  0  8  9 24  2  5 13 12  4  7
  21396700.841   -17678334.009 6 -13700150.764 8
  22004705.427   -13903632.179 6 -10671900.506 8
  23690353.442     8269192.589 5   6486750.665 5
  23228460.005    -6442276.630 5   -651934.973 6
  21105669.278   -19343038.956 7 -13612640.652 7
  21754842.075   -15921967.858 7 -12269495.911 8
  20997301.247   -19971089.100 7 -15411469.669 8
  23188580.599    -7888978.265 6  -5982563.783 6
 94  1 27  5  9 30.0010000  0  8  9 24  2  5 13 12  4  7
  21394412.552   -17690377.947 6 -13709535.657 8
  21991175.036   -13974729.285 6 -10727300.839 8
  23705280.489     8347643.197 5   6547880.973 5
  23214030.153    -6518085.295 5   -711006.654 6
  21113448.552   -19302162.802 7 -13580789.106 7
  21745352.645   -15971828.745 7 -12308348.548 8
  20996103.521   -19977380.971 7 -15416372.421 8
  23203176.841    -7812264.736 6  -5922787.012 6
 94  1 27  5 10  0.0010000  0  8  9 24  2  5 13 12  4  7
  21392226.591   -17701859.614 6 -13718482.413 8
  21977713.638   -14045464.682 6 -10782419.322 8
  23720244.356     8426302.441 5   6609173.851 4
  23199608.185    -6593890.627 6   -770075.741 6
  21121292.474   -19260941.783 7 -13548668.844 7
  21735943.888   -16021266.287 7 -12346871.312 8
  20995016.575   -19983089.849 7 -15420820.890 8
  23217788.067    -7735496.448 6  -5862967.577 6
 94  1 27  5 10 30.0010000  0  8  9 24  2  5 13 12  4  7
  21390152.927   -17712742.994 6 -13726962.973 8
  21964331.677   -14115800.893 6 -10837226.761 8
  23735259.872     8505203.792 5   6670655.377 4
  23185196.192    -6669639.089 6   -829100.506 6
  21129207.981   -19219348.796 7 -13516258.712 7
  21726623.114   -16070248.540 7 -12385039.309 8
  20994048.286   -19988188.558 7 -15424793.909 8
  23232405.583    -7658648.987 6  -5803086.441 6
 94  1 27  5 11  0.0010000  0  8  9 24  2  5 13 12  4  7
  21388194.856   -17723033.342 6 -13734981.431 8
  21951023.817   -14185726.238 6 -10891714.019 8
  23750322.286     8584357.197 5   6732333.312 5
  23170795.403    -6745324.144 6   -888075.858 6
  21137189.786   -19177394.726 7 -13483567.222 7
  21717389.989   -16118781.831 7 -12422857.454 8
  20993192.841   -19992678.785 7 -15428292.781 8
  23247044.770    -7581733.100 6  -5743151.989 6
 94  1 27  5 11 30.0010000  0  8  9 24  2  5 13 12  4  7
  21386352.161   -17732740.770 6 -13742545.666 8
  21937795.200   -14255246.709 6 -10945885.813 8
  23765435.786     8663769.370 5   6794212.880 5
  23156400.927    -6820951.779 6   -947006.493 5
  21145239.817   -19135090.561 7 -13450602.947 7
  21708237.466   -16166872.728 7 -12460330.886 8
  20992449.935   -19996584.082 7 -15431335.862 8
  23261693.427    -7504759.901 6  -5683172.878 6
 94  1 27  5 12  0.0010000  0  8  9 24  2  5 13 12  4  7
  21384615.427   -17741868.750 6 -13749658.389 8
  21924645.028   -14324344.992 6 -10999728.627 8
  23780598.856     8743449.551 5   6856301.303 5
  23142023.552    -6896503.893 5  -1005878.261 6
  21153357.739   -19092431.000 7 -13417361.729 7
  21699172.185   -16214511.286 7 -12497451.835 8
  20991820.638   -19999885.032 7 -15433908.022 8
  23276353.786    -7427732.874 6  -5623151.819 6
 94  1 27  5 12 30.0010000  0  8  9 24  2  5 13 12  4  7
  21382982.372   -17750424.718 6 -13756325.386 8
  21911582.255   -14392998.402 6 -11053224.777 8
  23795810.521     8823389.667 5   6918592.240 5
  23127657.544    -6971993.729 5  -1064701.511 6
  21161540.138   -19049423.397 7 -13383849.306 7
  21690193.692   -16261699.561 7 -12534221.922 8
  20991313.146   -20002575.321 7 -15436004.344 8
  23291016.692    -7350677.068 6  -5563108.342 6
 94  1 27  5 13  0.0010000  0  8  9 24  2  5 13 12  4  7
  21381462.599   -17758413.046 6 -13762550.068 8
  21898600.513   -14461209.684 6 -11106376.419 8
  23811065.474     8903577.568 5   6981076.285 4
  23113297.575    -7047446.568 6  -1123495.923 6
  21169794.052   -19006073.269 7 -13350069.988 7
  21681296.544   -16308438.670 6 -12570642.015 8
  20990915.614   -20004668.850 7 -15437635.656 8
  23305686.567    -7273586.570 6  -5503037.830 6
 94  1 27  5 13 30.0010000  0  8  9 24  2  5 13 12  4  7
  21380050.567   -17765839.332 6 -13768336.787 8
  21885703.177   -14528978.638 6 -11159183.383 8
  23826372.966     8984000.140 5   7043743.164 4
  23098947.317    -7122855.442 5  -1182256.072 6
  21178105.763   -18962378.709 7 -13316022.274 7
  21672489.075   -16354722.124 7 -12606707.041 8
  20990626.997   -20006180.264 7 -15438813.370 8
  23320360.856    -7196456.637 5  -5442936.590 6
 94  1 27  5 14  0.0010000  0  8  9 24  2  5 13 12  4  7
  21378743.966   -17772710.959 6 -13773691.320 8
  21872891.927   -14596311.341 6 -11211650.416 8
  23841720.380     9064647.897 5   7106585.513 5
  23084609.185    -7198215.618 6  -1240978.263 6
  21186484.997   -18918346.770 7 -13281711.669 7
  21663768.520   -16400552.458 7 -12642419.002 8
  20990445.255   -20007118.453 7 -15439544.420 8
  23335047.419    -7119295.755 6  -5382811.236 6
 94  1 27  5 14 30.0010000  0  8  9 24  2  5 13 12  4  7
  21377543.177   -17779020.762 6 -13778608.072 8
  21860159.083   -14663214.527 6 -11263782.755 8
  23857112.575     9145527.009 5   7169608.159 3
  23070276.560    -7273519.126 5  -1299656.340 6
  21194928.763   -18873973.636 7 -13247135.202 7
  21655135.997   -16445921.049 7 -12677771.145 8
  20990371.786   -20007494.557 7
  23349739.817    -7042087.622 6  -5322649.060 6
 94  1 27  5 15  0.0010000  0  8  9 24  2  5 13 12  4  7
  21376449.849   -17784777.939 6 -13783094.192 8
  21847511.739   -14729701.334 6 -11315590.657 8
  23872549.349     9226646.378 5   7232818.020 3
  23055960.896    -7348758.669 6  -1358284.545 6
  21203436.208   -18829261.572 7 -13212294.628 7
  21646592.333   -16490825.727 7 -12712761.808 8
  20990406.169   -20007307.935 7
  23364441.044    -6964825.690 6  -5262444.973 6
 94  1 27  5 15 30.0010000  0  8  9 24  2  5 13 12  4  7
  21375457.638   -17789983.375 6 -13787150.378 8
  21834938.708   -14795771.289 6 -11367073.735 8
  23888028.567     9308001.161 5   7296211.305 3
  23041661.981    -7423917.948 6  -1416850.197 6
  21212009.364   -18784221.454 7 -13177198.434 7
  21638135.239   -16535272.759 7 -12747395.855 8
  20990552.677   -20006562.408 7 -15439111.115 8
  23379151.028    -6887535.684 6  -5202218.988 6
 94  1 27  5 16  0.0010000  0  8  9 24  2  5 13 12  4  7
  21374580.606   -17794593.326 6 -13790742.555 8
  21822447.974   -14861399.121 6 -11418212.292 8
  23903552.099     9389613.191 4   7359805.070 3
  23027375.794    -7498974.554 6  -1475335.850 6
  21220648.130   -18738830.912 7 -13141829.179 7
  21629768.192   -16579234.930 7 -12781652.098 8
  20990807.489   -20005224.397 7 -15438068.494 8
  23393864.497    -6810187.860 5  -5141947.962 6
 94  1 27  5 16 30.0010000  0  8  9 24  2  5 13 12  4  7
  21373810.200   -17798626.798 6 -13793885.527 8
  21810035.724   -14926599.838 6 -11469018.037 8
  23919135.747     9471458.222 5   7423580.357 4
  23013108.067    -7573955.290 6  -1533762.389 6
  21229344.997   -18693115.945 7 -13106207.119 7
  21621489.325   -16622733.687 7 -12815547.235 8
  20991172.067   -20003313.009 7 -15436579.094 8
  23408594.028    -6732800.260 5  -5081645.949 6
 94  1 27  5 17  0.0010000  0  8  9 24  2  5 13 12  4  7
  21373155.310   -17802069.101 6 -13796567.864 8
  21797713.396   -14991359.943 6 -11519480.442 8
  23934746.356     9553533.542 4   7487535.101 4
  22998854.239    -7648846.065 6  -1592118.846 6
  21238108.888   -18647075.655 7 -13070331.569 7
  21613301.825   -16665763.722 7 -12849077.129 8
  20991648.044   -20000815.248 7 -15434632.782 8
  23423328.888    -6655378.252 5  -5021317.126 6
 94  1 27  5 17 30.0010000  0  8  9 24  2  5 13 12  4  7
  21372616.513   -17804910.123 6 -13798781.655 8
  21785475.521   -15055687.623 6 -11569605.901 8
  23950414.669     9635819.144 4   7551653.694 4
  22984623.958    -7723645.586 6  -1650404.167 6
  21246926.606   -18600714.861 7 -13034206.278 7
  21605201.013   -16708325.195 7 -12882241.923 8
  20992232.825   -19997734.308 7 -15432232.043 8
  23438067.294    -6577917.937 5  -4960958.449 6
 94  1 27  5 18  0.0010000  0  8  9 24  2  5 13 12  4  7
  21372190.810   -17807150.103 6 -13800527.106 8
  21773317.396   -15119573.814 6 -11619387.342 8
  23966112.310     9718323.004 4   7615942.364 2
  22970407.153    -7798349.163 6  -1708614.734 6
  21255813.192   -18554024.074 7 -12997823.843 7
  21597194.747   -16750403.908 7 -12915030.531 8
  20992929.669   -19994050.765 7 -15429361.742 8
  23452820.513    -6500393.690 5  -4900549.947 6
 94  1 27  5 18 30.0010000  0  8  9 24  2  5 13 12  4  7
  21371876.833   -17808818.108 6 -13801826.864 8
  21761240.864   -15183026.678 6 -11668831.124 8
  23981851.833     9801050.836 3   7680405.545 2
  22956209.528    -7872969.128 6  -1766760.169 6
  21264758.497   -18507014.725 7 -12961193.180 7
  21589279.677   -16792006.823 7 -12947448.395 8
  20993744.450   -19989769.796 7 -15426025.912 8
  23467579.661    -6422823.385 5  -4840105.556 6
 94  1 27  5 19  0.0010000  0  8  9 24  2  5 13 12  4  7
  21371666.099   -17809912.878 6 -13802679.953 8
  21749245.599   -15246052.277 6 -11717941.970 8
  23997634.731     9883991.583 3   7745034.647 2
  22942024.052    -7947513.675 6  -1824846.822 6
  21273764.513   -18459692.488 7 -12924318.713 7
  21581453.997   -16833135.168 7 -12979496.448 8
  20994674.575   -19984886.423 7 -15422220.683 8
  23482350.716    -6345214.168 5  -4779630.842 6
 94  1 27  5 19 30.0010000  0  8  9 24  2  5 13 12  4  7
  21371565.755   -17810434.906 6
  21737338.317   -15308637.563 6 -11766709.702 8
  24013461.536     9967165.061 4   7809845.071 2
  22927849.638    -8021991.946 6  -1882881.827 6
  21282828.981   -18412050.849 7 -12887195.347 7
  21573717.958   -16873777.875 7 -13011166.101 8
  20995721.497   -19979394.991 7 -15417941.642 8
  23497123.856    -6267559.418 5  -4719120.665 6
 94  1 27  5 20  0.0010000  0  8  9 24  2  5 13 12  4  7
  21371572.591   -17810397.945 6
  21725513.216   -15370775.491 6 -11815128.856 8
  24029335.856    10050577.312 4   7874841.605 1
  22913681.216    -8096426.387 6  -1940882.698 6
  21291955.528   -18364101.943 7 -12849832.570 7
  21566075.935   -16913942.346 7 -13042463.093 8
  20996880.583   -19973312.613 7 -15413202.115 8
  23511908.747    -6189879.293 5  -4658590.700 6
 94  1 27  5 20 30.0010000  0  8  9 24  2  5 13 12  4  7
  21371688.247   -17809780.808 6 -13802577.029 8
  21713775.489   -15432447.309 6 -11863184.790 8
  24045257.653    10134241.189 4   7940034.177 2
  22899529.052    -8170820.535 6  -1998852.169 6
  21301139.083   -18315838.963 7 -12812225.052 7
  21558526.216   -16953617.801 7 -13073379.022 8
  20998149.692   -19966638.411 7 -15408001.433 8
  23526700.021    -6112166.956 5  -4598035.633 6
 94  1 27  5 21  0.0010000  0  8  9 24  2  5 13 12  4  7
  21371919.122   -17808566.726 6 -13801631.006 8
  21702134.606   -15493646.364 6 -11910872.356 8
  24061223.067    10218136.832 5   8005407.385 2
  22885382.692    -8245166.978 6  -2056784.456 6
  21310379.567   -18267263.468 7 -12774374.010 7
  21551067.778   -16992800.884 7 -13103911.304 8
  20999531.239   -19959379.005 7 -15402344.746 8
  23541493.192    -6034410.727 5  -4537446.377 6
 94  1 27  5 21 30.0010000  0  8  9 24  2  5 13 12  4  7
  21372258.177   -17806785.726 6 -13800243.229 8
  21690578.028   -15554371.952 6 -11958190.987 8
  24077227.044    10302264.174 4   8070961.115 2
  22871242.395    -8319474.193 6  -2114686.179 6
  21319685.435   -18218387.075 7 -12736288.514 7
  21543702.677   -17031498.771 7 -13134065.511 8
  21001017.013   -19951557.929 7 -15396250.388 8
  23556299.231    -5956615.259 5  -4476826.547 6
 94  1 27  5 22  0.0010000  0  8  9 24  2  5 13 12  4  7
  21372705.208   -17804436.263 6 -13798412.503 8
  21679108.474   -15614622.822 6 -12005139.714 8
  24093278.575    10386623.207 4   8136695.366 4
  22857106.903    -8393729.751 6  -2172547.654 6
  21329042.060   -18169208.742 7 -12697967.733 7
  21536432.591   -17069706.069 7 -13163837.432 8
  21002615.099   -19943171.012 7 -15389715.127 8
  23571106.895    -5878768.046 5  -4416166.386 6
 94  1 27  5 22 30.0010000  0  8  9 24  2  5 13 12  4  7
  21373263.755   -17801512.492 6 -13796134.253 8
  21667732.677   -15674407.729 6 -12051725.354 8
  24109379.653    10471210.247 4   8202607.295 4
  22842994.708    -8467911.345 6  -2230351.491 6
  21338459.067   -18119728.205 7 -12659411.468 7
  21529259.474   -17107417.887 7 -13193223.263 8
  21004319.763   -19934205.558 7 -15382729.051 8
  23585933.544    -5800868.231 5  -4355465.255 6
 94  1 27  5 23  0.0010000  0  8  9 24  2  5 13 12  4  7
  21373929.567   -17798019.960 6 -13793412.808 8
  21656445.114   -15733739.083 6 -12097957.569 8
  24125522.927    10556028.242 4   8268699.190 3
  22828895.317    -8542001.693 6  -2288084.221 6
  21347930.435   -18069948.695 7 -12620622.233 7
  21522174.052   -17144633.202 7 -13222222.214 8
  21006135.927   -19924658.721 7 -15375289.948 8
  23600765.466    -5722932.527 5  -4294736.137 5
 94  1 27  5 23 30.0010000  0  8  9 24  2  5 13 12  4  7
  21374705.208   -17793948.913 6 -13790240.584 8
  21645240.700   -15792605.218 6 -12143827.260 8
  24141709.052    10641110.892 4   8334997.295 3
  22814815.247    -8615980.632 6  -2345730.148 6
  21357461.896   -18019860.707 7 -12581592.634 7
  21515191.325   -17181338.071 7 -13250823.405 8
  21008067.224   -19914508.603 7 -15367380.758 8
  23615602.747    -5644968.069 5  -4233984.617 5
 94  1 27  5 24  0.0010000  0  8  9 24  2  5 13 12  4  7
  21375591.817   -17789278.907 6 -13786601.629 8
  21634129.005   -15851013.043 6 -12189339.841 8
  24157954.435    10726446.132 4   8401492.239 4
  22800763.036    -8689830.619 6  -2403275.579 6
  21367050.286   -17969473.495 7 -12542329.875 7
  21508300.974   -17217537.190 7 -13279030.517 8
  21010113.966   -19903756.193 7 -15359002.250 8
  23630440.372    -5566992.010 5  -4173224.057 6
 94  1 27  5 24 30.0010000  0  8  9 24  2  5 13 12  4  7
  21376592.685   -17784010.748 6 -13782496.560 8
  21623100.567   -15908966.121 6 -12234498.065 8
  24174240.278    10812021.360 4   8468174.185 4
  22786734.966    -8763544.588 6  -2460715.039 6
  21376692.599   -17918794.178 7 -12502839.499 7
  21501511.325   -17253233.571 7 -13306845.886 8
  21012271.677   -19892411.548 7 -15350162.259 8
  23645280.161    -5489021.718 5  -4112468.005 6
 94  1 27  5 25  0.0010000  0  8  9 24  2  5 13 12  4  7
  21377712.138   -17778148.197 6 -13777928.318 8
  21612162.192   -15966450.296 6 -12279290.927 8
  24190565.521    10897832.944 3   8535040.299 3
  22772736.333    -8837125.212 6  -2518050.590 6
  21386393.341   -17867823.645 7 -12463122.200 7
  21494811.677   -17288423.606 7 -13334266.686 8
  21014542.786   -19880479.965 7 -15340864.914 8
  23660113.802    -5411054.167 5  -4051714.095 6
 94  1 27  5 25 30.0010000  0  8  9 24  2  5 13 12  4  7
  21378940.958   -17771685.017 6 -13772892.091 8
  21601317.692   -16023446.165 6 -12323703.284 8
  24206935.091    10983873.537 4   8602084.860 4
  22758759.872    -8910575.389 6  -2575284.486 6
  21396147.560   -17816558.727 7 -12423175.509 7
  21488215.091   -17323099.722 7 -13361287.044 8
  21016923.216   -19867961.809 7 -15331110.499 8
  23674954.169    -5333070.709 5  -3990947.767 5
 94  1 27  5 26  0.0010000  0  8  9 24  2  5 13 12  4  7
  21380283.997   -17764634.856 6 -13767398.482 8
  21590562.278   -16079966.213 6 -12367744.880 8
  24223347.700    11070117.604 4   8669287.972 3
  22744803.122    -8983911.970 6  -2632429.869 6
  21405958.849   -17765008.037 7 -12383006.138 7
  21481709.786   -17357266.134 6 -13387910.222 8
  21019414.731   -19854877.164 7 -15320914.668 8
  23689798.138    -5255059.701 5  -3930159.983 5
 94  1 27  5 26 30.0010000  0  8  9 24  2  5 13 12  4  7
  21381730.552   -17757016.903 6 -13761462.443 8
  21579892.966   -16136027.563 6 -12411429.037 8
  24239804.833    11156567.167 5   8736651.220 3
  22730861.505    -9057170.839 6  -2689514.697 6
  21415820.380   -17713177.777 7 -12342618.925 7
  21475305.638   -17390924.780 6 -13414137.741 8
  21022014.146   -19841225.999 7 -15310277.392 8
  23704649.114    -5177019.377 5  -3869349.363 5
 94  1 27  5 27  0.0010000  0  8  9 24  2  5 13 12  4  7
  21383287.317   -17748835.108 6 -13755087.046 8
  21569312.427   -16191625.694 6 -12454752.242 8
  24256296.395    11243231.577 5   8804181.894 2
  22716932.747    -9130368.261 6  -2746551.632 6
  21425737.591   -17661068.237 7 -12302014.084 7
  21468999.153   -17424071.786 7 -13439966.579 8
  21024719.849   -19827004.117 7 -15299195.399 8
  23719508.294    -5098936.491 5  -3808505.562 5
 94  1 27  5 27 30.0010000  0  8  9 24  2  5 13 12  4  7
  21384952.544   -17740082.514 6 -13748266.856 8
  21558819.146   -16246764.968 6 -12497717.894 8
  24272829.560    11330126.909 4   8871892.510 2
  22703016.513    -9203499.016 6  -2803536.626 6
  21435707.411   -17608674.045 7 -12261187.434 7
  21462793.122   -17456697.577 7 -13465389.272 8
  21027537.567   -19812200.425 7 -15287660.045 8
  23734374.981    -5020800.510 5  -3747620.395 5
 94  1 27  5 28  0.0010000  0  8  9 24  2  5 13 12  4  7
  21386719.935   -17730787.492 6 -13741023.996 8
  21548409.349   -16301467.518 6 -12540343.248 8
  24289405.731    11417253.793 4   8939783.589 1
  22689109.817    -9276580.384 6  -2860483.159 6
  21445729.372   -17556014.880 7 -12220154.327 7
  21456679.872   -17488817.331 7 -13490417.655 8
  21030463.310   -19796825.600 7 -15275679.655 8
  23749249.942    -4942643.127 5  -3686718.559 5
 94  1 27  5 28 30.0010000  0  8  9 24  2  5 13 12  4  7
  21388593.872   -17720938.091 6 -13733349.155 8
  21538086.575   -16355716.645 6 -12582615.277 8
  24306031.341    11504620.355 3   9007861.413 1
  22675213.138    -9349603.971 6  -2917384.627 6
  21455798.888   -17503092.734 7 -12178916.287 7
  21450663.513   -17520428.716 7 -13515049.907 8
  21033498.185   -19780877.748 7 -15263252.754 8
  23764123.396    -4864477.470 5  -3625810.250 5
 94  1 27  5 29  0.0010000  0  8  9 24  2  5 13 12  4  7
  21390580.849   -17710509.359 6 -13725222.871 8
  21527855.278   -16409476.625 6 -12624506.160 8
  24322706.380    11592222.186 3   9076122.514 2
  22661336.396    -9422526.982 6  -2974207.764 6
  21465920.997   -17449896.984 7 -12137465.059 7
  21444748.981   -17551517.275 7 -13539274.756 8
  21036643.560   -19764352.772 7 -15250376.154 8
  23779001.669    -4786292.896 5  -3564887.239 5
 94  1 27  5 29 30.0010000  0  8  9 24  2  5 13 12  4  7
  21392677.278   -17699484.886 6 -13716632.379 8
  21517720.036   -16462732.779 6 -12666004.436 8
  24339416.302    11680058.879 3   9144566.708 1
  22647484.849    -9495325.794 6  -3030934.100 6
  21476097.833   -17396422.511 7 -12095796.634 7
  21438930.599   -17582073.255 7 -13563084.615 8
  21039896.372   -19747242.554 7 -15237043.508 8
  23793885.591    -4708084.924 5  -3503945.976 5
 94  1 27  5 30  0.0010000  0  8  9 24  2  5 13 12  4  7
  21394889.021   -17687853.984 6 -13707569.362 8
  21507686.091   -16515478.455 6 -12707104.935 8
  24356166.388    11768109.570 3   9213177.572 1
  22633656.380    -9567994.753 6  -3087559.273 6
  21486324.325   -17342675.677 7 -12053915.984 7
  21433219.458   -17612099.097 7 -13586481.385 8
  21043262.810   -19729561.608 7 -15223266.143 8
  23808768.606    -4629852.078 5  -3442985.343 5
 94  1 27  5 30 30.0010000  0  8  9 24  2  5 13 12  4  7
  21397221.591   -17675604.422 6 -13698024.271 8
  21497746.489   -16567718.258 6 -12747811.251 8
  24372974.583    11856350.563 3   9281936.741 2
  22619853.083    -9640530.359 6  -3144080.513 6
  21496602.364   -17288668.357 7 -12011832.359 7
  21427604.786   -17641602.432 7 -13609470.999 8
  21046732.380   -19711326.995 7 -15209057.356 8
  23823663.505    -4551588.464 5  -3382000.719 5
 94  1 27  5 31  0.0010000  0  8  9 24  2  5 13 12  4  7
  21399670.505   -17662740.681 6 -13688000.602 8
  21487902.903   -16619443.390 6 -12788116.532 8
  24389798.528    11944789.246 3   9350849.947 2
  22606074.122    -9712924.983 6  -3200491.906 6
  21506932.481   -17234391.725 7 -11969538.875 7
  21422091.802   -17670570.167 7 -13632043.259 8
  21050308.403   -19692520.749 7 -15194403.126 8
  23838571.099    -4473273.519 5  -3320976.089 5
 94  1 27  5 31 30.0010000  0  8  9 24  2  5 13 12  4  7
  21402235.396   -17649277.736 6 -13677509.993 8
  21478152.935   -16670670.986 6 -12828034.143 8
  24406660.591    12033428.323 3   9419919.288 1
  22592321.083    -9785198.684 6  -3256809.070 6
  21517307.560   -17179850.166 7 -11927038.963 7
  21416684.575   -17699002.752 7 -13654198.527 8
  21053995.333   -19673143.873 7 -15179304.258 8
  23853476.489    -4394914.274 5  -3259916.958 5
 94  1 27  5 32  0.0010000  0  8  9 24  2  5 13 12  4  7
  21404904.989   -17635228.189 6 -13666562.301 8
  21468498.435   -16721415.556 6 -12867575.348 9
  24423564.364    12122261.340 3   9489139.780 2
  22578589.521    -9857364.703 6  -3313042.333 6
  21527736.997   -17125055.747 7 -11884342.011 7
  21411373.403   -17726907.955 7 -13675942.844 8
  21057790.560   -19653212.789 7 -15163773.540 8
  23868398.466    -4316527.641 5  -3198836.481 5
 94  1 27  5 32 30.0010000  0  8  9 24  2  5 13 12  4  7
  21407687.060   -17620608.379 6 -13655170.265 8
  21458933.606   -16771674.833 6 -12906738.397 8
  24440510.669    12211304.665 3   9558524.155 2
  22564874.442    -9929427.652 6  -3369195.291 6
  21538212.817   -17070008.212 7 -11841447.827 7
  21406163.739   -17754281.824 7 -13697273.135 8
  21061693.349   -19632708.435 7 -15147796.119 8
  23883318.864    -4238115.367 5  -3137736.028 5
 94  1 27  5 33  0.0010000  0  8  9 24  2  5 13 12  4  7
  21410574.013   -17605437.120 6 -13643348.523 8
  21449461.302   -16821452.518 6 -12945526.198 8
  24457494.974    12300555.476 3   9628070.237 3
  22551183.763   -10001392.104 6  -3425271.465 7
  21548738.403   -17014706.032 7 -11798355.227 7
  21401055.380   -17781118.404 6 -13718184.760 8
  21065704.286   -19611630.234 7 -15131371.541 8
  23898239.396    -4159686.625 5  -3076622.725 5
 94  1 27  5 33 30.0010000  0  8  9 24  2  5 13 12  4  7
  21413564.716   -17589718.803 6 -13631100.506 8
  21440079.935   -16870767.068 6 -12983953.111 8
  24474518.638    12390006.975 4   9697772.703 2
  22537502.919   -10073260.918 6  -3481273.140 7
  21559307.247   -16959161.055 7 -11755073.420 7
  21396050.888   -17807425.712 7 -13738683.967 8
  21069817.239   -19590000.775 7 -15114517.409 8
  23913165.052    -4081266.900 5  -3015516.465 5
 94  1 27  5 34  0.0010000  0  8  9 24  2  5 13 12  4  7
  21416667.872   -17573432.462 6 -13618409.865 8
  21430787.661   -16919588.269 6 -13021995.597 8
  24491579.614    12479691.054 4   9767656.384 2
  22523853.880   -10145009.922 6  -3537181.450 7
  21569924.161   -16903358.857 7 -11711591.191 7
  21391145.091   -17833185.148 6 -13758756.257 8
  21074042.091   -19567803.496 7 -15097220.823 8
  23928087.778    -4002842.813 5  -2954406.796 5
 94  1 27  5 34 30.0010000  0  8  9 24  2  5 13 12  4  7
  21419868.583   -17556604.523 6 -13605297.190 8
  21421589.903   -16967926.566 6 -13059661.795 8
  24508686.661    12569594.961 4   9837711.333 3
  22510221.755   -10216655.350 6  -3593009.057 7
  21580587.028   -16847318.440 7 -11667923.331 7
  21386346.200   -17858411.731 6 -13778413.340 8
  21078374.622   -19545053.519 7 -15079493.569 8
  23943005.747    -3924439.656 5  -2893313.444 5
 94  1 27  5 35  0.0010000  0  8  9 24  2  5 13 12  4  7
  21423173.802   -17539232.687 6 -13591760.707 8
  21412482.114   -17015779.924 6 -13096950.120 8
  24525840.091    12659709.770 4   9907930.648 3
  22496607.685   -10288190.185 6  -3648750.482 7
  21591296.013   -16791044.252 7 -11624073.301 7
  21381647.685   -17883105.985 6 -13797655.619 8
  21082804.427   -19521761.327 7 -15061343.805 8
  23957915.927    -3846068.581 5  -2832245.080 5
 94  1 27  5 35 30.0010000  0  8  9 24  2  5 13 12  4  7
  21426590.114   -17521273.224 6 -13577766.328 8
  21403470.903   -17063129.113 6 -13133845.595 8
  24543032.677    12750062.970 4   9978335.756 2
  22483020.286   -10359588.308 6  -3704385.393 7
  21602054.169   -16734523.659 7 -11580031.297 7
  21377050.880   -17907251.323 7 -13816470.173 8
  21087346.638   -19497904.305 7 -15042753.915 9
  23972834.466    -3767698.353 5  -2771177.393 5
 94  1 27  5 36  0.0010000  0  8  9 24  2  5 13 12  4  7
  21430118.692   -17502716.333 6 -13563306.430 8
  21394559.302   -17109960.661 6 -13170337.690 8
  24560271.302    12840656.413 4  10048928.022 2
  22469460.653   -10430846.325 6  -3759911.119 7
  21612856.591   -16677753.559 7 -11535794.859 7
  21372562.458   -17930840.891 6 -13834851.657 8
  21091995.520   -19473467.869 7 -15023712.529 9
  23987752.185    -3689300.704 5  -2710088.327 5
 94  1 27  5 36 30.0010000  0  8  9 24  2  5 13 12  4  7
  21433764.419   -17483568.826 6 -13548386.307 8
  21385741.239   -17156299.517 6 -13206445.860 8
  24577549.028    12931460.543 4  10119684.430 2
  22455924.614   -10501964.148 6  -3815327.594 7
  21623707.286   -16620743.720 7 -11491371.605 7
  21368182.153   -17953880.200 7 -13852804.376 8
  21096752.474   -19448456.953 6 -15004223.500 9
  24002677.356    -3610863.504 5  -2648968.453 5
 94  1 27  5 37  0.0010000  0  8  9 24  2  5 13 12  4  7
  21437530.255   -17463799.680 6 -13532981.786 8
  21377018.716   -17202136.305 6 -13242162.831 8
  24594871.114    13022477.338 4  10190606.571 2
  22442422.856   -10572923.620 6  -3870620.696 7
  21634602.114   -16563483.214 7 -11446753.027 7
  21363904.239   -17976354.854 7 -13870317.091 8
  21101625.216   -19422862.933 7 -14984280.101 9
  24017615.497    -3532354.689 5  -2587792.748 5
 94  1 27  5 37 30.0010000  0  8  9 24  2  5 13 12  4  7
  21441403.685   -17443432.848 6 -13517111.540 8
  21368389.286   -17247483.072 6 -13277497.970 8
  24612231.911    13113696.166 4  10261686.140 3
  22428944.716   -10643753.227 6  -3925812.602 7
  21645540.677   -16505993.084 7 -11401955.531 7
  21359732.333   -17998281.972 7 -13887403.169 8
  21106601.106   -19396715.652 7 -14963905.599 9
  24032571.177    -3453790.441 5  -2526573.864 5
 94  1 27  5 38  0.0010000  0  8  9 24  2  5 13 12  4  7
  21445385.450   -17422501.424 6 -13500801.356 8
  21359853.989   -17292330.110 6 -13312443.703 8
  24629627.278    13205117.925 3  10332923.857 1
  22415493.333   -10714456.895 6  -3980906.375 7
  21656524.864   -16448276.100 7 -11356981.263 7
  21355660.560   -18019660.105 7 -13904061.461 8
  21111679.942   -19370020.608 7 -14943104.261 9
  24047521.825    -3375191.457 5  -2465327.926 5
 94  1 27  5 38 30.0010000  0  8  9 24  2  5 13 12  4  7
  21449475.161   -17401005.654 6 -13484051.417 8
  21351419.739   -17336661.240 6 -13346987.432 8
  24647060.450    13296754.699 3  10404329.124 1
  22402065.130   -10785021.815 6  -4035892.027 7
  21667549.935   -16390329.926 7 -11311828.390 7
  21351700.185   -18040483.541 7 -13920287.519 8
  21116862.544   -19342778.218 6 -14921876.426 9
  24062490.192    -3296573.149 5  -2404066.934 5
 94  1 27  5 39  0.0010000  0  8  9 24  2  5 13 12  4  7
  21453676.872   -17378951.151 6 -13466866.110 8
  21343086.716   -17380459.346 6 -13381115.830 8
  24664555.380    13388624.062 3  10475915.662 1
  22388658.950   -10855457.915 6  -4090777.286 7
  21678621.013   -16332158.355 7 -11266499.902 7
  21347844.427   -18060752.023 7 -13936081.150 7
  21122152.685   -19314987.646 7 -14900221.427 9
  24077449.208    -3217951.905 5  -2342803.640 5
 94  1 27  5 39 30.0010000  0  8  9 24  2  5 13 12  4  7
  21457974.099   -17356364.990 6 -13449266.512 8
  21334850.310   -17423730.812 6 -13414833.851 8
  24682081.036    13480732.232 3  10547688.227 1
  22375281.263   -10925771.711 6  -4145567.256 7
  21689731.372   -16273769.577 7 -11221002.150 7
  21344091.130   -18080470.282 7 -13951446.028 8
  21127545.739   -19286647.615 7 -14878138.286 9
  24092402.028    -3139346.804 5  -2281552.911 5
 94  1 27  5 40  0.0010000  0  8  9 24  2  5 13 12  4  7
  21462370.700   -17333240.837 6 -13431247.699 8
  21326716.817   -17466489.538 6 -13448152.324 8
  24699647.903    13573065.175 3  10619636.013 1
  22361923.888   -10995947.091 6  -4200249.375 7
  21700882.255   -16215167.231 7 -11175337.985 7
  21340441.599   -18099637.862 7 -13966381.812 8
  21133045.247   -19257760.668 6 -14855628.973 9
  24107362.622    -3060755.765 5  -2220313.167 5
 94  1 27  5 40 30.0010000  0  8  9 24  2  5 13 12  4  7
  21466879.872   -17309555.892 6 -13412791.914 8
  21318674.606   -17508737.989 6 -13481073.204 8
  24717256.044    13665614.873 3  10691752.614 1
  22348603.755   -11065972.881 6  -4254814.919 7
  21712076.349   -16156343.730 7 -11129501.490 7
  21336902.310   -18118243.717 6 -13980879.892 8
  21138644.216   -19228319.764 6 -14832688.007 9
  24122315.216    -2982158.208 5  -2159068.328 5
 94  1 27  5 41  0.0010000  0  8  9 24  2  5 13 12  4  7
  21471492.263   -17285307.560 6 -13393897.130 8
  21310729.380   -17550488.451 6 -13513606.008 8
  24734909.200    13758364.515 3  10764025.051 1
  22335301.755   -11135854.104 6  -4309267.816 7
  21723311.356   -16097300.316 7 -11083493.637 7
  21333470.513   -18136285.335 7 -13994938.303 7
  21144353.302   -19198329.428 7 -14809318.907 9
  24137272.747    -2903557.806 5  -2097821.270 5
 94  1 27  5 41 30.0010000  0  8  9 24  2  5 13 12  4  7
  21476217.583   -17260486.311 6 -13374555.919 8
  21302880.185   -17591739.828 6 -13545749.929 8
  24752589.388    13851296.233 2  10836439.344 1
  22322033.849   -11205575.770 6  -4363596.392 7
  21734592.341   -16038038.600 7 -11037315.682 7
  21330144.817   -18153760.775 7 -14008555.531 8
  21150161.435   -19167794.944 6 -14785525.805 9
  24152233.114    -2824948.499 5  -2036567.270 5
 94  1 27  5 42  0.0010000  0  8  9 24  2  5 13 12  4  7
  21481050.153   -17235082.001 6 -13354760.362 8
  21295123.802   -17632491.178 6 -13577504.221 8
  24770304.544    13944383.944 2
  22308797.630   -11275135.335 6  -4417798.653 7
  21745906.114   -15978564.136 7 -10990971.947 7
  21326926.817   -18170671.978 7 -14021733.096 8
  21156077.528   -19136719.150 6 -14761310.897 9
  24167197.388    -2746325.091 5  -1975302.305 5
 94  1 27  5 42 30.0010000  0  8  9 24  2  5 13 12  4  7
  21485998.075   -17209098.575 6 -13334513.540 8
  21287468.302   -17672729.705 6 -13608858.906 8
  24788054.310    14037636.038 2
  22295589.403   -11344537.520 6  -4471878.282 7
  21757263.911   -15918879.321 7 -10944464.301 7
  21323813.981   -18187017.662 6 -14034470.010 7
  21162093.896   -19105089.854 6 -14736664.689 9
  24182158.489    -2667686.850 5  -1914025.769 5
 94  1 27  5 43  0.0010000  0  7  9 24  5 13 12  4  7
  21491046.677   -17182538.981 6 -13313817.777 8
  21279910.677   -17712448.680 6 -13639808.744 8
  22282413.442   -11413784.965 6  -4525837.336 7
  21768661.106   -15858986.711 7 -10897794.739 7
  21320814.606   -18202796.874 7 -14046765.508 8
  21168219.677   -19072907.336 6 -14711587.405 9
  24197122.349    -2589035.313 5  -1852738.882 5
 94  1 27  5 43 30.0010000  0  7  9 24  5 13 12  4  7
  21496209.114   -17155427.318 6 -13292691.824 8
  21272448.880   -17751655.836 6 -13670359.762 8
  22269268.646   -11482873.517 6  -4579672.569 7
  21780097.325   -15798895.234 7 -10850970.211 7
  21317918.122   -18218014.987 7 -14058623.778 7
  21174449.114   -19040176.605 6 -14686082.936 9
  24212092.278    -2510367.058 5  -1791438.958 5
 94  1 27  5 44  0.0010000  0  7  9 24  5 13 12  4  7
  21501476.091   -17127754.042 6 -13271128.248 8
  21265091.669   -17790336.763 6 -13700500.732 8
  22256151.638   -11551790.970 6  -4633374.479 7
  21791575.653   -15738584.285 7 -10803974.668 7
  21315131.333   -18232647.906 6 -14070026.064 7
  21180780.021   -19006887.027 6 -14660143.008 9
  24227068.513    -2431667.729 5  -1730114.808 5
 94  1 27  5 44 30.0010000  0  7  9 24  5 13 12  4  7
  21506843.880   -17099541.734 6 -13249144.645 8
  21257823.091   -17828506.824 6 -13730243.630 8
  22243066.044   -11620565.347 6  -4686964.894 7
  21803087.310   -15678071.691 7 -10756821.999 7
  21312458.810   -18246709.948 7 -14080983.501 7
  21187219.091   -18973071.463 6 -14633793.211 9
  24242049.505    -2352960.737 5  -1668784.705 5
 94  1 27  5 45  0.0010000  0  7  9 24  5 13 12  4  7
  21512313.013   -17070796.485 6 -13226745.761 8
  21250656.927   -17866164.871 6 -13759587.552 8
  22230003.044   -11689197.311 6  -4740444.351 7
  21814639.786   -15617356.467 7 -10709511.436 7
  21309892.130   -18260196.723 7 -14091492.680 8
  21193751.802   -18938738.637 6 -14607040.363 9
  24257032.708    -2274239.113 5  -1607443.200 5
 94  1 27  5 45 30.0010000  0  7  9 24  5 13 12  4  7
  21517889.099   -17041501.969 6 -13203918.884 8
  21243591.075   -17903299.692 6 -13788523.759 8
  22216974.270   -11757674.807 6  -4793803.445 7
  21826233.622   -15556437.741 7 -10662042.302 7
  21307432.825   -18273103.730 7 -14101550.096 7
  21200381.435   -18903895.178 6 -14579889.614 9
  24272013.036    -2195503.181 5  -1546090.554 5
 94  1 27  5 46  0.0010000  0  7  9 24  5 13 12  4  7
  21523568.919   -17011646.942 6 -13180655.233 8
  21236627.989   -17939905.819 6 -13817048.003 8
  22203968.388   -11826007.032 6  -4847049.326 7
  21837866.341   -15495326.326 7 -10614423.026 7
  21305086.442   -18285438.632 7 -14111161.712 7
  21207106.216   -18868558.952 6 -14552354.891 9
  24286999.146    -2116769.433 5  -1484739.589 5
 94  1 27  5 46 30.0010000  0  7  9 24  5 13 12  4  7
  21529360.833   -16981222.855 6 -13156948.168 8
  21229762.380   -17975967.602 6 -13845148.092 8
  22190997.489   -11894177.391 6  -4900169.095 8
  21849529.192   -15434019.291 7 -10566651.307 7
  21302850.841   -18297195.199 7 -14120322.684 7
  21213927.380   -18832708.554 6 -14524419.521 9
  24301979.224    -2038032.329 5  -1423386.024 5
 94  1 27  5 47  0.0010000  0  7  9 24  5 13 12  4  7
  21535256.513   -16950220.396 6 -13132790.420 8
  21223001.177   -18011488.242 6 -13872826.505 8
  22178056.614   -11962171.835 6  -4953151.777 8
  21861237.521   -15372521.813 7 -10518731.203 7
  21300723.122   -18308375.195 7 -14129034.373 7
  21220849.153   -18796328.849 6 -14496071.696 9
  24316959.849    -1959303.060 5  -1362038.547 5
 94  1 27  5 47 30.0010000  0  7  9 24  5 13 12  4  7
  21541272.169   -16918627.294 6 -13108172.425 8
  21216347.239   -18046475.380 6 -13900089.200 8
  22165156.552   -12029979.225 6  -5005988.704 7
  21872973.630   -15310839.126 7 -10470666.776 7
  21298703.013   -18318980.495 6 -14137298.254 7
  21227874.028   -18759414.661 6 -14467307.395 9
  24331941.458    -1880597.044 5  -1300709.216 5
 94  1 27  5 48  0.0010000  0  7  9 24  5 13 12  4  7
  21547394.700   -16886440.845 6 -13083092.089 8
  21209791.536   -18080918.557 6 -13926928.028 8
  22152289.927   -12097583.027 6  -5058666.994 8
  21884748.341   -15248952.309 7 -10422443.280 7
  21296801.396   -18328988.839 7 -14145096.975 7
  21235008.638   -18721921.316 6 -14438091.800 9
  24346914.356    -1801885.412 5  -1239375.500 4
 94  1 27  5 48 30.0010000  0  7  9 24  5 13 12  4  7
  21553626.786   -16853702.467 6 -13057581.685 8
  21203334.614   -18114854.195 6 -13953371.374 8
  22139458.052   -12165019.003 6  -5111214.498 8
  21896556.927   -15186890.401 7 -10374083.362 7
  21295004.935   -18338426.301 7 -14152450.853 8
  21242253.685   -18683865.332 6 -14408437.784 9
  24361888.122    -1723184.796 5  -1178050.348 5
 94  1 27  5 49  0.0010000  0  7  9 24  5 13 12  4  7
  21559961.310   -16820405.439 6 -13031635.969 8
  21196974.114   -18148283.990 6 -13979420.556 8
  22126657.966   -12232282.408 6  -5163627.550 8
  21908400.872   -15124648.916 7 -10325583.508 7
  21293319.177   -18347284.845 7 -14159353.622 7
  21249597.700   -18645255.320 6 -14378352.062 9
  24376867.739    -1644474.448 5  -1116717.616 5
 94  1 27  5 49 30.0010000  0  7  9 24  5 13 12  4  7
  21566401.153   -16786568.857 6 -13005269.824 8
  21190707.810   -18181208.932 6 -14005076.335 8
  22113888.263   -12299380.030 6  -5215911.418 8
  21920280.911   -15062229.659 7 -10276945.131 7
  21291741.614   -18355563.281 7 -14165804.358 7
  21257047.294   -18606102.805 6 -14347843.609 9
  24391854.169    -1565737.671 5  -1055364.303 5
 94  1 27  5 50  0.0010000  0  7  9 24  5 13 12  4  7
  21572942.091   -16752206.550 6 -12978494.020 8
  21184540.122   -18213627.742 6 -14030337.739 8
  22101150.333   -12366328.239 6  -5268078.847 8
  21932191.036   -14999633.790 7 -10228169.133 7
  21290275.919   -18363259.561 7 -14171801.462 7
  21264599.067   -18566420.637 6 -14316922.432 9
  24406847.028    -1486962.519 5   -993981.103 4
 94  1 27  5 50 30.0010000  0  7  9 24  5 13 12  4  7
  21579581.583   -16717296.165 6 -12951291.129 8
  21178468.192   -18245518.233 6 -14055187.464 8
  22088441.177   -12433107.087 6  -5320114.315 8
  21944136.692   -14936851.403 7 -10179247.792 7
  21288926.286   -18370360.687 7 -14177334.820 7
  21272253.677   -18526227.005 7 -14285602.721 9
  24421841.536    -1408140.936 5   -932561.684 5
 94  1 27  5 51  0.0010000  0  7  9 24  5 13 12  4  7
  21586332.450   -16681842.021 6 -12923664.533 8
  21172498.849   -18276893.064 6 -14079635.382 8
  22075767.521   -12499715.504 6  -5372016.984 8
  21956119.872   -14873896.703 7 -10130192.196 7
  21287686.372   -18376877.956 7 -14182413.217 7
  21279991.224   -18485535.070 6 -14253894.725 9
  24436849.278    -1329296.962 5   -871124.841 5
 94  1 27  5 51 30.0010000  0  7  9 24  5 13 12  4  7
  21593180.255   -16645849.085 6 -12895618.102 8
  21166624.966   -18307745.690 6 -14103676.382 8
  22063129.669   -12566141.195 6  -5423777.259 8
  21968132.005   -14810771.178 7 -10081003.474 7
  21286557.786   -18382809.567 7 -14187035.267 7
  21287829.911   -18444344.467 6 -14221798.150 9
  24451851.356    -1250443.401 5   -809680.531 5
 94  1 27  5 52  0.0010000  0  7  9 24  5 13 12  4  7
  21600133.286   -16609313.803 6 -12867149.060 8
  21160857.739   -18338058.458 6 -14127296.708 8
  22050522.505   -12632373.929 6  -5475387.183 8
  21980177.771   -14747473.206 7 -10031680.386 7
  21285542.528   -18388150.927 7 -14191197.372 7
  21295766.802   -18402647.257 6 -14189306.816 9
  24466857.935    -1171592.772 5   -748238.488 5
 94  1 27  5 52 30.0010000  0  7  9 24  5 13 12  4  7
  21607188.067   -16572243.889 6 -12838263.430 8
  21155193.536   -18367831.012 6 -14150496.093 8
  22037961.528   -12698393.070 6  -5526830.672 8
  21992253.606   -14684010.428 7  -9982228.874 6
  21284634.638   -18392906.594 7 -14194903.089 7
  21303795.411   -18360442.726 6 -14156420.170 9
  24481852.005    -1092764.017 5   -686813.518 5
 94  1 27  5 53  0.0010000  0  7  9 24  5 13 12  4  7
  21614338.528   -16534648.360 6 -12808968.232 8
  21149630.888   -18397064.135 6 -14173275.139 8
  22025436.817   -12764195.556 6  -5578105.337 8
  22004358.317   -14620383.276 7  -9932649.275 6
  21283843.372   -18397074.088 6 -14198150.500 7
  21311928.489   -18317717.666 6 -14123127.917 9
  24496857.528    -1013963.357 5   -625410.435 4
 94  1 27  5 53 30.0010000  0  7  9 24  5 13 12  4  7
  21621596.255   -16496524.065 6 -12779261.007 8
  21144173.677   -18425731.694 6 -14195613.484 8
  22012957.521   -12829782.984 6  -5629212.423 8
  22016500.349   -14556586.989 7  -9882937.880 7
  21283166.255   -18400645.836 7 -14200933.690 7
  21320155.145   -18274476.730 6 -14089433.690 9
  24511848.169     -935174.614 5   -564016.622 5
